     2              OBSERVATION DATA    GPS                 RINEX VERSION / TYPE
ASHTORIN MIT 28 - OCT - 96 11:40                            PGM / RUN BY / DATE
                                                            COMMENT
CHINA LAKE 1996 P-Code Ashtech data EXPT #2                 COMMENT
Original Marker Name: GS14                                  COMMENT
Campaign Name: China Lake Nov 1996                          COMMENT
4-Character Station Name: GS14                              COMMENT
6-Character Antenna Code: ASHP12                            COMMENT
Vertical Measurement Point: TGP                             COMMENT
Vertical Offset to Rinex Ref. Point: 0.0640                 COMMENT
Radial Measurement Point: RRP                               COMMENT
Radial Offset to Rinex Ref. Point: 0.0000                   COMMENT
Antenna Height from Field Measurement: 0.2160 m             COMMENT
Additional Antenna Identification Info.:                    COMMENT
Ashtech L1/L2 Revision B (700228DE)                         COMMENT
Original XYZ: -2455781.9300 -4602727.8900 3658823.2300      COMMENT
New XYZ position is based on association with SCEC monument COMMENT
E1F4E9E8+0011. Position of that monument is believed to be  COMMENT
valid to within 1 m horizontally; vertical accuracy         COMMENT
should be no worse than 3-times this value.                 COMMENT
                                                            COMMENT
Revised Rinex header created by UCSD GPS archive for        COMMENT
GSAC on 01-Aug-2000 (2000:214) 05:29:54 GMT                 COMMENT
For assistance contact dagnew@ucsd.edu                      COMMENT
or anderson@python.ucsd.edu                                 COMMENT
                                                            COMMENT
GO14                                                        MARKER NAME
                                                            MARKER NUMBER
JDT US DEFENSE MAPPING AGENCY                               OBSERVER / AGENCY
940 ASHTECH Z-XII3 1E861D0                                  REC # / TYPE / VERS
351 ASHTECH GEODETIC P                                      ANT # / TYPE
 -2373308.0212 -4618197.6587  3694454.8613                  APPROX POSITION XYZ
        0.1520        0.0000        0.0000                  ANTENNA: DELTA H/E/N
     1     1     0                                          WAVELENGTH FACT L1/2
     7    L1    L2    C1    P1    P2    D1    D2            # / TYPES OF OBSERV
    30                                                      INTERVAL
  1996    10    21    15    26    0.000000                  TIME OF FIRST OBS
  1996    10    21    21    29   60.000000                  TIME OF LAST OBS
                                                            END OF HEADER
 96 10 21 15 26  0.0000000  0  7 28 22 26 17  6 23 21               -0.001991993
    -45720.77319    -29506.65159  20104168.983           0.0005   20104171.3715
      1867.286        1455.028
     18163.62919      4932.21152  22588049.455           0.0005          0.0005
      -764.081        -595.388
     27518.69819     16285.75457  21251253.136           0.0005          0.0005
     -1027.611        -800.736
     -6150.90519     -3590.68258  19595150.010           0.0005   19595152.7405
       231.845         180.658
     89383.82019     52200.85358  20305750.706           0.0005   20305754.0925
     -2536.762       -1976.698
    -20643.83519    -12461.37158  19803992.087           0.0005   19803994.6985
       790.492         615.968
    -66546.98919    -40057.14157  22101238.591           0.0005   22101242.0635
      2536.922        1976.822
 96 10 21 15 26 30.0000000  0  8 28 22 26 17  3  6 23 21            -0.001983382
   -101797.916 9    -73203.11449  20093497.864    20093496.4345   20093500.2754
      1869.912        1457.074
     41042.550 9     22760.06157  22592403.385           0.0005   22592407.0225
      -762.457        -594.122
     58364.101 9     40325.81758  21257122.814           0.0005   21257125.9345
     -1029.819        -802.456
    -13268.174 9     -9136.60248  19593795.694    19593794.1595   19593798.4644
       241.428         188.126
    -81040.71718    -38463.15752  23603042.539           0.0005          0.0005
      3462.939        2698.394
    165427.962 9    111456.01748  20320221.571    20320220.3115   20320224.8034
     -2534.209       -1974.708
    -44434.816 9    -30999.78248  19799464.628    19799462.9645   19799467.4844
       794.283         618.922
   -142815.334 9    -99486.99947  22086724.967    22086723.2795   22086728.7444
      2546.330        1984.153
 96 10 21 15 27  0.0000000  0  7 28 22 26 17  6 23 21                0.000752374
   -157847.761 9   -116878.308 9  21282001.447    21282000.329    21282004.183
      1866.600        1454.494
     63966.124 9     40622.57547  23795935.957    23795933.7735   23795939.0644
      -766.444        -597.229
     89355.115 9     64474.66248  22462190.924    22462189.5865   22462193.1334
     -1037.124        -808.149
    -20579.044 9    -14833.38448  20791574.274    20791572.7354   20791577.0864
       245.480         191.283
    241489.191 9    170724.48948  21533865.063    21533864.1184   21533868.6354
     -2537.776       -1977.488
    -68247.091 9    -49554.78748  20994103.039    20994101.5294   20994106.0274
       792.779         617.750
   -219253.473 9   -159049.17947  23271349.044    23271347.5634   23271352.8714
      2549.648        1986.739
 96 10 21 15 27 30.0000000  0  8 28 22 26 17  3  6 23 21             0.000753178
   -213739.717 9   -160430.476 9  21271366.142    21271364.469    21271368.321
      1859.404        1448.886
     87073.922 9     58628.62947  23800332.948    23800331.1974   23800336.4074
      -774.106        -603.199
    120627.527 9     88842.77348  22468142.160    22468140.6084   22468144.1344
     -1047.762        -816.438
    -27946.054 9    -20573.91048  20790172.623    20790170.8284   20790175.1684
       245.468         191.274
   -289239.888 9   -200696.18255  24762600.720           0.0005   24762603.9375
      3475.072        2707.848
    317728.831 9    230131.98448  21548373.316    21548372.0364   21548376.5924
     -2544.832       -1982.986
    -91947.181 9    -68022.38248  20989593.733    20989591.5974   20989596.0784
       787.052         613.287
   -295736.426 9   -218646.27147  23256794.488    23256793.3264   23256798.6504
      2549.104        1986.315
 96 10 21 15 28  0.0000000  0  8 28 22 26 17  3  6 23 21             0.000753841
   -269377.226 9   -203784.377 9  21260778.575    21260776.980    21260780.870
      1848.891        1440.694
    110441.558 9     76837.17047  23804779.997    23804778.0684   23804783.1454
      -784.613        -611.387
    152264.898 9    113495.27248  22474162.339    22474160.9864   22474164.5594
     -1062.201        -827.689
    -35266.544 9    -26278.19248  20788779.630    20788777.7924   20788782.0954
       241.803         188.418
   -393510.814 9   -281946.26446  24742761.970    24742758.9945   24742762.4394
      3475.591        2708.253
    394218.806 9    289734.53848  21562928.842    21562927.6244   21562932.1914
     -2555.315       -1991.155
   -115437.893 9    -86326.82548  20985123.505    20985121.5014   20985125.9854
       778.174         606.369
   -372174.503 9   -278208.39647  23242249.110    23242247.6464   23242252.9534
      2545.928        1983.840
 96 10 21 15 28 30.0000000  0  8 28 22 26 17  3  6 23 21             0.000754417
   -324680.549 9   -246877.872 9  21250254.578    21250253.086    21250257.026
      1837.207        1431.590
    134140.684 9     95304.00747  23809289.816    23809287.8524   23809292.9624
      -796.144        -620.372
    184349.460 9    138496.22848  22480267.638    22480266.4734   22480270.0824
     -1077.618        -839.702
    -42454.700 9    -31879.35248  20787411.757    20787409.9374   20787414.2504
       236.682         184.428
   -497784.235 9   -363198.27446  24722918.016    24722914.6004   24722920.2384
      3475.124        2707.889
    471034.777 9    349591.11948  21577546.553    21577545.2824   21577549.8934
     -2566.345       -1999.749
   -138644.910 9   -104410.20848  20980707.202    20980705.3274   20980709.8514
       768.168         598.572
   -448498.666 9   -337681.76447  23227725.184    23227723.6864   23227728.9744
      2541.607        1980.473
 96 10 21 15 29  0.0000000  0  8 28 22 26 17  3  6 23 21             0.000754957
   -379596.013 9   -289669.139 9  21239804.498    21239803.016    21239806.988
      1823.429        1420.854
    158223.809 9    114070.06746  23813872.589    23813870.6194   23813875.7784
      -809.832        -631.038
    216942.935 9    163893.74548  22486469.922    22486468.8494   22486472.4364
     -1095.680        -853.777
    -49458.521 9    -37336.87848  20786078.954    20786077.1514   20786081.5104
       229.979         179.204
   -601997.027 9   -444403.04146  24703086.065    24703083.7134   24703089.2404
      3472.160        2705.579
    548206.144 9    409724.62748  21592231.825    21592230.5424   21592235.1954
     -2578.612       -2009.308
   -161516.751 9   -122232.41448  20976354.748    20976352.9644   20976357.5124
       756.277         589.307
   -524654.815 9   -397024.21447  23213233.194    23213231.6754   23213236.9274
      2535.170        1975.457
 96 10 21 15 29 30.0000000  0  8 28 22 26 17  3  6 23 21             0.000755486
   -434071.208 9   -332117.340 9  21229438.178    21229436.733    21229440.725
      1807.844        1408.710
    182753.562 9    133184.13946  23818540.364    23818538.4224   23818543.6364
      -825.877        -643.541
    250103.507 9    189733.14848  22492780.213    22492779.1154   22492782.6874
     -1115.385        -869.131
    -56239.880 9    -42621.05448  20784788.482    20784786.7164   20784791.0914
       221.800         172.831
   -706100.309 9   -525522.53446  24683275.982    24683274.0314   24683278.9064
      3467.687        2702.094
    625764.654 9    470159.80448  21606990.723    21606989.4664   21606994.1304
     -2592.315       -2019.986
   -183998.489 9   -139750.65248  20972076.583    20972074.8344   20972079.4024
       742.299         578.415
   -600594.419 9   -456197.92247  23198782.436    23198780.9074   23198786.1444
      2527.064        1969.141
 96 10 21 15 30  0.0000000  0  8 28 22 26 17  3  6 23 21             0.000756032
   -488080.358 9   -374202.392 9  21219160.556    21219159.138    21219163.135
      1792.684        1396.897
    207763.692 9    152672.53646  23823299.579    23823297.6814   23823302.9384
      -841.609        -655.799
    283855.392 9    216033.31048  22499202.938    22499201.8834   22499205.4614
     -1134.615        -884.115
    -62782.954 9    -47719.56148  20783543.394    20783541.6304   20783545.9914
       214.413         167.075
   -810077.750 9   -606543.88346  24663489.373    24663487.6404   24663492.6494
      3464.133        2699.324
    703737.144 9    530917.55748  21621828.406    21621827.1384   21621831.8474
     -2605.970       -2030.626
   -206075.562 9   -156953.56348  20967875.444    20967873.7134   20967878.2894
       729.365         568.336
   -676295.260 9   -515185.58947  23184377.075    23184375.5354   23184380.7664
      2519.525        1963.266
 96 10 21 15 30 30.0000000  0  8 28 22 26 17  3  6 23 21             0.000756602
   -541598.496 9   -415904.839 9  21208976.392    21208974.974    21208978.961
      1775.745        1383.697
    233279.473 9    172554.95147  23828155.141    23828153.2414   23828158.4594
      -858.860        -669.242
    318209.026 9    242802.37348  22505740.209    22505739.1994   22505742.7514
     -1155.101        -900.079
    -69075.386 9    -52622.75948  20782345.975    20782344.2134   20782348.6034
       205.636         160.236
   -913911.431 9   -687453.26046  24643730.542    24643728.9614   24643733.8164
      3458.570        2694.990
    782151.672 9    592019.75848  21636750.169    21636748.9314   21636753.6704
     -2621.150       -2042.455
   -227721.894 9   -173820.83548  20963756.292    20963754.5684   20963759.1374
       714.295         556.594
   -751730.831 9   -573966.54647  23170022.176    23170020.6544   23170025.8604
      2510.135        1955.949
 96 10 21 15 31  0.0000000  0  8 28 22 26 17  3  6 23 21             0.000757199
   -594615.350 9   -457216.674 9  21198887.640    21198886.237    21198890.212
      1758.989        1370.641
    259299.984 9    192830.65546  23833106.742    23833104.7844   23833109.9884
      -875.417        -682.143
    353165.693 9    270041.32648  22512392.242    22512391.2064   22512394.7954
     -1174.906        -915.511
    -75117.493 9    -57330.89948  20781196.219    20781194.4724   20781198.8454
       197.389         153.810
  -1017589.449 9   -768241.35546  24624000.984    24623999.5334   24624004.3774
      3453.593        2691.111
    861020.057 9    653475.61548  21651758.337    21651757.1234   21651761.8724
     -2636.539       -2054.446
   -248932.462 9   -190348.54948  20959720.046    20959718.3504   20959722.9254
       700.085         545.521
   -826896.159 9   -632536.92648  23155718.773    23155717.2134   23155722.3694
      2501.140        1948.940
 96 10 21 15 31 30.0000000  0  8 28 22 26 17  3  6 23 21             0.000757815
   -647135.759 9   -498141.671 9  21188893.335    21188891.925    21188895.922
      1742.506        1357.797
    285798.608 9    213478.92546  23838149.271    23838147.3744   23838152.4884
      -890.968        -694.261
    388697.774 9    297728.65448  22519153.804    22519152.7474   22519156.3484
     -1193.915        -930.323
    -80911.982 9    -61846.09448  20780093.596    20780091.8224   20780096.2224
       189.023         147.291
  -1121117.049 9   -848912.18146  24604300.381    24604299.1114   24604304.0174
      3448.492        2687.137
    940353.540 9    715293.87748  21666855.032    21666853.8404   21666858.5844
     -2652.261       -2066.697
   -269725.811 9   -206551.16348  20955763.231    20955761.5404   20955766.1034
       686.355         534.822
   -901799.505 9   -690903.15947  23141465.170    23141463.6054   23141468.7644
      2492.452        1942.170
 96 10 21 15 32  0.0000000  0  8 28 22 26 17  3  6 23 21             0.000758450
   -699162.248 9   -538681.794 9  21178993.021    21178991.630    21178995.623
      1726.105        1345.017
    312750.602 9    234480.45746  23843278.073    23843276.1554   23843281.2704
      -905.682        -705.726
    424808.583 9    325866.92748  22526025.461    22526024.3664   22526028.0094
     -1213.244        -945.385
    -86458.649 9    -66168.17848  20779038.099    20779036.3474   20779040.7394
       180.804         140.886
  -1224501.299 9   -929471.32845  24584626.876    24584625.3614   24584630.4424
      3443.903        2683.561
   1020160.601 9    777481.16948  21682041.877    21682040.6654   21682045.4164
     -2667.995       -2078.957
   -290114.823 9   -222438.70848  20951883.394    20951881.6734   20951886.2104
       672.904         524.341
   -976441.412 9   -749065.67948  23127261.290    23127259.7404   23127264.9054
      2483.805        1935.432
 96 10 21 15 32 30.0000000  0  8 28 22 26 17  3  6 23 21             0.000759095
   -750704.853 9   -578844.865 9  21169184.822    21169183.420    21169187.415
      1709.702        1332.235
    340134.923 9    255818.86246  23848489.143    23848487.2454   23848492.3254
      -920.374        -717.175
    461491.278 9    354450.84548  22533005.936    22533004.8714   22533008.5104
     -1232.693        -960.540
    -91767.702 9    -70305.10648  20778027.832    20778026.0824   20778030.5004
       172.696         134.568
  -1327746.379 9  -1009922.08046  24564980.082    24564978.7254   24564983.6944
      3438.780        2679.569
   1100424.195 9    840024.19448  21697315.600    21697314.3534   21697319.1094
     -2683.146       -2090.763
   -310104.017 9   -238014.70948  20948079.599    20948077.8874   20948082.4064
       659.450         513.857
  -1050832.735 9   -807032.93648  23113105.093    23113103.5614   23113108.7184
      2475.246        1928.763
 96 10 21 15 33  0.0000000  0  8 28 22 26 17  3  6 23 21             0.000759754
   -801768.292 9   -618634.565 9  21159467.790    21159466.391    21159470.382
      1694.664        1320.517
    367948.073 9    277491.43447  23853781.900    23853779.9914   23853785.0474
      -933.777        -727.618
    498746.996 9    383481.25848  22540095.480    22540094.4184   22540098.0454
     -1250.812        -974.659
    -96841.457 9    -74258.69048  20777062.312    20777060.6134   20777065.0434
       165.645         129.074
  -1430853.401 9  -1090265.11946  24545359.428    24545358.0904   24545363.3264
      3435.039        2676.654
   1181119.175 9    902903.36648  21712671.420    21712670.1654   21712674.9084
     -2696.199       -2100.934
   -329712.709 9   -253294.21148  20944348.207    20944346.4864   20944350.9884
       647.951         504.897
  -1124974.154 9   -864805.46148  23098996.446    23098994.9104   23099000.0874
      2467.658        1922.850
 96 10 21 15 33 30.0000000  0  8 28 22 26 17  3  6 23 21             0.000760419
   -852367.738 9   -658062.705 9  21149839.029    21149837.645    21149841.657
      1679.185        1308.456
    396186.765 9    299495.58347  23859155.634    23859153.6894   23859158.7534
      -948.284        -738.923
    536566.034 9    412950.62448  22547292.249    22547291.1884   22547294.8434
     -1269.950        -989.571
   -101685.301 9    -78033.12048  20776140.557    20776138.8654   20776143.2914
       157.885         123.027
  -1533827.600 9  -1170504.85046  24525764.081    24525762.8394   24525767.5554
      3430.492        2673.111
   1262206.001 9    966087.87448  21728101.768    21728100.5124   21728105.2674
     -2708.905       -2110.835
   -348956.579 9   -268289.43248  20940686.200    20940684.4994   20940689.0024
       635.539         495.225
  -1198872.839 9   -922388.84148  23084934.014    23084932.4994   23084937.6334
      2459.457        1916.460
 96 10 21 15 34  0.0000000  0  8 28 22 26 17  3  6 23 21             0.000761091
   -902506.978 9   -697132.248 9  21140297.860    21140296.484    21140300.483
      1663.729        1296.412
    424859.653 9    321838.07946  23864611.996    23864609.9934   23864615.1044
      -963.143        -750.501
    574958.825 9    442867.06148  22554598.147    22554597.1164   22554600.8034
     -1289.061       -1004.463
   -106303.818 9    -81631.97048  20775261.725    20775260.0024   20775264.4264
       150.231         117.063
  -1636670.681 9  -1250642.25146  24506193.663    24506192.4914   24506197.5244
      3425.992        2669.604
   1343657.452 9   1029556.50048  21743601.482    21743600.2354   21743604.9984
     -2720.880       -2120.166
   -367832.649 9   -282998.05948  20937094.193    20937092.5094   20937097.0184
       623.119         485.547
  -1272525.128 9   -979780.22548  23070918.491    23070916.9494   23070922.1024
      2451.120        1909.964
 96 10 21 15 34 30.0000000  0  8 28 22 26 17  3  6 23 21             0.000761762
   -952192.454 9   -735848.212 9  21130843.057    21130841.671    21130845.664
      1648.571        1284.601
    453976.562 9    344526.55247  23870152.766    23870150.8134   23870155.9594
      -977.972        -762.056
    613905.225 9    473214.89048  22562009.469    22562008.4094   22562012.0574
     -1307.410       -1018.761
   -110698.205 9    -85056.17548  20774425.532    20774423.8104   20774428.2164
       142.746         111.231
  -1739378.728 9  -1330674.53646  24486648.994    24486647.6224   24486652.5504
      3421.308        2665.954
   1425450.637 9   1093291.41548  21759166.274    21759165.0084   21759169.7794
     -2732.059       -2128.877
   -386347.576 9   -297425.27948  20933570.912    20933569.2464   20933573.7374
       611.250         476.299
  -1345944.560 9  -1036990.16548  23056947.255    23056945.7134   23056950.8304
      2443.491        1904.019
 96 10 21 15 35  0.0000000  0  8 28 22 26 17  3  6 23 21             0.000762418
  -1001431.118 9   -774216.006 9  21121473.240    21121471.872    21121475.856
      1633.491        1272.850
    483520.060 9    367547.44647  23875774.666    23875772.7334   23875777.9304
      -992.112        -773.074
    653388.657 9    503981.19248  22569522.927    22569521.9334   22569525.5164
     -1325.286       -1032.690
   -114871.890 9    -88308.40248  20773631.285    20773629.5804   20773633.9954
       135.065         105.245
  -1841968.568 9  -1410614.66846  24467126.779    24467125.4954   24467130.4174
      3417.472        2662.965
   1507572.295 9   1157282.28548  21774793.518    21774792.3044   21774797.0444
     -2743.419       -2137.729
   -404521.377 9   -311586.68348  20930112.564    20930110.9134   20930115.4144
       599.785         467.365
  -1419147.593 9  -1094031.47848  23043017.180    23043015.6444   23043020.7534
      2436.260        1898.384
 96 10 21 15 35 30.0000000  0  8 28 22 26 17  3  6 23 21             0.000763057
  -1050220.210 9   -812233.487 9  21112189.004    21112187.626    21112191.605
      1618.591        1261.240
    513485.814 9    390897.37347  23881476.936    23881475.0034   23881480.1944
     -1005.968        -783.871
    693404.085 9    535162.02248  22577137.689    22577136.6364   22577140.2204
     -1342.866       -1046.389
   -118821.794 9    -91386.25848  20772879.680    20772877.9504   20772882.3704
       127.779          99.568
  -1944450.769 9  -1490470.91146  24447625.018    24447623.6344   24447628.6404
      3414.342        2660.526
   1590045.806 9   1221547.32148  21790487.773    21790486.5274   21790491.2594
     -2755.388       -2147.055
   -422349.553 9   -325478.77348  20926719.988    20926718.3314   20926722.8464
       588.255         458.381
  -1492147.092 9  -1150914.19848  23029125.818    23029124.3104   23029129.4374
      2429.814        1893.361
 96 10 21 15 36  0.0000000  0  8 28 22 26 17  3  6 23 21             0.000763667
  -1098564.026 9   -849903.998 9  21102989.514    21102988.117    21102992.109
      1604.082        1249.934
    543856.883 9    414563.11247  23887256.331    23887254.3834   23887259.6244
     -1019.065        -794.077
    733935.690 9    566745.07148  22584850.557    22584849.5164   22584853.1554
     -1359.327       -1059.216
   -122557.557 9    -94297.25348  20772168.812    20772167.0844   20772171.4884
       121.014          94.297
  -2046854.934 9  -1570266.39046  24428138.227    24428136.9504   24428141.8544
      3412.346        2658.971
   1672888.240 9   1286099.82748  21806252.216    21806250.9404   21806255.6774
     -2767.674       -2156.629
   -439838.876 9   -339106.81948  20923391.854    20923390.1944   20923394.7284
       577.443         449.956
  -1564959.396 9  -1207651.04648  23015270.091    23015268.5754   23015273.7014
      2424.281        1889.050
 96 10 21 15 36 30.0000000  0  8 28 22 26 17  3  6 23 21             0.000764235
  -1146458.712 9   -887224.537 9  21093875.484    21093874.077    21093878.075
      1588.838        1238.056
    574624.125 9    438537.57347  23893111.225    23893109.2854   23893114.4674
     -1032.003        -804.158
    774968.269 9    598718.49348  22592658.756    22592657.7484   22592661.4024
     -1376.323       -1072.459
   -126074.481 9    -97037.72048  20771499.590    20771497.8454   20771502.2314
       113.467          88.416
  -2149189.088 9  -1650007.28146  24408664.521    24408663.3784   24408668.1134
      3409.791        2656.980
   1756114.738 9   1350951.60648  21822089.708    21822088.4374   21822093.1764
     -2780.759       -2166.825
   -456989.104 9   -352470.63248  20920128.272    20920126.6184   20920131.1414
       565.792         440.877
  -1637610.408 9  -1264262.22048  23001445.099    23001443.5444   23001448.6644
      2418.908        1884.863
 96 10 21 15 37  0.0000000  0  8 28 22 26 17  3  6 23 21             0.000764755
  -1193906.464 9   -924196.811 9  21084846.475    21084845.073    21084849.071
      1574.095        1226.568
    605760.502 9    462799.66547  23899036.284    23899034.3534   23899039.6944
     -1044.135        -813.612
    816502.899 9    631083.13248  22600562.554    22600561.5514   22600565.2004
     -1392.970       -1085.431
   -129379.268 9    -99612.88348  20770870.709    20770868.9974   20770873.3824
       106.613          83.075
  -2251462.918 9  -1729701.16346  24389202.586    24389201.3764   24389206.1944
      3407.877        2655.488
   1839729.102 9   1416105.62248  21838001.026    21837999.7474   21838004.5114
     -2793.773       -2176.966
   -473798.000 9   -365568.46948  20916929.694    20916928.0224   20916932.5584
       554.427         432.021
  -1710100.255 9  -1320747.80648  22987650.722    22987649.1984   22987654.3204
      2413.340        1880.525
 96 10 21 15 37 30.0000000  0  8 28 22 26 17  3  6 23 21             0.000765239
  -1240906.076 9   -960819.892 9  21075902.780    21075901.377    21075905.338
      1559.200        1214.961
    637272.652 9    487354.56847  23905032.798    23905030.8844   23905036.2964
     -1056.600        -823.325
    858546.061 9    663844.01548  22608563.170    22608562.1184   22608565.7654
     -1409.910       -1098.631
   -132476.859 9   -102026.60248  20770281.308    20770279.5744   20770283.9574
        99.950          77.883
  -2353660.112 9  -1809335.33346  24369755.075    24369753.8444   24369758.6894
      3405.072        2653.303
   1923736.273 9   1481565.71948  21853987.090    21853985.8034   21853990.5874
     -2806.427       -2186.826
   -490256.553 9   -378393.31448  20913797.746    20913796.0714   20913800.6174
       542.775         422.942
  -1782410.599 9  -1377093.52548  22973890.564    22973889.0274   22973894.1474
      2407.243        1875.774
 96 10 21 15 38  0.0000000  0  8 28 22 26 17  3  6 23 21             0.000765686
  -1287457.900 9   -997094.044 9  21067044.270    21067042.872    21067046.828
      1544.250        1203.312
    669154.042 9    512197.18946  23911099.587    23911097.6724   23911103.0884
     -1068.881        -832.894
    901092.336 9    696996.93848  22616659.450    22616658.3894   22616662.0714
     -1426.413       -1111.491
   -135381.457 9   -104289.93048  20769728.585    20769726.8344   20769731.2474
        93.809          73.098
  -2455761.882 9  -1888895.15046  24350325.770    24350324.4724   24350329.1704
      3401.593        2650.592
   2008108.390 9   1547310.18848  21870042.633    21870041.2934   21870046.1054
     -2818.189       -2195.991
   -506364.025 9   -390944.58348  20910732.577    20910730.9084   20910735.4604
       531.043         413.800
  -1854533.298 9  -1433293.02648  22960166.082    22960164.5604   22960169.6424
      2400.897        1870.829
 96 10 21 15 38 30.0000000  0  8 28 22 26 17  3  6 23 21             0.000766098
  -1333555.229 9  -1033014.046 9  21058272.251    21058270.851    21058274.791
      1529.241        1191.616
    701407.242 9    537329.52747  23917237.131    23917235.2164   23917240.6934
     -1081.046        -842.374
    944144.931 9    730544.39748  22624852.087    22624851.0334   22624854.7354
     -1443.428       -1124.749
   -138098.773 9   -106407.33048  20769211.513    20769209.7714   20769214.1684
        87.744          68.372
  -2557739.564 9  -1968358.27646  24330920.125    24330918.9464   24330923.5794
      3397.239        2647.199
   2092822.281 9   1613320.97748  21886163.192    21886161.8444   21886166.6774
     -2829.080       -2204.478
   -522114.203 9   -403217.44248  20907735.441    20907733.7604   20907738.2954
       519.308         404.656
  -1926455.121 9  -1489336.00148  22946479.820    22946478.2994   22946483.3854
      2393.935        1865.404
 96 10 21 15 39  0.0000000  0  8 28 22 26 17  3  6 23 21             0.000766488
  -1379201.089 9  -1068582.251 9  21049586.161    21049584.763    21049588.661
      1514.077        1179.800
    734030.765 9    562750.44447  23923445.261    23923443.3344   23923448.7124
     -1093.533        -852.104
    987705.176 9    764487.43748  22633141.363    22633140.3164   22633143.9844
     -1460.111       -1137.749
   -140641.131 9   -108388.39348  20768727.727    20768725.9694   20768730.3814
        81.991          63.889
  -2659580.706 9  -2047714.99646  24311540.339    24311539.1194   24311543.7714
      3392.434        2643.455
   2177859.580 9   1679583.77248  21902345.250    21902343.9394   21902348.7664
     -2839.706       -2212.758
   -537515.364 9   -415218.34048  20904804.738    20904803.0424   20904807.5674
       507.812         395.698
  -1998144.776 9  -1545198.06748  22932837.722    22932836.2194   22932841.3024
      2385.725        1859.006
 96 10 21 15 39 30.0000000  0  8 28 22 26 17  3  6 23 21             0.000766860
  -1424382.812 9  -1103788.790 9  21040988.425    21040987.020    21040990.875
      1498.325        1167.526
    767033.812 9    588467.08947  23929725.590    23929723.6924   23929728.9864
     -1106.234        -862.000
   1031763.730 9    798818.75848  22641525.424    22641524.3434   22641527.9954
     -1476.837       -1150.782
   -143006.972 9   -110231.91048  20768277.523    20768275.7634   20768280.1954
        76.003          59.223
  -2761259.395 9  -2126945.13146  24292191.634    24292190.4284   24292195.0344
      3386.727        2639.008
   2263215.942 9   1746095.19048  21918588.078    21918586.7474   21918591.5914
     -2850.490       -2221.161
   -552567.949 9   -426947.62248  20901940.327    20901938.6204   20901943.1554
       496.008         386.500
  -2069587.116 9  -1600867.41748  22919242.711    22919241.2064   22919246.2914
      2377.462        1852.568
 96 10 21 15 40  0.0000000  0  8 28 22 26 17  3  6 23 21             0.000767200
  -1469103.611 9  -1138636.167 9  21032478.323    21032476.935    21032480.814
      1482.846        1155.464
    800397.252 9    614464.55847  23936074.484    23936072.5634   23936077.8974
     -1118.240        -871.356
   1076307.207 9    833527.95048  22650001.692    22650000.6774   22650004.3424
     -1492.962       -1163.347
   -145203.891 9   -111943.80048  20767859.496    20767857.7144   20767862.1534
        70.088          54.614
  -2862791.553 9  -2206061.09446  24272870.575    24272869.4204   24272874.0304
      3381.905        2635.251
   2348885.510 9   1812850.66148  21934890.472    21934889.1794   21934894.0114
     -2861.161       -2229.476
   -567276.348 9   -438408.70948  20899141.407    20899139.7294   20899144.2594
       484.497         377.530
  -2140796.371 9  -1656355.13948  22905692.017    22905690.5124   22905695.6454
      2369.729        1846.542
 96 10 21 15 40 30.0000000  0  8 28 22 26 17  3  6 23 21             0.000767513
  -1513362.951 9  -1173123.968 9  21024056.047    21024054.664    21024058.560
      1467.488        1143.497
    834118.429 9    640740.76247  23942491.353    23942489.4894   23942494.9114
     -1130.057        -880.564
   1121341.028 9    868619.23048  22658571.399    22658570.3694   22658574.0244
     -1509.602       -1176.313
   -147211.600 9   -113508.25848  20767477.505    20767475.6744   20767480.1074
        63.467          49.455
  -2964179.887 9  -2285064.95846  24253577.119    24253575.8964   24253580.6464
      3377.075        2631.487
   2434882.052 9   1879860.91848  21951255.109    21951253.8244   21951258.6574
     -2872.385       -2238.222
   -581647.846 9   -449607.27448  20896406.618    20896404.9494   20896409.4814
       473.378         368.866
  -2211775.866 9  -1711663.83048  22892185.073    22892183.5754   22892188.7434
      2361.897        1840.439
 96 10 21 15 41  0.0000000  0  8 28 22 26 17  3  6 23 21             0.000767811
  -1557152.037 9  -1207245.340 9  21015723.269    21015721.896    21015725.795
      1452.174        1131.564
    868197.385 9    667295.76847  23948976.371    23948974.4864   23948979.9814
     -1141.452        -889.443
   1166877.276 9    904102.00648  22667236.663    22667235.6704   22667239.3514
     -1525.744       -1188.891
   -149013.796 9   -114912.57348  20767134.556    20767132.7474   20767137.1504
        57.024          44.434
  -3065420.430 9  -2363953.69446  24234311.757    24234310.4174   24234315.0254
      3372.690        2628.070
   2521231.809 9   1947146.40448  21967686.936    21967685.6564   21967690.5014
     -2883.871       -2247.172
   -595680.383 9   -460541.71648  20893736.289    20893734.6234   20893739.1714
       462.492         360.383
  -2282513.013 9  -1766783.67748  22878724.224    22878722.7104   22878727.9244
      2354.638        1834.783
 96 10 21 15 41 30.0000000  0  8 28 22 26 17  3  6 23 21             0.000768089
  -1600469.279 9  -1240999.039 9  21007480.301    21007478.908    21007482.816
      1436.152        1119.079
    902633.073 9    694128.75347  23955529.384    23955527.4654   23955532.8714
     -1153.857        -899.109
   1212918.940 9    939978.61348  22675998.098    22675997.1104   22676000.8204
     -1543.282       -1202.557
   -150601.938 9   -116150.09448  20766832.355    20766830.5624   20766834.9324
        49.338          38.445
  -3166517.575 9  -2442730.67046  24215073.531    24215072.1944   24215076.9934
      3367.871        2624.315
   2607947.176 9   2014716.78448  21984188.345    21984187.0484   21984191.9034
     -2896.589       -2257.082
   -609372.777 9   -471211.11248  20891130.720    20891129.0394   20891133.5924
       450.783         351.259
  -2353039.035 9  -1821739.01048  22865303.571    22865302.0584   22865307.2734
      2347.698        1829.375
 96 10 21 15 42  0.0000000  0  8 28 22 26 17  3  6 23 21             0.000768351
  -1643310.740 9  -1274382.001 9  20999327.831    20999326.457    20999330.367
      1420.413        1106.815
    937442.663 9    721253.09547  23962153.446    23962151.6044   23962156.9184
     -1166.463        -908.932
   1259484.248 9    976263.24848  22684859.150    22684858.1834   22684861.9344
     -1560.465       -1215.947
   -151957.440 9   -117206.33448  20766574.429    20766572.6604   20766577.0274
        41.502          32.339
  -3267485.359 9  -2521406.84946  24195860.009    24195858.5834   24195863.4174
      3363.646        2621.023
   2695031.633 9   2082574.76248  22000759.984    22000758.6904   22000763.5444
     -2908.530       -2266.387
   -622722.938 9   -481613.83548  20888590.291    20888588.5814   20888593.1354
       439.851         342.741
  -2423365.686 9  -1876538.98648  22851920.853    22851919.3334   22851924.5604
      2341.237        1824.341
 96 10 21 15 42 30.0000000  0  8 28 22 26 17  3  6 23 21             0.000768603
  -1685679.158 9  -1307396.359 9  20991265.412    20991264.032    20991267.940
      1404.357        1094.304
    972636.641 9    748676.94947  23968850.697    23968848.7954   23968854.1374
     -1179.557        -919.135
   1306557.831 9   1012943.95348  22693817.008    22693815.9924   22693819.7384
     -1577.441       -1229.175
   -153080.111 9   -118081.14748  20766360.867    20766359.0824   20766363.4024
        33.827          26.359
  -3368316.331 9  -2599976.44246  24176672.572    24176671.2504   24176675.9664
      3358.735        2617.196
   2782475.767 9   2150713.01448  22017400.041    22017398.7784   22017403.6494
     -2920.711       -2275.879
   -635750.473 9   -491765.15948  20886111.213    20886109.5214   20886114.0564
       428.898         334.206
  -2493500.513 9  -1931189.48848  22838574.678    22838573.1524   22838578.3744
      2334.580        1819.153
 96 10 21 15 43  0.0000000  0  8 28 22 26 17  3  6 23 21             0.000768837
  -1727571.305 9  -1340039.596 9  20983293.628    20983292.231    20983296.133
      1388.477        1081.930
   1008216.113 9    776401.20346  23975621.313    23975619.3714   23975624.5604
     -1192.494        -929.216
   1354126.614 9   1050010.52248  22702869.106    22702868.0634   22702871.7804
     -1593.658       -1241.811
   -153994.734 9   -118793.84848  20766186.835    20766185.0524   20766189.3804
        27.064          21.089
  -3469009.135 9  -2678438.36046  24157511.398    24157510.0554   24157514.7874
      3354.270        2613.717
   2870268.545 9   2219122.93648  22034106.434    22034105.2044   22034110.0634
     -2932.039       -2284.706
   -648453.798 9   -501663.85648  20883693.840    20883692.1474   20883696.6874
       418.018         325.728
  -2563454.794 9  -1985699.31048  22825262.869    22825261.3544   22825266.5214
      2329.053        1814.846
 96 10 21 15 43 30.0000000  0  8 28 22 26 17  3  6 23 21             0.000769049
  -1768984.319 9  -1372309.481 9  20975412.998    20975411.593    20975415.524
      1372.725        1069.656
   1044194.549 9    804436.32647  23982467.748    23982465.8104   23982471.0634
     -1205.722        -939.524
   1402188.486 9   1087461.30948  22712014.995    22712013.9224   22712017.6684
     -1610.061       -1254.593
   -154696.505 9   -119340.69148  20766053.284    20766051.5074   20766055.8264
        20.147          15.699
  -3569569.736 9  -2756797.24846  24138375.228    24138373.9894   24138378.7364
      3350.232        2610.570
   2958396.891 9   2287794.33948  22050876.712    22050875.4874   22050880.3614
     -2942.736       -2293.041
   -660835.141 9   -511311.65748  20881337.763    20881336.0714   20881340.5854
       407.680         317.673
  -2633242.760 9  -2040079.53748  22811982.739    22811981.2074   22811986.3314
      2323.570        1810.574
 96 10 21 15 44  0.0000000  0  8 28 22 26 17  3  6 23 21             0.000769239
  -1809914.130 9  -1404202.846 9  20967624.326    20967622.912    20967626.861
      1356.326        1056.877
   1080579.270 9    832788.04047  23989391.499    23989389.6274   23989394.8374
     -1219.415        -950.194
   1450740.802 9   1125294.26548  22721254.153    22721253.0984   22721256.8744
     -1626.384       -1267.312
   -155184.072 9   -119720.62548  20765960.537    20765958.7354   20765963.0654
        12.827           9.995
  -3670001.857 9  -2835056.04846  24119263.601    24119262.4444   24119267.1214
      3345.504        2606.886
   3046846.061 9   2356715.73448  22067708.084    22067706.8464   22067711.7444
     -2953.579       -2301.490
   -672896.573 9   -520710.17748  20879042.541    20879040.8604   20879045.3974
       396.677         309.099
  -2702847.632 9  -2094317.09048  22798737.403    22798735.8494   22798740.9554
      2316.988        1805.445
 96 10 21 15 44 30.0000000  0  8 28 22 26 17  3  6 23 21             0.000769403
  -1850364.299 9  -1435722.461 9  20959926.925    20959925.531    20959929.468
      1340.460        1044.514
   1117351.255 9    861441.50447  23996389.059    23996387.1404   23996392.3514
     -1231.817        -959.857
   1499776.973 9   1163504.24848  22730585.472    22730584.4014   22730588.1954
     -1642.722       -1280.043
   -155469.486 9   -119943.03348  20765906.202    20765904.3984   20765908.7374
         6.327           4.930
  -3770294.961 9  -2913206.48846  24100178.492    24100177.3364   24100182.0764
      3340.863        2603.270
   3135610.130 9   2425882.50648  22084599.381    22084598.1114   22084603.0654
     -2963.942       -2309.565
   -684630.968 9   -529853.86148  20876809.606    20876807.9134   20876812.4724
       385.575         300.448
  -2772263.036 9  -2148407.01248  22785528.117    22785526.5494   22785531.6464
      2310.679        1800.529
 96 10 21 15 45  0.0000000  0  8 28 22 26 17  3  6 23 21             0.000769541
  -1890331.631 9  -1466865.843 9  20952321.414    20952320.003    20952323.948
      1324.350        1031.961
   1154499.590 9    890388.24747  24003458.213    24003456.3454   24003461.5464
     -1244.435        -969.690
   1549323.262 9   1202111.72548  22740013.917    22740012.8314   22740016.5424
     -1659.912       -1293.438
   -155544.353 9   -120001.37948  20765891.863    20765890.1234   20765894.4754
        -1.111          -0.866
  -3870443.894 9  -2991244.62446  24081120.953    24081119.5724   24081124.4064
      3336.094        2599.554
   3224686.636 9   2495292.73748  22101550.115    22101548.8334   22101553.7904
     -2974.274       -2317.616
   -696017.931 9   -538726.82148  20874642.748    20874641.0344   20874645.6464
       373.962         291.399
  -2841479.596 9  -2202341.99048  22772356.635    22772355.0894   22772360.1574
      2303.867        1795.221
 96 10 21 15 45 30.0000000  0  8 28 22 26 17  3  6 23 21             0.000769658
  -1929815.650 9  -1497632.613 9  20944807.894    20944806.482    20944810.397
      1307.894        1019.138
   1192024.056 9    919628.07647  24010598.965    24010597.0764   24010602.2484
     -1257.052        -979.521
   1599386.604 9   1241122.10748  22749540.715    22749539.6404   22749543.3104
     -1677.545       -1307.178
   -155389.040 9   -119880.35948  20765921.386    20765919.6814   20765924.0354
        -9.118          -7.105
  -3970446.836 9  -3069169.00746  24062091.067    24062089.7574   24062094.4684
      3330.647        2595.309
   3314076.831 9   2564947.40048  22118560.549    22118559.2704   22118564.2274
     -2985.121       -2326.068
   -707056.958 9   -547328.66048  20872542.076    20872540.3634   20872544.9904
       361.896         281.997
  -2910476.891 9  -2256106.10948  22759226.873    22759225.3334   22759230.4064
      2295.866        1788.986
 96 10 21 15 46  0.0000000  0  8 28 22 26 17  3  6 23 21             0.000769753
  -1968811.153 9  -1528018.723 9  20937387.319    20937385.912    20937389.805
      1291.287        1006.198
   1229904.590 9    949145.34547  24017807.429    24017805.5244   24017810.6644
     -1268.747        -988.634
   1649961.231 9   1280530.89148  22759164.695    22759163.6584   22759167.3644
     -1694.503       -1320.392
   -155007.787 9   -119583.28548  20765994.051    20765992.2694   20765996.6174
       -16.795         -13.087
  -4070283.290 9  -3146963.61946  24043092.652    24043091.2994   24043096.1954
      3324.414        2590.452
   3403786.036 9   2634850.63848  22135631.673    22135630.3964   22135635.3564
     -2996.082       -2334.609
   -717737.265 9   -555650.98048  20870509.687    20870507.9764   20870512.6174
       349.693         272.488
  -2979234.734 9  -2309683.64648  22746142.695    22746141.1494   22746146.2024
      2287.566        1782.519
 96 10 21 15 46 30.0000000  0  8 28 22 26 17  3  6 23 21             0.000769825
  -2007321.540 9  -1558026.819 9  20930059.020    20930057.637    20930061.524
      1275.427         993.839
   1268112.896 9    978918.03746  24025078.188    24025076.3094   24025081.4844
     -1279.073        -996.680
   1701030.654 9   1320325.21348  22768882.871    22768881.8584   22768885.5904
     -1710.567       -1332.909
   -154410.867 9   -119118.15948  20766107.647    20766105.8724   20766110.2154
       -23.578         -18.372
  -4169937.627 9  -3224616.36246  24024129.370    24024127.8864   24024132.7304
      3318.631        2585.946
   3493814.498 9   2705002.65548  22152763.560    22152762.2804   22152767.2454
     -3006.369       -2342.625
   -728068.674 9   -563701.43248  20868543.726    20868542.0014   20868546.6124
       338.726         263.942
  -3047760.913 9  -2363080.66548  22733102.591    22733101.0184   22733106.0714
      2280.282        1776.843
 96 10 21 15 47  0.0000000  0  8 28 22 26 17  3  6 23 21             0.000769877
  -2045336.218 9  -1587648.650 9  20922825.074    20922823.697    20922827.562
      1258.775         980.864
   1306650.478 9   1008947.31447  24032411.559    24032409.6984   24032415.0174
     -1290.175       -1005.331
   1752590.338 9   1360501.56948  22778694.352    22778693.3914   22778697.1304
     -1726.535       -1345.352
   -153595.316 9   -118482.67148  20766262.811    20766261.0724   20766265.4054
       -30.875         -24.058
  -4269406.156 9  -3302124.30846  24005200.913    24005199.6264   24005204.3274
      3312.544        2581.203
   3584166.867 9   2775407.06148  22169957.075    22169955.8104   22169960.7654
     -3017.085       -2350.975
   -738066.295 9   -571491.78648  20866641.256    20866639.5184   20866644.1334
       327.831         255.453
  -3116049.373 9  -2416292.44548  22720107.704    22720106.1354   22720111.2024
      2272.236        1770.574
 96 10 21 15 47 30.0000000  0  8 28 22 26 17  3  6 23 21             0.000769904
  -2082852.517 9  -1616882.135 9  20915685.983    20915684.582    20915688.447
      1242.042         967.825
   1345507.891 9   1039225.79447  24039805.839    24039803.9874   24039809.3194
     -1300.635       -1013.482
   1804610.340 9   1401036.61948  22788593.515    22788592.5144   22788596.2124
     -1741.773       -1357.226
   -152566.823 9   -117681.25448  20766458.524    20766456.7784   20766461.1344
       -37.960         -29.579
  -4368691.485 9  -3379489.46846  23986307.582    23986306.1604   23986310.9864
      3306.068        2576.157
   3674838.161 9   2846059.98448  22187211.312    22187209.9994   22187214.9904
     -3027.920       -2359.418
   -747745.826 9   -579034.28048  20864799.295    20864797.5584   20864802.1834
       317.223         247.187
  -3184101.913 9  -2469320.38548  22707157.703    22707156.1324   22707161.2164
      2264.310        1764.397
 96 10 21 15 48  0.0000000  0  8 28 22 26 17  3  6 23 21             0.000769898
  -2119878.096 9  -1645733.241 9  20908640.223    20908638.840    20908642.730
      1225.781         955.154
   1384663.117 9   1069736.33647  24047256.951    24047255.0794   24047260.4734
     -1310.485       -1021.157
   1857069.364 9   1441913.74948  22798576.138    22798575.0984   22798578.8334
     -1756.135       -1368.417
   -151340.690 9   -116725.83248  20766691.862    20766690.1014   20766694.4754
       -44.398         -34.596
  -4467797.139 9  -3456714.66546  23967448.465    23967447.0394   23967451.6554
      3300.426        2571.761
   3765821.279 9   2916955.89648  22204524.868    22204523.5734   22204528.5364
     -3038.219       -2367.443
   -757124.495 9   -586342.33848  20863014.587    20863012.8664   20863017.4764
       307.422         239.550
  -3251927.474 9  -2522171.46748  22694250.919    22694249.3704   22694254.4414
      2256.876        1758.605
 96 10 21 15 48 30.0000000  0  8 28 22 26 17  3  6 23 21             0.000769861
  -2156410.174 9  -1674199.802 9  20901688.386    20901687.002    20901690.903
      1209.743         942.657
   1424128.604 9   1100488.65747  24054767.011    24054765.1394   24054770.5534
     -1320.613       -1029.049
   1909972.511 9   1483136.95648  22808643.296    22808642.2664   22808646.0084
     -1770.756       -1379.810
   -149915.324 9   -115615.16348  20766963.125    20766961.3704   20766965.7454
       -50.490         -39.343
  -4566723.785 9  -3533800.35546  23948623.374    23948621.8984   23948626.4714
      3294.914        2567.465
   3857119.440 9   2988097.28248  22221898.314    22221897.0344   22221902.0144
     -3048.173       -2375.200
   -766196.485 9   -593411.42448  20861288.268    20861286.5374   20861291.1304
       297.458         231.785
  -3319528.117 9  -2574847.28648  22681386.949    22681385.4134   22681390.4834
      2249.824        1753.110
 96 10 21 15 49  0.0000000  0  8 28 22 26 17  3  6 23 21             0.000769798
  -2192444.863 9  -1702278.783 9  20894831.223    20894829.827    20894833.743
      1192.346         929.101
   1463923.581 9   1131497.70447  24062339.721    24062337.8654   24062343.3524
     -1332.696       -1038.464
   1963334.513 9   1524717.72148  22818797.817    22818796.7614   22818800.4984
     -1786.934       -1392.416
   -148287.381 9   -114346.64148  20767272.935    20767271.1534   20767275.5314
       -58.224         -45.369
  -4665477.334 9  -3610751.15046  23929831.252    23929829.8234   23929834.4594
      3288.463        2562.439
   3948726.105 9   3059479.06948  22239330.498    22239329.2224   22239334.1994
     -3059.116       -2383.727
   -774948.444 9   -600231.13448  20859622.828    20859621.0994   20859625.6954
       285.682         222.609
  -3386894.183 9  -2627340.31748  22668567.664    22668566.1044   22668571.1354
      2241.138        1746.341
 96 10 21 15 49 30.0000000  0  8 28 22 26 17  3  6 23 21             0.000769710
  -2227986.126 9  -1729973.274 9  20888067.934    20888066.540    20888070.478
      1176.953         917.106
   1504059.263 9   1162772.23247  24069977.340    24069975.4314   24069980.9234
     -1343.190       -1046.641
   2017166.252 9   1566664.50848  22829041.716    22829040.6174   22829044.3464
     -1802.099       -1404.233
   -146450.396 9   -112915.23148  20767622.467    20767620.7124   20767625.0684
       -64.296         -50.101
  -4764060.659 9  -3687569.30246  23911071.340    23911069.9134   23911074.5024
      3283.796        2558.802
   4040637.749 9   3131098.50848  22256820.750    22256819.4344   22256824.4224
     -3068.441       -2390.993
   -783370.470 9   -606793.75748  20858020.227    20858018.4854   20858023.0674
       275.673         214.810
  -3454028.758 9  -2679652.96548  22655792.384    22655790.8404   22655795.8514
      2234.446        1741.127
 96 10 21 15 50  0.0000000  0  8 28 22 26 17  3  6 23 21             0.000769602
  -2263037.843 9  -1757286.304 9  20881397.809    20881396.416    20881400.355
      1159.599         903.584
   1544542.822 9   1194317.85747  24077681.073    24077679.2114   24077684.7504
     -1355.917       -1056.559
   2071486.043 9   1608991.59348  22839378.445    22839377.3304   22839381.0774
     -1819.381       -1417.699
   -144403.673 9   -111320.38448  20768011.943    20768010.1874   20768014.5494
       -72.384         -56.403
  -4862483.727 9  -3764262.57546  23892342.038    23892340.6414   23892345.2674
      3277.643        2554.008
   4132850.553 9   3202952.60848  22274368.293    22274366.9924   22274371.9754
     -3079.148       -2399.336
   -791465.826 9   -613101.82548  20856479.754    20856478.0294   20856482.5854
       263.736         205.508
  -3520945.397 9  -2731795.79248  22643058.608    22643057.0304   22643062.0224
      2226.627        1735.034
 96 10 21 15 50 30.0000000  0  8 28 22 26 17  3  6 23 21             0.000769479
  -2297582.948 9  -1784204.573 9  20874824.107    20874822.710    20874826.641
      1143.567         891.091
   1585398.600 9   1226153.50047  24085455.613    24085453.7644   24085459.3664
     -1367.566       -1065.636
   2126317.813 9   1651717.62048  22849812.492    22849811.4484   22849815.2134
     -1835.822       -1430.511
   -142126.487 9   -109545.96348  20768445.284    20768443.5194   20768447.8724
       -79.145         -61.671
  -4960735.282 9  -3840822.21046  23873645.333    23873643.9994   23873648.6184
      3272.714        2550.167
   4225362.336 9   3275039.67648  22291972.723    22291971.4064   22291976.4064
     -3088.065       -2406.284
   -799216.924 9   -619141.64648  20855004.799    20855003.0474   20855007.5944
       253.327         197.398
  -3587653.678 9  -2783776.26648  22630364.445    22630362.8614   22630367.8034
      2220.680        1730.400
 96 10 21 15 51  0.0000000  0  8 28 22 26 17  3  6 23 21             0.000769331
  -2331639.987 9  -1810742.529 9  20868343.298    20868341.867    20868345.795
      1127.123         878.278
   1626603.558 9   1258261.24047  24093296.754    24093294.8594   24093300.4894
     -1379.133       -1074.649
   2181642.046 9   1694827.40448  22860340.371    22860339.3364   22860343.0884
     -1852.109       -1443.202
   -139635.910 9   -107605.26248  20768919.210    20768917.4674   20768921.8064
       -86.629         -67.503
  -5058841.770 9  -3917268.81146  23854976.378    23854974.9824   23854979.5684
      3267.896        2546.412
   4318146.467 9   3347338.97147  22309628.955    22309627.6494   22309632.6704
     -3097.405       -2413.562
   -806661.404 9   -624942.53548  20853588.111    20853586.3884   20853590.9354
       243.122         189.446
  -3654174.467 9  -2835610.64348  22617705.926    22617704.3704   22617709.3044
      2214.314        1725.439
 96 10 21 15 51 30.0000000  0  8 28 22 26 17  3  6 23 21             0.000769156
  -2365198.569 9  -1836892.078 9  20861957.325    20861955.911    20861959.812
      1110.278         865.152
   1668143.624 9   1290630.11747  24101201.586    24101199.7224   24101205.3484
     -1389.910       -1083.047
   2237451.199 9   1738315.02348  22870960.533    22870959.4454   22870963.2284
     -1868.163       -1455.711
   -136919.238 9   -105488.37848  20769436.188    20769434.4584   20769438.7934
       -94.231         -73.427
  -5156793.918 9  -3993595.14046  23836336.569    23836335.2944   23836339.8074
      3262.344        2542.086
   4411220.033 9   3419863.79647  22327340.272    22327338.9914   22327344.0044
     -3107.326       -2421.293
   -813792.987 9   -630499.61348  20852231.009    20852229.2974   20852233.8414
       232.512         181.178
  -3720505.901 9  -2887297.46148  22605083.480    22605081.9034   22605086.8344
      2208.027        1720.541
 96 10 21 15 52  0.0000000  0  8 28 22 26 17  3  6 23 21             0.000768939
  -2398256.845 9  -1862651.782 9  20855666.547    20855665.139    20855669.027
      1093.992         852.461
   1709985.214 9   1323233.92747  24109163.739    24109161.9054   24109167.6114
     -1399.163       -1090.257
   2293720.862 9   1782161.49848  22881668.289    22881667.2624   22881671.0324
     -1882.640       -1466.992
   -133989.160 9   -103205.20748  20769993.776    20769992.0414   20769996.3874
      -100.638         -78.419
  -5254578.757 9  -4069791.12146  23817728.728    23817727.3714   23817731.9094
      3256.923        2537.862
   4504580.073 9   3492611.84847  22345106.061    22345104.7804   22345109.8454
     -3116.280       -2428.270
   -820610.162 9   -635811.69548  20850933.727    20850932.0084   20850936.5814
       222.307         173.226
  -3786658.820 9  -2938845.18048  22592494.958    22592493.3854   22592498.3264
      2202.429        1716.178
 96 10 21 15 52 30.0000000  0  9 28 22 26 17  3  6  1 23 21          0.000768674
  -2430814.794 9  -1888021.621 9  20849470.996    20849469.586    20849473.458
      1077.059         839.267
   1752114.734 9   1356062.11447  24117180.794    24117178.9164   24117184.5924
     -1408.911       -1097.853
   2350432.825 9   1826352.61748  22892460.220    22892459.2104   22892462.9784
     -1897.618       -1478.663
   -130864.595 9   -100770.48748  20770588.403    20770586.6304   20770590.9914
      -107.182         -83.518
  -5352187.434 9  -4145849.80846  23799154.434    23799153.1034   23799157.6194
      3250.766        2533.064
   4598226.353 9   3565582.95047  22362926.361    22362925.1044   22362930.1734
     -3126.410       -2436.164
  -2452697.07019  -1639347.27456  25383648.105    25383646.6795   25383654.1725
      3694.055        2878.484
   -827107.971 9   -640874.91948  20849697.267    20849695.5294   20849700.1064
       211.483         164.792
  -3852622.908 9  -2990245.76148  22579942.430    22579940.8464   22579945.8014
      2195.607        1710.863
 96 10 21 15 53  0.0000000  0  9 28 22 26 17  3  6  1 23 21          0.000768365
  -2462873.008 9  -1913002.056 9  20843370.522    20843369.101    20843372.974
      1059.494         825.580
   1794519.640 9   1389104.87947  24125250.257    24125248.3734   24125253.9564
     -1418.854       -1105.601
   2407574.793 9   1870878.80948  22903333.983    22903332.9824   22903336.7104
     -1912.577       -1490.320
   -127550.582 9    -98188.14748  20771219.013    20771217.2614   20771221.6124
      -114.529         -89.243
  -5449617.772 9  -4221769.53146  23780613.977    23780612.6524   23780617.2224
      3243.824        2527.655
   4692172.652 9   3638787.83147  22380803.782    22380802.5154   22380807.6084
     -3137.366       -2444.701
  -2563577.664 9  -1725747.66046  25362548.200    25362546.7664   25362554.3044
      3697.313        2881.023
   -833291.657 9   -645693.37048  20848520.573    20848518.8304   20848523.4014
       199.979         155.828
  -3918389.702 9  -3041492.60748  22567427.455    22567425.8754   22567430.8114
      2188.285        1705.157
 96 10 21 15 53 30.0000000  0  9 28 22 26 17  3  6  1 23 21          0.000768010
  -2494426.973 9  -1937589.570 9  20837365.992    20837364.590    20837368.467
      1044.194         813.658
   1837202.853 9   1422364.48847  24133372.598    24133370.6944   24133376.3184
     -1426.755       -1111.757
   2465141.609 9   1915736.04348  22914288.646    22914287.6204   22914291.2784
     -1925.179       -1500.139
   -124038.190 9    -95451.22948  20771887.387    20771885.6534   20771890.0144
      -119.600         -93.195
  -5546851.780 9  -4297536.28746  23762111.002    23762109.6994   23762114.2004
      3238.548        2523.544
   4786422.930 9   3712229.58247  22398739.071    22398737.7964   22398742.8504
     -3145.812       -2451.282
  -2674577.171 9  -1812240.65646  25341425.609    25341424.1994   25341431.7354
      3702.773        2885.278
   -839150.154 9   -650258.42748  20847405.719    20847403.9804   20847408.5464
       190.836         148.703
  -3983966.948 9  -3092591.75048  22554948.503    22554946.9264   22554951.8214
      2183.445        1701.386
 96 10 21 15 54  0.0000000  0  9 28 22 26 17  3  6  1 23 21          0.000767620
  -2525476.799 9  -1961784.245 9  20831457.406    20831456.013    20831459.898
      1026.261         799.684
   1880182.265 9   1455854.90946  24141551.317    24141549.3914   24141555.0984
     -1438.205       -1120.679
   2523132.624 9   1960923.80848  22925323.934    22925322.8784   22925326.6124
     -1940.415       -1512.012
   -120329.245 9    -92561.14648  20772593.176    20772591.4584   20772595.8134
      -127.294         -99.190
  -5643884.812 9  -4373146.41646  23743646.132    23743644.8174   23743649.4844
      3230.882        2517.570
   4880965.295 9   3785898.92647  22416729.923    22416728.6394   22416733.6704
     -3156.511       -2459.619
  -2785696.262 9  -1898826.82646  25320280.335    25320278.8774   25320286.4364
      3705.582        2887.466
   -844700.471 9   -654583.34848  20846349.539    20846347.7894   20846352.3574
       179.721         140.042
  -4049341.705 9  -3143533.11248  22542508.078    22542506.5224   22542511.3894
      2175.325        1695.058
 96 10 21 15 54 30.0000000  0  9 28 22 26 17  3  6  1 23 21          0.000767207
  -2556020.993 9  -1985584.921 9  20825645.057    20825643.639    20825647.526
      1009.626         786.721
   1923486.586 9   1489598.51947  24149791.849    24149789.9984   24149795.6864
     -1449.046       -1129.127
   2581552.235 9   2006445.59048  22936440.778    22936439.8594   22936443.5704
     -1954.621       -1523.081
   -116413.306 9    -89509.77448  20773338.419    20773336.6604   20773341.0124
      -134.297        -104.647
  -5740725.446 9  -4448606.60746  23725217.987    23725216.6604   23725221.3574
      3224.613        2512.685
   4975791.564 9   3859789.49847  22434774.801    22434773.4794   22434778.5414
     -3165.623       -2466.719
  -2896928.171 9  -1985500.90046  25299113.582    25299112.1404   25299119.6314
      3709.462        2890.490
   -849958.189 9   -658680.26948  20845349.033    20845347.2894   20845351.8524
       170.361         132.749
  -4114508.732 9  -3194312.60448  22530107.180    22530105.6304   22530110.4834
      2168.808        1689.980
 96 10 21 15 55  0.0000000  0  9 28 22 26 17  3  6  1 23 21          0.000766763
  -2586071.606 9  -2009000.987 9  20819926.615    20819925.195    20819929.104
       993.490         774.148
   1967103.035 9   1523585.32746  24158091.871    24158089.9544   24158095.5934
     -1458.928       -1136.827
   2640385.607 9   2052289.74248  22947636.457    22947635.4764   22947639.2704
     -1967.802       -1533.352
   -112288.867 9    -86295.93948  20774123.341    20774121.5444   20774125.8734
      -140.920        -109.808
  -5837375.565 9  -4523918.40146  23706826.129    23706824.8014   23706829.3684
      3218.484        2507.910
   5070876.459 9   3933881.59547  22452868.867    22452867.5724   22452872.6234
     -3173.541       -2472.889
  -3008269.109 8  -2072259.93346  25277925.971    25277924.5174   25277932.1274
      3713.096        2893.322
   -854943.158 9   -662564.65948  20844400.395    20844398.6684   20844403.2424
       161.681         125.985
  -4179483.489 9  -3244942.27848  22517742.910    22517741.3274   22517746.1844
      2162.519        1685.080
 96 10 21 15 55 30.0000000  0  9 28 22 26 17  3  6  1 23 21          0.000766285
  -2615627.123 9  -2032031.265 9  20814302.393    20814300.992    20814304.893
       977.352         761.573
   2011027.040 9   1557811.80946  24166450.436    24166448.4784   24166454.0404
     -1468.779       -1144.503
   2699626.716 9   2098451.64148  22958909.692    22958908.7094   22958912.4834
     -1981.167       -1543.766
   -107959.495 9    -82922.41748  20774947.254    20774945.4224   20774949.7584
      -147.125        -114.643
  -5933831.747 9  -4599079.04646  23688471.149    23688469.8714   23688474.4004
      3212.470        2503.223
   5166203.009 9   4008161.99447  22471008.958    22471007.6614   22471012.6714
     -3181.075       -2478.760
  -3119714.221 8  -2159100.13746  25256718.465    25256717.0444   25256724.7004
      3717.182        2896.505
   -859658.686 9   -666239.09348  20843503.013    20843501.3044   20843505.8564
       153.143         119.332
  -4244249.997 9  -3295409.68048  22505418.231    22505416.6614   22505421.5184
      2155.702        1679.768
 96 10 21 15 56  0.0000000  0  9 28 22 26 17  3  6  1 23 21          0.000765771
  -2644697.807 9  -2054683.751 9  20808770.440    20808769.014    20808772.937
       960.649         748.558
   2055246.398 9   1592268.43946  24174865.118    24174863.1494   24174868.7184
     -1479.167       -1152.598
   2759278.893 9   2144933.82848  22970261.190    22970260.1384   22970263.9164
     -1995.745       -1555.126
   -103449.466 9    -79408.11548  20775805.479    20775803.6734   20775808.0084
      -153.595        -119.684
  -6030111.835 9  -4674102.48846  23670149.585    23670148.2594   23670152.7174
      3206.070        2498.236
   5261753.814 9   4082617.13847  22489191.670    22489190.4034   22489195.4014
     -3189.091       -2485.006
  -3231287.603 8  -2246040.29246  25235486.701    25235485.1474   25235492.8864
      3720.980        2899.465
   -864118.015 9   -669713.89248  20842654.430    20842652.6974   20842657.2124
       144.025         112.227
  -4308815.935 9  -3345720.79448  22493131.739    22493130.1754   22493135.0144
      2148.926        1674.488
 96 10 21 15 56 30.0000000  0  9 28 22 26 17  3  6  1 23 21          0.000765238
  -2673254.239 9  -2076935.523 9  20803336.351    20803334.905    20803338.847
       943.533         735.221
   2099778.357 9   1626968.63446  24183339.233    24183337.2894   24183342.8444
     -1489.200       -1160.416
   2819387.228 9   2191771.48248  22981699.428    22981698.4094   22981702.1524
     -2010.990       -1567.005
    -98730.495 9    -75731.00548  20776703.462    20776701.6894   20776706.0184
      -160.599        -125.142
  -6126182.455 9  -4748962.69746  23651867.917    23651866.6574   23651871.2424
      3198.948        2492.687
   5357561.765 9   4157272.65247  22507423.348    22507422.0914   22507427.0694
     -3197.764       -2491.764
  -3342961.931 8  -2333059.07346  25214235.681    25214234.1524   25214241.8714
      3724.454        2902.172
   -868285.745 9   -672961.47648  20841861.343    20841859.6164   20841864.1204
       134.106         104.498
  -4373179.035 9  -3395873.85348  22480883.860    22480882.2784   22480887.1304
      2142.140        1669.200
 96 10 21 15 57  0.0000000  0  9 28 22 26 17  3  6  1 23 21          0.000764675
  -2701310.633 9  -2098797.656 9  20797997.398    20797995.970    20797999.907
       926.876         722.241
   2144587.483 9   1661884.80946  24191866.168    24191864.1964   24191869.7494
     -1498.234       -1167.455
   2879931.908 9   2238949.10348  22993220.650    22993219.6314   22993223.4404
     -2025.175       -1578.058
    -93820.992 9    -71905.43148  20777637.732    20777635.9554   20777640.3024
      -166.725        -129.916
  -6222048.203 9  -4823663.25946  23633625.231    23633623.9674   23633628.4944
      3192.180        2487.413
   5453621.895 9   4232124.66747  22525703.038    22525701.7624   22525706.7074
     -3206.227       -2498.359
  -3454757.385 8  -2420172.24246  25192961.583    25192959.9614   25192967.7254
      3728.646        2905.438
   -872166.897 9   -675985.75748  20841122.823    20841121.0784   20841125.5814
       124.618          97.105
  -4437343.429 9  -3445872.07648  22468673.766    22468672.2014   22468677.0574
      2135.487        1664.016
 96 10 21 15 57 30.0000000  0  9 28 22 26 17  3  6  1 23 21          0.000764086
  -2728860.324 9  -2120264.951 9  20792754.900    20792753.463    20792757.392
       909.224         708.486
   2189679.300 9   1697021.26946  24200446.729    24200444.8834   24200450.4504
     -1508.525       -1175.474
   2940915.816 9   2286469.02848  23004825.590    23004824.5954   23004828.3384
     -2040.976       -1590.371
    -88716.917 9    -67928.23648  20778609.033    20778607.2674   20778611.5794
      -174.066        -135.636
  -6317710.275 9  -4898205.11447  23615421.385    23615420.0564   23615424.5964
      3184.745        2481.619
   5549949.417 9   4307185.04147  22544033.588    22544032.3174   22544037.2224
     -3216.107       -2506.057
  -3566686.340 8  -2507389.40246  25171662.141    25171660.4574   25171668.2134
      3732.555        2908.484
   -875753.083 9   -678780.19148  20840440.423    20840438.6724   20840443.1504
       114.017          88.844
  -4501310.763 9  -3495716.74748  22456501.187    22456499.6144   22456504.4614
      2128.594        1658.645
 96 10 21 15 58  0.0000000  0  9 28 22 26 17  3  6  1 23 21          0.000763478
  -2755892.634 9  -2141329.096 9  20787610.819    20787609.380    20787613.322
       892.722         695.628
   2235063.629 9   1732385.63046  24209083.161    24209081.2354   24209086.8164
     -1517.292       -1182.305
   3002355.701 9   2334344.23448  23016517.272    23016516.2664   23016519.9364
     -2055.065       -1601.349
    -83403.868 9    -63788.20548  20779620.066    20779618.3074   20779622.6304
      -180.433        -140.597
  -6413161.179 9  -4972582.42147  23597257.732    23597256.3614   23597261.0124
      3178.387        2476.665
   5646559.936 9   4382465.93347  22562417.972    22562416.7184   22562421.6304
     -3224.706       -2512.758
  -3678729.339 8  -2594695.41345  25150340.883    25150339.2234   25150346.9934
      3736.724        2911.733
   -879035.998 9   -681338.31148  20839815.704    20839813.9614   20839818.4254
       104.742          81.617
  -4565090.860 9  -3545415.51848  22444364.251    22444362.6844   22444367.5204
      2123.107        1654.369
 96 10 21 15 58 30.0000000  0  9 28 22 26 17  3  6  1 23 21          0.000762834
  -2782415.705 9  -2161996.430 9  20782563.672    20782562.243    20782566.172
       875.555         682.251
   2280716.082 9   1767958.95546  24217770.673    24217768.7524   24217774.2694
     -1526.115       -1189.181
   3064213.416 9   2382545.05448  23028288.422    23028287.4504   23028291.0324
     -2068.614       -1611.907
    -77877.740 9    -59482.13948  20780671.638    20780669.8984   20780674.2144
      -187.854        -146.380
  -6508406.360 9  -5046799.44147  23579133.171    23579131.8324   23579136.3204
      3171.377        2471.203
   5743436.624 9   4457954.21947  22580853.033    22580851.7684   22580856.7024
     -3233.583       -2519.675
  -3790871.800 8  -2682079.00145  25129000.706    25128999.1534   25129006.8734
      3739.604        2913.977
   -882026.598 9   -683668.64748  20839246.591    20839244.8544   20839249.3144
        94.669          73.768
  -4628678.345 9  -3594964.20148  22432263.970    22432262.4344   22432267.2114
      2115.932        1648.778
 96 10 21 15 59  0.0000000  0  9 28 22 26 17  3  6  1 23 21          0.000762149
  -2808420.254 9  -2182259.721 9  20777615.197    20777613.747    20777617.683
       858.507         668.966
   2326638.121 9   1803742.31946  24226509.338    24226507.4264   24226512.8864
     -1534.995       -1196.100
   3126481.100 9   2431065.31147  23040137.655    23040136.6674   23040140.1974
     -2082.187       -1622.483
    -72127.088 9    -55001.12048  20781765.981    20781764.2244   20781768.5514
      -195.177        -152.086
  -6603444.046 9  -5120854.76746  23561048.082    23561046.6754   23561051.3624
      3165.018        2466.248
   5840577.476 9   4533648.35847  22599338.329    22599337.0774   22599342.0264
     -3241.827       -2526.099
  -3903096.780 8  -2769526.91445  25107644.833    25107643.2864   25107651.0214
      3742.549        2916.272
   -884714.139 9   -685762.84048  20838735.172    20838733.4324   20838737.9154
        85.024          66.252
  -4692042.969 9  -3644339.22848  22420206.083    22420204.5314   22420209.2914
      2108.986        1643.366
 96 10 21 15 59 30.0000000  0  9 28 22 26 17  3  6  1 23 21          0.000761425
  -2833904.658 9  -2202117.704 9  20772765.658    20772764.235    20772768.174
       840.533         654.961
   2372842.950 9   1839746.05946  24235301.866    24235299.9434   24235305.3604
     -1545.159       -1204.020
   3189175.640 9   2479918.14348  23052068.040    23052067.0024   23052070.6254
     -2097.438       -1634.367
    -66139.087 9    -50335.15448  20782905.484    20782903.7294   20782908.0324
      -203.827        -158.826
  -6698289.036 9  -5194759.93447  23542999.694    23542998.3244   23543002.8984
      3157.942        2460.734
   5937964.758 9   4609534.52047  22617870.557    22617869.2874   22617874.2264
     -3250.489       -2532.849
  -4015389.938 8  -2857027.97345  25086276.075    25086274.5774   25086282.2254
      3743.662        2917.139
   -887106.992 9   -687627.40448  20838279.813    20838278.0864   20838282.5944
        74.675          58.188
  -4755202.484 9  -3693554.43148  22408187.234    22408185.6884   22408190.4124
      2101.719        1637.703
 96 10 21 16  0  0.0000000  0  9 28 22 26 17  3  6  1 23 21          0.000760668
  -2858861.976 9  -2221564.968 9  20768016.436    20768015.010    20768018.974
       822.842         641.176
   2419334.452 9   1875973.17746  24244148.902    24244146.9764   24244152.3774
     -1554.761       -1211.502
   3252313.907 9   2529116.80848  23064082.783    23064081.9104   23064085.4754
     -2112.224       -1645.889
    -59907.163 9    -45479.11548  20784091.448    20784089.6854   20784093.9444
      -212.166        -165.324
  -6792927.067 9  -5268503.84347  23524990.695    23524989.3144   23524993.8794
      3150.687        2455.081
   6035585.572 9   4685602.64947  22636447.207    22636445.9174   22636450.9104
     -3257.946       -2538.659
  -4127723.390 8  -2944560.45745  25064899.651    25064898.0774   25064905.6724
      3744.945        2918.139
   -889204.356 9   -689261.72248  20837880.667    20837878.9524   20837883.4724
        64.754          50.458
  -4818150.451 9  -3742604.78948  22396208.648    22396207.0814   22396211.7804
      2094.347        1631.959
 96 10 21 16  0 30.0000000  0  9 28 22 26 17  3  6  1 23 21          0.000759884
  -2883284.803 9  -2240595.749 9  20763368.945    20763367.507    20763371.488
       805.444         627.619
   2466119.164 9   1912428.77146  24253051.704    24253049.8074   24253055.1484
     -1564.172       -1218.835
   3315901.208 9   2578665.32947  23076183.034    23076182.1504   23076185.7324
     -2126.871       -1657.302
    -53418.791 9    -40423.25348  20785326.156    20785324.4014   20785328.6504
      -220.170        -171.561
  -6887336.486 9  -5342069.60747  23507025.149    23507023.7904   23507028.4164
      3143.281        2449.310
   6133434.788 9   4761848.75547  22655067.354    22655066.0374   22655071.0664
     -3265.278       -2544.372
  -4240096.015 8  -3032123.45645  25043515.728    25043514.1764   25043521.7814
      3746.786        2919.573
   -891002.990 9   -690663.25848  20837538.396    20837536.6914   20837541.2124
        55.213          43.023
  -4880873.997 9  -3791480.27748  22384272.746    22384271.1774   22384275.8754
      2087.406        1626.550
 96 10 21 16  1  0.0000000  0  9 28 22 26 17  3  6  1 23 21          0.000759089
  -2907166.979 9  -2259205.240 9  20758824.335    20758822.909    20758826.875
       786.933         613.195
   2513206.504 9   1949120.16846  24262012.226    24262010.2364   24262015.6104
     -1574.753       -1227.080
   3379957.157 9   2628579.04547  23088372.430    23088371.5854   23088375.2044
     -2143.063       -1669.919
    -46678.060 9    -35170.74248  20786608.939    20786607.1554   20786611.3624
      -228.980        -178.426
  -6981500.982 9  -5415444.51447  23489106.291    23489104.8774   23489109.4674
      3134.536        2442.495
   6231520.740 9   4838279.32647  22673732.578    22673731.2014   22673736.2584
     -3273.521       -2550.796
  -4352512.469 8  -3119720.55245  25022123.464    25022122.0134   25022129.4824
      3747.964        2920.491
   -892501.308 9   -691830.78548  20837253.328    20837251.6064   20837256.1014
        45.001          35.066
  -4943384.463 9  -3840189.72848  22372377.434    22372375.8634   22372380.5324
      2080.212        1620.944
 96 10 21 16  1 30.0000000  0  9 28 22 26 17  3  6  1 23 21          0.000758277
  -2930519.053 9  -2277401.669 9  20754380.602    20754379.180    20754383.133
       769.246         599.412
   2560578.723 9   1986033.56346  24271026.895    24271024.9694   24271030.2704
     -1583.772       -1234.108
   3444463.533 9   2678843.72047  23100647.661    23100646.7454   23100650.3804
     -2157.920       -1681.496
    -39705.834 9    -29737.84848  20787935.693    20787933.9144   20787938.1374
      -236.314        -184.141
  -7075420.259 9  -5488628.35847  23471234.098    23471232.6734   23471237.2254
      3125.999        2435.843
   6329825.206 9   4914880.17547  22692439.329    22692437.9434   22692443.0184
     -3280.826       -2556.488
  -4464983.800 8  -3207360.43345  25000720.897    25000719.2344   25000726.7424
      3749.788        2921.913
   -893721.478 9   -692781.57148  20837021.183    20837019.4754   20837023.9034
        35.677          27.800
  -5005701.857 9  -3888748.73248  22360518.822    22360517.2504   22360521.9654
      2073.511        1615.723
 96 10 21 16  2  0.0000000  0  9 28 22 26 17  3  6  1 23 21          0.000757446
  -2953336.365 9  -2295181.401 9  20750038.628    20750037.208    20750041.147
       751.313         585.439
   2608213.837 9   2023151.78246  24280091.567    24280089.5864   24280094.9634
     -1592.439       -1240.861
   3509409.314 9   2729450.80347  23113006.429    23113005.4624   23113009.2084
     -2172.204       -1692.626
    -32517.157 9    -24136.29448  20789303.633    20789301.8774   20789306.1144
      -243.587        -189.808
  -7169077.277 9  -5561607.85547  23453411.774    23453410.3334   23453414.8774
      3117.324        2429.084
   6428352.121 9   4991654.35647  22711188.405    22711186.9984   22711192.1484
     -3288.268       -2562.287
  -4577523.624 8  -3295053.66745  24979305.262    24979303.7234   24979310.9894
      3752.346        2923.906
   -894658.459 9   -693511.69148  20836842.923    20836841.2034   20836845.6194
        26.122          20.355
  -5067795.501 9  -3937133.39048  22348702.799    22348701.2344   22348705.9464
      2065.435        1609.430
 96 10 21 16  2 30.0000000  0  9 28 22 26 17  3  6  1 23 21          0.000756592
  -2975609.880 9  -2312537.399 9  20745800.137    20745798.714    20745802.646
       733.375         571.461
   2656111.238 9   2060474.40646  24289206.231    24289204.2224   24289209.5804
     -1600.975       -1247.513
   3574774.041 9   2780384.33947  23125444.940    23125443.9884   23125447.7354
     -2185.626       -1703.085
    -25107.144 9    -18362.27048  20790713.696    20790711.9344   20790716.1904
      -250.604        -195.276
  -7262475.630 9  -5634385.77547  23435638.675    23435637.1774   23435641.7424
      3109.165        2422.726
   6527117.985 9   5068614.72547  22729982.939    22729981.5344   22729986.6944
     -3296.381       -2568.609
  -4690140.021 8  -3382806.52545  24957875.086    24957873.4844   24957880.6784
      3755.159        2926.098
   -895302.245 9   -694013.35048  20836720.418    20836718.6974   20836723.1224
        16.451          12.819
  -5129638.146 9  -3985322.46448  22336934.551    22336932.9674   22336937.6624
      2057.200        1603.013
 96 10 21 16  3  0.0000000  0  9 28 22 26 17  3  6  1 23 21          0.000755709
  -2997342.186 9  -2329471.675 9  20741664.623    20741663.200    20741667.132
       715.508         557.539
   2704270.183 9   2098000.82546  24298370.591    24298368.6334   24298374.0094
     -1609.620       -1254.249
   3640548.549 9   2831637.20647  23137961.383    23137960.5124   23137964.2544
     -2199.110       -1713.592
    -17482.615 9    -12421.08748  20792164.659    20792162.8534   20792167.1084
      -257.713        -200.815
  -7355639.826 9  -5706981.24747  23417910.025    23417908.5414   23417913.1074
      3101.814        2416.998
   6626131.389 9   5145767.98847  22748824.576    22748823.1924   22748828.3794
     -3304.476       -2574.916
  -4802831.111 8  -3470617.58345  24936430.556    24936428.9104   24936436.1834
      3757.641        2928.032
   -895652.324 9   -694286.14448  20836653.805    20836652.0904   20836656.5224
         6.931           5.401
  -5191228.206 9  -4033314.71848  22325214.384    22325212.7884   22325217.4544
      2048.794        1596.463
 96 10 21 16  3 30.0000000  0  9 28 22 26 17  3  6  1 23 21          0.000754795
  -3018533.154 9  -2345984.128 9  20737632.125    20737630.698    20737634.637
       697.174         543.252
   2752692.819 9   2135732.71746  24307585.188    24307583.1984   24307588.6184
     -1618.664       -1261.297
   3706722.368 9   2883201.17447  23150553.881    23150552.8984   23150556.6904
     -2212.617       -1724.117
     -9636.161 9     -6306.97148  20793657.732    20793655.9604   20793660.2614
      -265.513        -206.893
  -7448576.484 9  -5779399.39747  23400224.676    23400223.2864   23400227.8404
      3094.007        2410.915
   6725394.716 9   5223115.99647  22767713.747    22767712.4184   22767717.6164
     -3313.117       -2581.650
  -4915591.719 8  -3558482.79445  24914972.758    24914971.1244   24914978.3854
      3759.698        2929.635
   -895706.783 9   -694328.58348  20836643.485    20836641.7614   20836646.1724
        -3.387          -2.639
  -5252559.286 9  -4081105.16348  22313543.502    22313541.8984   22313546.5424
      2040.006        1589.615
 96 10 21 16  4  0.0000000  0  9 28 22 26 17  3  6  1 23 21          0.000753852
  -3039175.234 9  -2362068.879 9  20733704.074    20733702.647    20733706.601
       678.938         529.043
   2801392.788 9   2173680.70546  24316852.431    24316850.4484   24316856.0154
     -1628.130       -1268.673
   3773298.471 9   2935078.65447  23163222.868    23163221.9564   23163225.6714
     -2225.666       -1734.285
     -1547.373 9        -4.03248  20795196.985    20795195.1894   20795199.5274
      -273.853        -213.392
  -7541284.836 9  -5851639.66647  23382582.911    23382581.4894   23382586.1364
      3086.523        2405.083
   6824924.812 9   5300671.87047  22786653.765    22786652.4264   22786657.6374
     -3322.243       -2588.761
  -5028412.561 8  -3646394.93645  24893503.459    24893501.8924   24893509.0684
      3761.396        2930.958
   -895453.691 9   -694131.37448  20836691.659    20836689.9134   20836694.3404
       -13.537         -10.548
  -5313635.714 9  -4128697.18648  22301921.057    22301919.4634   22301924.0964
      2031.978        1583.359
 96 10 21 16  4 30.0000000  0  9 28 22 26 17  3  6  1 23 21          0.000752879
  -3059276.658 9  -2377732.336 9  20729878.928    20729877.474    20729881.452
       660.988         515.056
   2850376.162 9   2211849.53946  24326173.609    24326171.6934   24326177.2324
     -1637.525       -1275.994
   3840259.157 9   2987255.79647  23175965.121    23175964.2294   23175967.8984
     -2238.701       -1744.442
      6785.593 9      6489.18248  20796782.687    20796780.8864   20796785.2704
      -281.822        -219.602
  -7633769.984 9  -5923706.00547  23364983.535    23364982.1644   23364986.7234
      3078.882        2399.129
   6924733.327 9   5378444.69747  22805646.736    22805645.4004   22805650.6314
     -3331.758       -2596.175
  -5141277.123 8  -3734341.13345  24872025.904    24872024.1374   24872031.4464
      3762.698        2931.972
   -894903.740 9   -693702.84748  20836796.270    20836794.5274   20836798.9794
       -23.328         -18.178
  -5374501.132 9  -4176124.78248  22290338.797    22290337.1714   22290341.7824
      2025.623        1578.408
 96 10 21 16  5  0.0000000  0  9 28 22 26 17  3  6  1 23 21          0.000751889
  -3078830.533 9  -2392969.135 9  20726157.965    20726156.506    20726160.467
       642.779         500.867
   2899641.657 9   2250238.19246  24335548.590    24335546.5914   24335552.2944
     -1646.476       -1282.968
   3907627.424 9   3039750.53847  23188784.911    23188784.0274   23188787.6994
     -2252.270       -1755.015
     15362.925 9     13172.80748  20798414.938    20798413.1274   20798417.5094
      -289.729        -225.763
  -7726002.649 9  -5995575.60947  23347432.260    23347430.8514   23347435.4234
      3069.962        2392.178
   7024829.478 9   5456441.65647  22824694.432    22824693.0644   22824698.3454
     -3340.922       -2603.316
  -5254166.537 8  -3822306.73745  24850543.658    24850541.7024   24850549.2674
      3763.560        2932.644
   -894047.252 9   -693035.45548  20836959.257    20836957.5194   20836961.9884
       -33.560         -26.151
  -5435175.482 9  -4223403.49748  22278792.860    22278791.2374   22278795.8554
      2019.460        1573.605
 96 10 21 16  5 30.0000000  0  9 28 22 26 17  3  6  1 23 21          0.000750874
  -3097835.260 9  -2407778.025 9  20722541.465    20722540.045    20722543.979
       624.393         486.540
   2949167.415 9   2288829.66046  24344972.997    24344971.0774   24344976.8044
     -1654.970       -1289.587
   3975405.056 9   3092564.20647  23201682.528    23201681.5464   23201685.4154
     -2266.048       -1765.752
     24174.833 9     20039.21348  20800091.838    20800090.0084   20800094.3814
      -297.454        -231.782
  -7817958.305 9  -6067229.36047  23329933.595    23329932.2384   23329936.8944
      3060.683        2384.948
   7125193.436 9   5534647.28847  22843793.067    22843791.7384   22843796.9964
     -3349.713       -2610.166
  -5367082.962 8  -3910293.41145  24829056.164    24829054.3264   24829061.9664
      3764.395        2933.295
   -892880.956 9   -692126.66048  20837181.195    20837179.4754   20837183.9354
       -43.943         -34.241
  -5495662.754 9  -4270536.43648  22267282.483    22267280.8744   22267285.5144
      2013.216        1568.740
 96 10 21 16  6  0.0000000  0  9 28 22 26 17  3  6  1 23 21          0.000749843
  -3116285.541 9  -2422154.876 9  20719030.532    20719029.096    20719033.010
       605.585         471.884
   2998947.477 9   2327619.28246  24354445.832    24354443.8604   24354449.7054
     -1663.773       -1296.446
   4043599.129 9   3145702.43547  23214659.375    23214658.5384   23214662.4344
     -2280.276       -1776.838
     33217.922 9     27085.76948  20801812.706    20801810.8794   20801815.2414
      -305.320        -237.912
  -7909627.742 9  -6138660.08547  23312489.483    23312488.1104   23312492.7714
      3050.486        2377.002
   7225821.029 9   5613058.35347  22862941.884    22862940.5664   22862945.8394
     -3358.744       -2617.203
  -5480020.766 8  -3998296.76645  24807564.664    24807562.9714   24807570.4294
      3764.793        2933.605
   -891402.120 9   -690974.31948  20837462.624    20837460.8724   20837465.3374
       -54.671         -42.601
  -5555952.491 9  -4317515.44848  22255809.716    22255808.1144   22255812.7574
      2005.982        1563.103
 96 10 21 16  6 30.0000000  0  9 28 22 26 17  3  6  1 23 21          0.000748802
  -3134176.214 9  -2436095.668 9  20715626.076    20715624.640    20715628.543
       586.838         457.276
   3048982.754 9   2366607.77146  24363967.232    24363965.2994   24363971.1424
     -1672.148       -1302.972
   4112224.979 9   3199177.11447  23227718.559    23227717.8544   23227721.5714
     -2295.105       -1788.394
     42482.536 9     34304.93948  20803575.700    20803573.9084   20803578.2544
      -312.675        -243.643
  -8000989.849 9  -6209851.31747  23295103.748    23295102.4144   23295107.1314
      3040.028        2368.853
   7326700.008 9   5691665.29947  22882138.558    22882137.2334   22882142.5224
     -3366.680       -2623.387
  -5592980.327 8  -4086317.08145  24786069.110    24786067.5334   24786074.8634
      3765.750        2934.351
   -889600.639 9   -689570.57048  20837805.404    20837803.6774   20837808.1694
       -65.669         -51.171
  -5616019.575 9  -4364320.96948  22244379.319    22244377.7214   22244382.3914
      1998.042        1556.916
 96 10 21 16  7  0.0000000  0  9 28 22 26 17  3  6  1 23 21          0.000747750
  -3151497.984 9  -2449593.159 9  20712329.884    20712328.450    20712332.318
       567.440         442.161
   3099271.955 9   2405794.12346  24373537.087    24373535.1204   24373540.8674
     -1681.037       -1309.899
   4181299.685 9   3253001.50247  23240863.099    23240862.2264   23240866.1024
     -2310.183       -1800.143
     51980.352 9     41705.82748  20805383.165    20805381.3484   20805385.6444
      -321.143        -250.241
  -8092033.970 9  -6280794.77947  23277778.618    23277777.3244   23277782.0234
      3029.260        2360.462
   7427803.109 9   5770446.90047  22901377.893    22901376.5714   22901381.7794
     -3373.970       -2629.068
  -5705970.623 8  -4174361.36545  24764567.680    24764566.0854   24764573.3634
      3766.428        2934.879
   -887463.274 9   -687905.09548  20838212.167    20838210.4374   20838214.8984
       -77.078         -60.061
  -5675828.452 9  -4410925.28848  22232998.091    22232996.4654   22233001.1634
      1988.682        1549.622
 96 10 21 16  7 30.0000000  0  9 28 22 26 17  3  6  1 23 21          0.000746680
  -3168251.539 9  -2462647.887 9  20709141.809    20709140.380    20709144.238
       548.808         427.643
   3149823.096 9   2445184.58746  24383156.638    24383154.6874   24383160.4104
     -1689.770       -1316.704
   4250802.234 9   3307159.31847  23254088.961    23254088.0944   23254091.9644
     -2323.787       -1810.743
     61727.293 9     49300.83448  20807237.980    20807236.1584   20807240.4364
      -329.384        -256.663
  -8182779.473 9  -6351505.55247  23260510.272    23260508.9314   23260513.6424
      3019.794        2353.086
   7529114.062 9   5849390.44947  22920656.847    22920655.4884   22920660.6914
     -3380.817       -2634.403
  -5818993.101 8  -4262430.74145  24743060.300    24743058.5304   24743065.6814
      3767.696        2935.867
   -885009.757 9   -685993.27048  20838679.053    20838677.3324   20838681.7944
       -87.090         -67.862
  -5735367.369 9  -4457319.24548  22221668.239    22221666.6384   22221671.2754
      1980.003        1542.859
 96 10 21 16  8  0.0000000  0  9 28 22 26 17  3  6  1 23 21          0.000745596
  -3184434.506 9  -2475257.999 9  20706062.294    20706060.863    20706064.742
       529.757         412.798
   3200655.382 9   2484794.12946  24392829.745    24392827.8154   24392833.5054
     -1699.309       -1324.137
   4320719.455 9   3361640.22047  23267393.821    23267392.8644   23267396.7404
     -2337.543       -1821.462
     71740.375 9     57103.22848  20809143.376    20809141.6164   20809145.8934
      -338.447        -263.725
  -8273225.524 9  -6421982.98047  23243298.962    23243297.5854   23243302.3044
      3009.708        2345.227
   7630647.302 9   5928507.22347  22939978.070    22939976.7084   22939981.8864
     -3388.353       -2640.275
  -5932046.004 8  -4350523.84145  24721547.071    24721545.3044   24721552.2864
      3768.894        2936.801
   -882244.350 9   -683838.41148  20839205.308    20839203.5554   20839208.0314
       -97.398         -75.895
  -5794637.092 9  -4503503.44048  22210389.586    22210387.9644   22210392.6184
      1971.150        1535.961
 96 10 21 16  8 30.0000000  0  9 28 22 26 17  3  6  1 23 21          0.000744495
  -3200050.902 9  -2487426.633 9  20703090.602    20703089.166    20703093.038
       511.094         398.255
   3251763.721 9   2524618.77146  24402555.368    24402553.4944   24402559.1364
     -1708.077       -1330.969
   4391037.268 9   3416433.30947  23280774.945    23280773.9754   23280777.8014
     -2350.399       -1831.480
     82028.322 9     65119.79648  20811101.138    20811099.3424   20811103.6254
      -347.701        -270.936
  -8363381.167 9  -6492234.11247  23226142.939    23226141.5774   23226146.2414
      3000.409        2337.981
   7732401.994 9   6007796.53947  22959341.354    22959340.0124   22959345.2054
     -3395.556       -2645.888
  -6045133.112 8  -4438643.59745  24700027.322    24700025.5534   24700032.4914
      3770.150        2937.779
   -879186.806 9   -681455.91348  20839787.179    20839785.4244   20839789.8684
      -106.510         -82.995
  -5853656.218 9  -4549492.36748  22199158.567    22199156.9934   22199161.6554
      1963.204        1529.769
 96 10 21 16  9  0.0000000  0  9 28 22 26 17  3  6  1 23 21          0.000743382
  -3215091.311 9  -2499146.438 9  20700228.481    20700227.073    20700230.959
       491.852         383.261
   3303155.167 9   2564664.03346  24412334.960    24412333.0324   24412338.4994
     -1717.713       -1338.478
   4461739.666 9   3471526.07047  23294229.250    23294228.3004   23294232.0004
     -2362.849       -1841.181
     92616.121 9     73370.01748  20813115.894    20813114.1274   20813118.4494
      -357.842        -278.838
  -8453242.142 9  -6562255.62447  23209042.988    23209041.6464   23209046.3554
      2990.600        2330.338
   7834395.413 9   6087271.88047  22978750.133    22978748.7684   22978753.9494
     -3403.777       -2652.294
  -6158235.113 8  -4526774.98245  24678504.628    24678503.0764   24678509.7744
      3770.136        2937.768
   -875852.387 9   -678857.67248  20840421.697    20840419.9464   20840424.3804
      -115.446         -89.958
  -5912427.628 9  -4595288.26148  22187974.702    22187973.1204   22187977.8314
      1955.265        1523.583
 96 10 21 16  9 30.0000000  0  9 28 22 26 17  3  6  1 23 21          0.000742260
  -3229559.499 9  -2510420.361 9  20697475.278    20697473.891    20697477.776
       472.588         368.250
   3354831.720 9   2604931.44546  24422168.655    24422166.7404   24422172.2004
     -1727.440       -1346.057
   4532813.196 9   3526907.99247  23307754.056    23307753.0754   23307756.9274
     -2375.590       -1851.109
    103498.705 9     81849.94048  20815186.797    20815185.0084   20815189.3524
      -367.680        -286.504
  -8542812.409 9  -6632050.63947  23191998.349    23191997.0274   23192001.6484
      2980.552        2322.508
   7936640.039 9   6166942.98047  22998206.641    22998205.3484   22998210.5044
     -3412.581       -2659.154
  -6271334.941 8  -4614904.67745  24656982.440    24656980.8064   24656987.4844
      3769.817        2937.520
   -872253.523 9   -676053.36548  20841106.500    20841104.7704   20841109.2224
      -124.689         -97.160
  -5970973.486 9  -4640908.40348  22176833.803    22176832.2054   22176836.9354
      1947.613        1517.620
 96 10 21 16 10  0.0000000  0  9 28 22 26 17  3  6  1 23 21          0.000741135
  -3243451.589 9  -2521245.379 9  20694831.738    20694830.313    20694834.207
       453.918         353.702
   3406793.432 9   2645421.04746  24432056.750    24432054.8114   24432060.1384
     -1736.111       -1352.814
   4604278.622 9   3582595.31447  23321353.563    23321352.5614   23321356.4174
     -2388.409       -1861.098
    114671.330 9     90555.86748  20817312.906    20817311.1104   20817315.4734
      -376.648        -293.492
  -8632082.735 9  -6701611.92347  23175010.872    23175009.4984   23175014.0434
      2971.268        2315.274
   8039138.877 9   6246812.15147  23017711.553    23017710.2664   23017715.4374
     -3420.178       -2665.074
  -6384432.422 8  -4703032.54845  24635460.719    24635459.0354   24635465.5724
      3770.251        2937.858
   -868377.925 9   -673033.42948  20841844.036    20841842.2884   20841846.7434
      -133.343        -103.904
  -6029291.673 9  -4686351.13948  22165736.228    22165734.6564   22165739.3354
      1940.622        1512.173
 96 10 21 16 10 30.0000000  0  9 28 22 26 17  3  6  1 23 21          0.000740002
  -3256769.053 9  -2531622.635 9  20692297.526    20692296.088    20692299.999
       434.477         338.554
   3459027.396 9   2686122.79946  24441996.557    24441994.6654   24441999.9904
     -1745.537       -1360.159
   4676142.849 9   3638593.38547  23335028.858    23335027.8704   23335031.7454
     -2401.921       -1871.627
    126122.260 9     99478.65848  20819491.933    20819490.1514   20819494.5194
      -386.125        -300.877
  -8721062.506 9  -6770946.79647  23158078.583    23158077.1904   23158081.7964
      2961.133        2307.376
   8141865.626 9   6326858.90447  23037259.806    23037258.5484   23037263.7474
     -3427.659       -2670.903
  -6497515.472 9  -4791149.16445  24613941.710    24613939.9294   24613946.6494
      3769.290        2937.109
   -864226.502 9   -669798.55948  20842634.039    20842632.2984   20842636.7414
      -143.050        -111.468
  -6087380.800 9  -4731615.39248  22154682.244    22154680.6664   22154685.3614
      1932.412        1505.775
 96 10 21 16 11  0.0000000  0  9 28 22 26 17  3  6  1 23 21          0.000738855
  -3269513.734 9  -2541553.563 9  20689872.288    20689870.846    20689874.779
       415.358         323.656
   3511528.197 9   2727032.47946  24451987.147    24451985.2684   24451990.6534
     -1754.195       -1366.905
   4748402.195 9   3694899.32847  23348779.341    23348778.3354   23348782.2204
     -2415.292       -1882.046
    137840.261 9    108609.55948  20821721.793    20821720.0254   20821724.3824
      -394.864        -307.686
  -8809743.168 9  -6840048.60047  23141203.276    23141201.8724   23141206.3934
      2951.185        2299.625
   8244797.175 9   6407065.27047  23056847.105    23056845.8454   23056851.0484
     -3434.236       -2676.028
  -6610583.582 9  -4879254.15045  24592425.457    24592423.7594   24592430.4324
      3768.805        2936.731
   -859783.078 9   -666336.15248  20843479.576    20843477.8334   20843482.2954
      -153.085        -119.287
  -6145234.564 9  -4776696.24148  22143673.051    22143671.4614   22143676.1454
      1924.733        1499.792
 96 10 21 16 11 30.0000000  0  9 28 22 26 17  3  6  1 23 21          0.000737690
  -3281683.391 9  -2551036.427 9  20687556.478    20687555.051    20687558.967
       396.180         308.712
   3564275.357 9   2768134.13546  24462024.582    24462022.6444   24462028.1864
     -1761.928       -1372.931
   4821078.344 9   3751530.05547  23362609.175    23362608.1534   23362612.0824
     -2429.421       -1893.055
    149816.928 9    117942.01348  20824000.917    20823999.1404   20824003.4774
      -403.229        -314.204
  -8898128.068 9  -6908919.95347  23124384.164    23124382.7614   23124387.2284
      2941.277        2291.904
   8347921.327 9   6487421.70347  23076471.053    23076469.7804   23076474.9834
     -3440.404       -2680.834
  -6723637.073 9  -4967347.74945  24570912.049    24570910.4284   24570917.1124
      3768.453        2936.457
   -855029.035 9   -662631.71348  20844384.285    20844382.5414   20844386.9704
      -163.563        -127.452
  -6202848.965 9  -4821590.57348  22132709.379    22132707.7904   22132712.4934
      1916.472        1493.355
 96 10 21 16 12  0.0000000  0  9 28 22 26 17  3  6  1 23 21          0.000736500
  -3293279.584 9  -2560072.435 9  20685349.800    20685348.356    20685352.287
       376.966         293.740
   3617241.351 9   2809406.30046  24472103.661    24472101.7174   24472107.2804
     -1768.954       -1378.406
   4894169.832 9   3808484.44447  23376518.101    23376517.0394   23376520.9364
     -2443.123       -1903.732
    162037.259 9    127464.33748  20826326.368    20826324.6154   20826328.9384
      -411.376        -320.553
  -8986210.223 9  -6977555.38447  23107622.732    23107621.3304   23107625.7994
      2930.849        2283.778
   8451222.946 9   6567916.41347  23096128.720    23096127.4514   23096132.6834
     -3446.352       -2685.469
  -6836680.078 9  -5055433.17445  24549400.551    24549399.0194   24549405.7424
      3767.744        2935.904
   -849966.978 9   -658687.25948  20845347.590    20845345.8254   20845350.2714
      -173.856        -135.472
  -6260220.569 9  -4866295.71148  22121791.910    22121790.3194   22121795.0244
      1908.491        1487.136
 96 10 21 16 12 30.0000000  0  9 28 22 26 17  3  6  1 23 21          0.000735286
  -3304301.072 9  -2568660.621 9  20683252.486    20683251.047    20683254.978
       357.603         278.652
   3670408.201 9   2850834.97646  24482220.897    24482218.9164   24482224.6404
     -1775.763       -1383.711
   4967661.608 9   3865750.71347  23390503.100    23390502.0334   23390506.0434
     -2456.549       -1914.194
    174501.764 9    137176.92548  20828698.318    20828696.5514   20828700.8704
      -419.800        -327.117
  -9073968.561 9  -7045938.50947  23090922.895    23090921.5114   23090925.9194
      2919.310        2274.787
   8554703.223 9   6648550.34947  23115820.405    23115819.0854   23115824.3724
     -3452.759       -2690.462
  -6949698.848 9  -5143499.72845  24527893.789    24527892.2644   24527898.8944
      3766.735        2935.118
   -844597.401 9   -654503.17748  20846369.418    20846367.6594   20846372.0834
      -184.320        -143.626
  -6317357.599 9  -4910818.07048  22110919.077    22110917.4904   22110922.1964
      1900.444        1480.865
 96 10 21 16 13  0.0000000  0  9 28 22 26 17  3  6  1 23 21          0.000734061
  -3314743.658 9  -2576797.714 9  20681265.315    20681263.862    20681267.827
       338.933         264.104
   3723768.381 9   2892414.28946  24492375.113    24492373.1334   24492378.8164
     -1781.327       -1388.047
   5041557.544 9   3923331.92747  23404564.985    23404563.9384   23404567.9554
     -2469.490       -1924.278
    187213.415 9    147082.09448  20831117.292    20831115.5074   20831119.8134
      -427.207        -332.889
  -9161380.555 9  -7114051.73647  23074288.936    23074287.5344   23074291.9644
      2908.560        2266.410
   8658390.417 9   6729345.51447  23135551.475    23135550.1594   23135555.4654
     -3459.512       -2695.724
  -7062691.922 9  -5231546.24846  24506391.887    24506390.3824   24506397.0154
      3766.424        2934.876
   -838922.827 9   -650081.43848  20847449.297    20847447.5284   20847451.9134
      -193.576        -150.838
  -6374260.646 9  -4955158.10448  22100090.769    22100089.1914   22100093.8874
      1893.501        1475.455
 96 10 21 16 13 30.0000000  0  9 28 22 26 17  3  6  1 23 21          0.000732834
  -3324601.396 9  -2584479.079 9  20679389.438    20679387.998    20679391.978
       318.873         248.472
   3777325.544 9   2934147.09546  24502566.667    24502564.6804   24502570.4484
     -1788.797       -1393.868
   5115867.689 9   3981235.92547  23418705.847    23418704.7974   23418708.7264
     -2483.674       -1935.330
    200175.172 9    157182.14948  20833583.854    20833582.0754   20833586.3774
      -436.245        -339.931
  -9248445.205 9  -7181894.32047  23057721.088    23057719.6674   23057724.1124
      2896.282        2256.843
   8762311.895 9   6810323.24047  23155327.082    23155325.8214   23155331.1584
     -3468.012       -2702.347
  -7175645.965 9  -5319562.33646  24484897.349    24484895.8574   24484902.7054
      3764.522        2933.394
   -832949.897 9   -645427.21648  20848585.919    20848584.1524   20848588.5404
      -203.848        -158.843
  -6430928.406 9  -4999314.79848  22089307.263    22089305.6754   22089310.3844
      1884.966        1468.805
 96 10 21 16 14  0.0000000  0  9 28 22 26 17  3  6  1 23 21          0.000731612
  -3333876.201 9  -2591706.214 9  20677624.522    20677623.091    20677627.058
       299.295         233.217
   3831096.877 9   2976046.79246  24512799.059    24512797.1094   24512802.8494
     -1796.228       -1399.658
   5190572.920 9   4039447.76047  23432921.827    23432920.7834   23432924.6884
     -2496.747       -1945.517
    213390.141 9    167479.51048  20836098.591    20836096.7884   20836101.0944
      -445.107        -346.837
  -9335152.919 9  -7249458.77047  23041221.154    23041219.7574   23041224.1344
      2884.077        2247.333
   8866480.021 9   6891493.15947  23175149.621    23175148.3464   23175153.7504
     -3476.631       -2709.063
  -7288566.220 9  -5407552.09446  24463409.312    24463407.8334   24463414.6004
      3763.450        2932.558
   -826692.594 9   -640551.40048  20849776.612    20849774.8664   20849779.2774
      -213.506        -166.368
  -6487362.463 9  -5043289.38748  22078568.233    22078566.6294   22078571.3404
      1877.130        1462.699
 96 10 21 16 14 30.0000000  0  9 28 22 26 17  3  6  1 23 21          0.000730396
  -3342563.978 9  -2598475.923 9  20675971.316    20675969.886    20675973.817
       279.442         217.747
   3885099.569 9   3018126.77646  24523075.545    24523073.5854   24523079.2444
     -1804.489       -1406.095
   5265666.577 9   4097962.26847  23447211.688    23447210.6994   23447214.5694
     -2509.958       -1955.811
    226879.696 9    177990.84048  20838665.591    20838663.7634   20838668.0794
      -454.549        -354.194
  -9421498.150 9  -7316740.75647  23024790.215    23024788.8034   23024793.2084
      2871.870        2237.821
   8970907.670 9   6972865.29747  23195021.605    23195020.2694   23195025.7034
     -3485.606       -2716.057
  -7401460.861 9  -5495521.87946  24441926.103    24441924.5844   24441931.3144
      3762.470        2931.795
   -820143.821 9   -635448.46348  20851022.775    20851021.0254   20851025.4794
      -223.521        -174.172
  -6543558.951 9  -5087078.86048  22067874.353    22067872.7654   22067877.5304
      1868.605        1456.056
 96 10 21 16 15  0.0000000  0  9 28 22 26 17  3  6  1 23 21          0.000729182
  -3350664.078 9  -2604787.703 9  20674429.941    20674428.511    20674432.415
       260.054         202.639
   3939342.862 9   3060394.22646  24533397.804    24533395.8574   24533401.4864
     -1812.277       -1412.164
   5341148.266 9   4156779.14147  23461575.372    23461574.3804   23461578.2474
     -2522.594       -1965.658
    240638.812 9    188712.21648  20841283.821    20841282.0524   20841286.3824
      -463.287        -361.003
  -9507496.590 9  -7383752.51947  23008425.146    23008423.8044   23008428.1744
      2860.981        2229.336
   9075592.471 9   7054437.81947  23214942.455    23214941.1494   23214946.6454
     -3493.629       -2722.308
  -7514337.281 9  -5583477.47446  24420446.436    24420444.8924   24420451.6294
      3762.158        2931.552
   -813306.387 9   -630120.60048  20852323.908    20852322.1454   20852326.5964
      -232.784        -181.390
  -6599503.373 9  -5130671.91748  22057228.462    22057226.8874   22057231.6824
      1860.656        1449.862
 96 10 21 16 15 30.0000000  0 10 28 22 26 17  3  6  1 23  9 21       0.000727961
  -3358176.107 9  -2610641.243 9  20673000.470    20672999.032    20673002.938
       240.296         187.244
   3993829.664 9   3102851.43246  24543766.445    24543764.4884   24543769.9804
     -1820.620       -1418.665
   5417008.167 9   4215890.71847  23476011.055    23476010.0914   23476013.9654
     -2535.105       -1975.406
    254676.600 9    199650.73948  20843955.130    20843953.3794   20843957.7094
      -473.002        -368.573
  -9593163.347 9  -7450505.83047  22992123.334    22992121.9534   22992126.3304
      2849.499        2220.389
   9180510.827 9   7136192.33247  23234907.768    23234906.4834   23234911.9694
     -3501.141       -2728.162
  -7627203.623 9  -5671425.23446  24398968.701    24398967.1064   24398973.8334
      3761.820        2931.288
   -806186.595 9   -624572.71648  20853678.773    20853677.0034   20853681.4334
      -242.317        -188.818
  -1171185.05919   -904039.88156  25303899.088    25303897.6645   25303903.9015
      2275.499        1773.116
  -6655201.441 9  -5174073.00348  22046629.471    22046627.8794   22046632.6944
      1852.092        1443.188
 96 10 21 16 16  0.0000000  0 10 28 22 26 17  3  6  1 23  9 21       0.000726728
  -3365098.536 9  -2616035.354 9  20671683.183    20671681.733    20671685.654
       221.187         172.353
   4048558.786 9   3145497.45646  24554181.091    24554179.1374   24554184.6424
     -1827.902       -1424.339
   5493234.782 9   4275288.02647  23490516.516    23490515.4994   23490519.4234
     -2546.705       -1984.445
    268995.180 9    210808.05948  20846679.908    20846678.1384   20846682.4674
      -481.651        -375.312
  -9678485.337 9  -7516990.49247  22975887.041    22975885.6794   22975890.0934
      2838.720        2211.990
   9285646.533 9   7218116.20047  23254914.428    23254913.1934   23254918.6974
     -3507.634       -2733.221
  -7740071.733 9  -5759374.34546  24377490.533    24377489.0124   24377495.6654
      3762.537        2931.847
   -798779.490 9   -618800.95148  20855088.266    20855086.4904   20855090.9364
      -251.574        -196.032
  -1239428.215 9   -957216.25646  25290912.800    25290911.3764   25290917.6354
      2273.856        1771.836
  -6710648.001 9  -5217278.11348  22036078.348    22036076.7584   22036081.5914
      1844.345        1437.152
 96 10 21 16 16 30.0000000  0 10 28 22 26 17  3  6  1 23  9 21       0.000725470
  -3371433.624 9  -2620971.796 9  20670477.676    20670476.230    20670480.137
       201.390         156.927
   4103515.635 9   3188320.93146  24564639.184    24564637.2094   24564642.6544
     -1835.642       -1430.370
   5569825.990 9   4334969.49247  23505091.413    23505090.4364   23505094.2114
     -2559.123       -1994.122
    283588.088 9    222179.14248  20849456.872    20849455.0904   20849459.4374
      -490.790        -382.434
  -9763478.876 9  -7583219.20647  22959713.256    22959711.8804   22959716.3814
      2827.791        2203.474
   9390970.361 9   7300186.66447  23274956.899    23274955.6954   23274961.1784
     -3513.721       -2737.964
  -7852936.523 9  -5847320.88446  24356013.037    24356011.5034   24356018.1364
      3761.873        2931.330
   -791083.453 9   -612804.04448  20856552.750    20856550.9954   20856555.4244
      -261.088        -203.445
  -1307603.390 9  -1010339.63446  25277939.424    25277938.0174   25277944.2814
      2271.320        1769.860
  -6765850.196 9  -5260292.80648  22025573.690    22025572.1174   22025576.9554
      1835.892        1430.565
 96 10 21 16 17  0.0000000  0 10 28 22 26 17  3  6  1 23  9 21       0.000724189
  -3377182.067 9  -2625451.112 9  20669383.805    20669382.357    20669386.259
       181.762         141.633
   4158698.261 9   3231320.34846  24575140.183    24575138.1804   24575143.5484
     -1843.340       -1436.369
   5646781.126 9   4394934.48947  23519735.509    23519734.4484   23519738.2294
     -2571.314       -2003.621
    298446.023 9    233756.73948  20852284.234    20852282.4714   20852286.8634
      -499.889        -389.524
  -9848153.293 9  -7649199.27047  22943600.301    22943598.8854   22943603.3444
      2816.968        2195.040
   9496464.539 9   7382389.85747  23295031.803    23295030.6144   23295036.0814
     -3519.269       -2742.287
  -7965784.514 9  -5935254.32846  24334538.748    24334537.2564   24334543.8134
      3761.110        2930.735
   -783121.406 9   -606599.85848  20858067.926    20858066.1464   20858070.5694
      -269.868        -210.287
  -1375712.228 9  -1063411.32846  25264978.590    25264977.1964   25264983.5354
      2269.275        1768.266
  -6820804.671 9  -5303114.47148  22015116.243    22015114.6124   22015119.4704
      1827.708        1424.188
 96 10 21 16 17 30.0000000  0 10 28 22 26 17  3  6  1 23  9 21       0.000722891
  -3382339.630 9  -2629470.006 9  20668402.362    20668400.906    20668404.824
       161.803         126.080
   4214120.802 9   3274506.71046  24585686.709    24585684.7404   24585690.1704
     -1851.786       -1442.950
   5724102.368 9   4455184.80647  23534449.190    23534448.2574   23534451.9174
     -2583.765       -2013.323
    313586.461 9    245554.47048  20855165.366    20855163.5984   20855168.0384
      -509.690        -397.161
  -9932497.107 9  -7714921.71647  22927550.173    22927548.7564   22927553.2584
      2805.552        2186.144
   9602129.336 9   7464726.01047  23315139.263    23315137.9674   23315143.4954
     -3525.378       -2747.048
  -8078600.243 9  -6023162.65446  24313070.571    24313069.1324   24313075.6664
      3759.492        2929.474
   -774884.287 9   -600181.33348  20859635.423    20859633.6184   20859638.0664
      -279.708        -217.954
  -1443757.140 9  -1116433.22846  25252030.012    25252028.6694   25252034.8294
      2266.481        1766.089
  -6875499.809 9  -5345734.05248  22004708.085    22004706.4784   22004711.3484
      1818.264        1416.829
 96 10 21 16 18  0.0000000  0 10 28 22 26 17  3  6  1 23  9 21       0.000721581
  -3386904.480 9  -2633027.042 9  20667533.672    20667532.251    20667536.162
       142.181         110.790
   4269788.755 9   3317884.29046  24596279.924    24596277.9764   24596283.4904
     -1859.838       -1449.224
   5801794.854 9   4515724.35447  23549233.640    23549232.6914   23549236.3644
     -2596.140       -2022.966
    329010.184 9    257572.94048  20858100.433    20858098.6644   20858103.0994
      -518.962        -404.386
 -10016501.471 9  -7780379.66747  22911564.666    22911563.2404   22911567.7144
      2794.515        2177.544
   9707973.422 9   7547201.86547  23335280.766    23335279.4874   23335284.9674
     -3531.216       -2751.597
  -8191358.539 9  -6111026.21446  24291613.385    24291611.8714   24291618.4264
      3757.295        2927.762
   -766349.571 9   -593530.91248  20861259.510    20861257.7284   20861262.1474
      -289.557        -225.629
  -1511703.944 9  -1169378.69546  25239100.129    25239098.6484   25239104.8834
      2262.922        1763.316
  -6929918.776 9  -5388138.43548  21994352.543    21994350.8994   21994355.7634
      1809.289        1409.836
 96 10 21 16 18 30.0000000  0 10 28 22 26 17  3  6  1 23  9 21       0.000720268
  -3390877.428 9  -2636122.859 9  20666777.655    20666776.220    20666780.148
       122.345          95.334
   4325706.156 9   3361456.21246  24606920.597    24606918.6044   24606924.2554
     -1868.398       -1455.895
   5879868.787 9   4576561.17347  23564090.683    23564089.7664   23564093.5184
     -2609.066       -2033.038
    344722.279 9    269816.11949  20861090.402    20861088.6164   20861093.0284
      -528.789        -412.043
 -10100168.600 9  -7845574.81947  22895643.295    22895641.8874   22895646.4584
      2782.799        2168.415
   9813988.542 9   7629810.99847  23355454.854    23355453.6084   23355459.0164
     -3537.049       -2756.142
  -8304037.872 9  -6198828.24146  24270171.250    24270169.6604   24270176.2574
      3754.326        2925.449
   -757524.696 9   -586654.39348  20862938.810    20862937.0414   20862941.4614
      -299.127        -233.086
  -1579542.196 9  -1222239.61146  25226190.825    25226189.3904   25226195.5254
      2259.269        1760.469
  -6984058.430 9  -5430325.17148  21984050.137    21984048.4654   21984053.3514
      1799.739        1402.394
 96 10 21 16 19  0.0000000  0 10 28 22 26 17  3  6  1 23  9 21       0.000718964
  -3394249.524 9  -2638750.482 9  20666135.983    20666134.545    20666138.472
       102.872          80.160
   4381889.409 9   3405235.35646  24617611.963    24617610.0264   24617615.5834
     -1876.562       -1462.256
   5958331.677 9   4637701.06147  23579021.731    23579020.7664   23579024.5504
     -2621.326       -2042.592
    360734.343 9    282293.03848  20864137.413    20864135.6334   20864140.0644
      -538.303        -419.457
 -10183470.944 9  -7910485.73947  22879791.371    22879789.9514   22879794.5664
      2771.077        2159.281
   9920200.285 9   7712573.34047  23375666.348    23375665.1054   23375670.4964
     -3543.314       -2761.024
  -8416626.803 9  -6286559.82846  24248746.243    24248744.7524   24248751.2214
      3751.967        2923.611
   -748393.645 9   -579539.29748  20864676.409    20864674.6664   20864679.0654
      -309.374        -241.071
  -1647263.863 9  -1275009.67846  25213303.817    25213302.3104   25213308.4314
      2255.884        1757.832
  -7037908.315 9  -5472286.11648  21973802.826    21973801.1964   21973806.0434
      1790.904        1395.510
 96 10 21 16 19 30.0000000  0 10 28 22 26 17  3  6  1 23  9 21       0.000717666
  -3397017.707 9  -2640907.518 9  20665609.234    20665607.805    20665611.728
        82.115          63.986
   4438325.847 9   3449211.74246  24628351.452    24628349.4924   24628355.1594
     -1885.206       -1468.992
   6037183.638 9   4699144.10647  23594026.722    23594025.7494   23594029.5404
     -2634.824       -2053.110
    377045.443 9    295002.97548  20867241.345    20867239.5384   20867243.9804
      -548.603        -427.483
 -10266399.942 9  -7975105.71947  22864010.504    22864009.0644   22864013.7384
      2757.943        2149.046
  10026627.432 9   7795503.51947  23395918.825    23395917.5804   23395922.9214
     -3551.375       -2767.305
  -8529121.304 9  -6374217.83746  24227339.252    24227337.7384   24227344.1494
      3748.104        2920.601
   -738925.308 9   -572161.37848  20866478.223    20866476.4364   20866480.8544
      -321.232        -250.311
  -1714857.868 9  -1327680.26546  25200441.023    25200439.5424   25200445.6114
      2250.748        1753.830
  -7091482.003 9  -5514031.83948  21963608.099    21963606.4854   21963611.3094
      1781.332        1388.051
 96 10 21 16 20  0.0000000  0 10 28 22 26 17  3  6  1 23  9 21       0.000716368
  -3399183.191 9  -2642594.923 9  20665197.181    20665195.736    20665199.673
        62.130          48.413
   4494985.626 9   3493362.17546  24639133.383    24639131.4144   24639137.1714
     -1892.206       -1474.446
   6116409.679 9   4760878.67547  23609102.964    23609101.9694   23609105.8424
     -2646.951       -2062.559
    393635.976 9    307930.65048  20870398.428    20870396.6174   20870401.0644
      -557.439        -434.368
 -10348949.623 9  -8039430.14547  22848301.836    22848300.4024   22848305.0234
      2745.345        2139.230
  10133265.783 9   7878598.28847  23416211.422    23416210.1954   23416215.5784
     -3557.957       -2772.434
  -8641526.580 9  -6461806.33646  24205949.269    24205947.7304   24205954.0504
      3745.577        2918.631
   -729134.090 9   -564531.86548  20868341.423    20868339.6684   20868344.0714
      -331.454        -258.276
  -1782321.185 9  -1380249.02046  25187603.175    25187601.6564   25187607.6734
      2246.892        1750.825
  -7144804.147 9  -5555581.56048  21953461.245    21953459.6394   21953464.4434
      1773.403        1381.872
 96 10 21 16 20 30.0000000  0 10 28 22 26 17  3  6  1 23  9 21       0.000715065
  -3400741.516 9  -2643809.217 9  20664900.621    20664899.199    20664903.162
        41.637          32.444
   4551854.355 9   3537675.42546  24649955.120    24649953.1934   24649958.9294
     -1898.999       -1479.739
   6195998.185 9   4822895.66447  23624248.048    23624247.1204   23624251.0424
     -2659.060       -2071.995
    410495.801 9    321068.16648  20873606.765    20873604.9394   20873609.3924
      -566.600        -441.506
 -10431116.953 9  -8103456.63047  22832665.914    22832664.4904   22832669.0914
      2732.281        2129.050
  10240112.842 9   7961855.67746  23436543.817    23436542.5424   23436547.9724
     -3565.495       -2778.308
  -8753856.183 9  -6549335.86446  24184573.736    24184572.0664   24184578.4184
      3742.972        2916.602
   -719034.882 9   -556662.35848  20870263.227    20870261.4744   20870265.8964
      -341.965        -266.466
  -1849670.201 9  -1432728.71846  25174787.055    25174785.5454   25174791.5574
      2242.947        1747.751
  -7197889.327 9  -5596946.63148  21943359.504    21943357.8944   21943362.6854
      1765.565        1375.765
 96 10 21 16 21  0.0000000  0 10 28 22 26 17  3  6  1 23  9 21       0.000713748
  -3401691.266 9  -2644549.299 9  20664719.896    20664718.475    20664722.456
        21.967          17.117
   4608904.344 9   3582129.91446  24660811.419    24660809.5384   24660815.1164
     -1904.038       -1483.666
   6275936.775 9   4885185.44747  23639459.841    23639458.9014   23639462.8064
     -2670.008       -2080.526
    427617.493 9    334409.73048  20876864.889    20876863.0894   20876867.5524
      -574.751        -447.858
 -10512903.955 9  -8167186.75747  22817102.314    22817100.9004   22817105.5674
      2720.530        2119.894
  10347186.853 9   8045289.91747  23456919.396    23456918.0984   23456923.5274
     -3572.362       -2783.659
  -8866118.763 9  -6636813.17346  24163210.820    24163209.1944   24163215.5204
      3741.357        2915.343
   -708624.722 9   -548550.55648  20872244.243    20872242.4744   20872246.8914
      -351.669        -274.028
  -1916903.558 9  -1485118.30246  25161992.928    25161991.4234   25161997.4044
      2239.498        1745.063
  -7250753.526 9  -5638139.50748  21933299.750    21933298.1424   21933302.9364
      1758.969        1370.625
 96 10 21 16 21 30.0000000  0 10 28 22 26 17  3  6  1 23  9 21       0.000712419
  -3402030.570 9  -2644813.706 9  20664655.365    20664653.940    20664657.914
         1.457           1.135
   4666119.412 9   3626713.02546  24671698.993    24671697.1444   24671702.9174
     -1909.741       -1488.110
   6356234.650 9   4947755.22347  23654739.985    23654739.1574   23654743.0664
     -2682.277       -2090.086
    445011.758 9    347963.68948  20880174.950    20880173.1194   20880177.5794
      -584.143        -455.176
 -10594315.282 9  -8230624.14247  22801610.245    22801608.8414   22801613.5454
      2707.646        2109.854
  10454475.212 9   8128891.16646  23477335.742    23477334.4064   23477339.8634
     -3579.192       -2788.981
  -8978313.079 9  -6724237.28946  24141860.863    24141859.2134   24141865.6644
      3739.087        2913.574
   -697920.238 9   -540209.40548  20874281.271    20874279.4964   20874283.8994
      -361.004        -281.302
  -1984012.428 9  -1537410.88346  25149222.483    25149220.9884   25149226.9464
      2235.239        1741.745
  -7303398.990 9  -5679161.93948  21923281.643    21923280.0484   21923284.8344
      1751.363        1364.698
 96 10 21 16 22  0.0000000  0 10 28 22 26 17  3  6  1 23  9 21       0.000711085
  -3401755.010 9  -2644599.001 9  20664707.823    20664706.388    20664710.375
       -20.077         -15.644
   4723515.190 9   3671436.96646  24682621.077    24682619.2164   24682625.0324
     -1917.024       -1493.785
   6436901.366 9   5010612.34647  23670090.353    23670089.4334   23670093.5674
     -2695.918       -2100.715
    462694.181 9    361742.19148  20883539.776    20883537.9824   20883542.4584
      -595.103        -463.717
 -10675342.419 9  -8293762.16647  22786191.240    22786189.8814   22786194.5744
      2693.764        2099.037
  10561959.348 9   8212644.98546  23497789.381    23497787.9894   23497793.4144
     -3586.610       -2794.761
  -9090440.107 9  -6811608.97446  24120523.721    24120522.0984   24120528.6014
      3735.818        2911.027
   -686938.832 9   -531652.47248  20876370.919    20876369.1794   20876373.5804
      -371.359        -289.371
  -2050989.989 9  -1589601.16146  25136476.987    25136475.5634   25136481.4644
      2229.628        1737.372
  -7355807.189 9  -5719999.49748  21913308.689    21913307.0884   21913311.8784
      1742.201        1357.559
 96 10 21 16 22 30.0000000  0 10 28 22 26 17  3  6  1 23  9 21       0.000709760
  -3400862.780 9  -2643903.774 9  20664877.625    20664876.204    20664880.165
       -39.964         -31.141
   4781111.616 9   3716317.24646  24693581.416    24693579.5564   24693585.3024
     -1923.332       -1498.700
   6517962.126 9   5073776.57047  23685515.759    23685514.8384   23685518.8644
     -2708.629       -2110.620
    480694.176 9    375768.15248  20886965.066    20886963.2694   20886967.7394
      -605.527        -471.839
 -10755978.041 9  -8356595.12347  22770846.882    22770845.4794   22770850.1294
      2681.230        2089.270
  10669640.274 9   8296552.12746  23518280.440    23518279.0454   23518284.4834
     -3592.726       -2799.527
  -9202502.631 9  -6898930.40146  24099198.855    24099197.2494   24099203.7924
      3734.271        2909.822
   -675675.893 9   -522876.16648  20878514.187    20878512.4364   20878516.8334
      -380.087        -296.172
  -2117823.922 9  -1641679.51646  25123758.888    25123757.4874   25123763.3764
      2225.371        1734.055
  -7407967.129 9  -5760643.60248  21903382.994    21903381.3964   21903386.1524
      1734.384        1351.468
 96 10 21 16 23  0.0000000  0 10 28 22 26 17  3  6  1 23  9 21       0.000708453
  -3399351.776 9  -2642726.385 9  20665165.160    20665163.726    20665167.705
       -60.688         -47.289
   4838927.971 9   3761368.90046  24704583.468    24704581.6124   24704587.5184
     -1931.112       -1504.763
   6599425.480 9   5137254.48047  23701017.600    23701016.6784   23701020.6954
     -2722.106       -2121.122
    499039.079 9    390062.86748  20890456.010    20890454.2004   20890458.6554
      -617.397        -481.089
 -10836207.989 9  -8419111.95447  22755579.579    22755578.2144   22755582.8324
      2667.413        2078.504
  10777517.120 9   8380611.94846  23538808.745    23538807.3844   23538812.8304
     -3598.828       -2804.282
  -9314493.289 9  -6986195.82146  24077887.651    24077886.1064   24077892.5734
      3731.716        2907.831
   -664131.589 9   -513880.61248  20880711.014    20880709.2624   20880713.6754
      -389.407        -303.434
  -2184507.960 9  -1693641.07046  25111069.338    25111067.9064   25111073.7594
      2220.240        1730.057
  -7459858.246 9  -5801078.23848  21893508.447    21893506.8484   21893511.5924
      1725.056        1344.199
 96 10 21 16 23 30.0000000  0 10 28 22 26 17  3  6  1 23  9 21       0.000707173
  -3397217.732 9  -2641063.512 9  20665571.275    20665569.829    20665573.827
       -81.255         -63.316
   4896988.459 9   3806610.80846  24715632.023    24715630.1334   24715636.1384
     -1939.275       -1511.123
   6681289.556 9   5201044.65847  23716595.841    23716594.8864   23716598.9314
     -2735.020       -2131.184
    517740.962 9    404635.75048  20894014.867    20894013.0654   20894017.5084
      -628.851        -490.014
 -10916006.734 9  -8481292.79347  22740394.392    22740392.9944   22740397.5824
      2652.819        2067.132
  10885570.428 9   8464809.27346  23559370.669    23559369.3194   23559374.7094
     -3604.468       -2808.676
  -9426402.975 9  -7073398.13446  24056591.912    24056590.2404   24056596.8534
      3729.113        2905.802
   -652307.809 9   -504667.28448  20882961.011    20882959.2494   20882963.6924
      -398.589        -310.589
  -2251038.820 9  -1745483.26646  25098408.875    25098407.4994   25098413.3514
      2215.394        1726.281
  -7511463.417 9  -5841290.05748  21883688.319    21883686.7164   21883691.4424
      1715.505        1336.757
 96 10 21 16 24  0.0000000  0 10 28 22 26 17  3  6  1 23  9 21       0.000705914
  -3394467.357 9  -2638920.379 9  20666094.677    20666093.234    20666097.214
      -101.389         -79.004
   4955290.558 9   3852040.94046  24726726.529    24726724.7184   24726730.6754
     -1946.622       -1516.848
   6763528.751 9   5265127.09047  23732245.485    23732244.4694   23732248.6074
     -2746.804       -2140.367
    536777.926 9    419469.73649  20897637.479    20897635.6954   20897640.1444
      -639.503        -498.314
 -10995370.861 9  -8543134.96147  22725291.991    22725290.5994   22725295.1074
      2638.762        2056.178
  10993799.764 9   8549143.75746  23579966.119    23579964.7714   23579970.0944
     -3610.207       -2813.148
  -9538232.738 9  -7160538.16946  24035311.274    24035309.7214   24035316.2884
      3726.823        2904.018
   -640198.530 9   -495231.49248  20885265.332    20885263.5774   20885268.0214
      -408.029        -317.945
  -2317427.542 9  -1797214.70446  25085775.545    25085774.0974   25085779.9134
      2211.223        1723.031
  -7562776.146 9  -5881273.99448  21873923.814    21873922.2054   21873926.9454
      1706.176        1329.488
 96 10 21 16 24 30.0000000  0 10 28 22 26 17  3  6  1 23  9 21       0.000704664
  -3391107.618 9  -2636302.417 9  20666734.051    20666732.592    20666736.570
      -122.061         -95.112
   5013807.207 9   3897638.29446  24737862.130    24737860.3084   24737866.0784
     -1953.809       -1522.448
   6846117.196 9   5329481.70647  23747961.675    23747960.6164   23747964.7304
     -2758.405       -2149.406
    556132.074 9    434550.87449  20901320.521    20901318.6954   20901323.1514
      -650.084        -506.559
 -11074304.266 9  -8604641.50047  22710271.378    22710270.0124   22710274.5494
      2624.139        2044.784
  11102211.797 9   8633620.59746  23600596.281    23600594.9804   23600600.1964
     -3616.709       -2818.215
  -9649981.051 9  -7247614.72046  24014046.155    24014044.6234   24014051.2514
      3723.380        2901.335
   -627801.745 9   -485571.66648  20887624.394    20887622.6144   20887627.0744
      -417.856        -325.602
  -2383693.390 9  -1848850.38046  25073165.591    25073164.0384   25073169.8674
      2207.001        1719.741
  -7613804.748 9  -5921036.53648  21864213.383    21864211.7764   21864216.5414
      1696.209        1321.721
 96 10 21 16 25  0.0000000  0 10 28 22 26 17  3  6  1 23  9 21       0.000703413
  -3387141.078 9  -2633211.629 9  20667488.884    20667487.439    20667491.381
      -142.173        -110.784
   5072511.876 9   3943382.14446  24749033.249    24749031.3684   24749037.2584
     -1959.539       -1526.914
   6929032.351 9   5394090.87247  23763739.913    23763738.8264   23763743.0214
     -2769.072       -2157.718
    575778.745 9    449859.95549  20905059.140    20905057.3434   20905061.8214
      -659.443        -513.852
 -11152816.948 9  -8665820.20347  22695330.923    22695329.5774   22695334.1304
      2610.372        2034.056
  11210799.016 9   8718233.94946  23621259.745    23621258.4234   23621263.7104
     -3622.326       -2822.592
  -9761628.492 9  -7334612.65846  23992800.217    23992798.7524   23992805.3744
      3719.975        2898.682
   -615123.932 9   -475692.86048  20890036.897    20890035.1284   20890039.5804
      -427.175        -332.864
  -2449843.589 9  -1900395.94746  25060577.573    25060576.0764   25060581.9224
      2203.142        1716.734
  -7664550.456 9  -5960578.64748  21854556.812    21854555.1864   21854559.9264
      1687.170        1314.678
 96 10 21 16 25 30.0000000  0 10 28 22 26 17  3  6  1 23  9 21       0.000702158
  -3382560.723 9  -2629642.536 9  20668360.509    20668359.049    20668363.009
      -163.215        -127.181
   5131392.245 9   3989262.89046  24760237.865    24760236.0414   24760241.9674
     -1965.854       -1531.834
   7012279.662 9   5458958.89147  23779581.349    23779580.3244   23779584.5194
     -2780.868       -2166.910
    595712.046 9    465392.38648  20908852.331    20908850.5194   20908855.0344
      -669.510        -521.696
 -11230917.671 9  -8726677.90247  22680468.869    22680467.5254   22680472.0254
      2596.465        2023.219
  11319572.044 9   8802992.08546  23641958.583    23641957.2884   23641962.6304
     -3629.254       -2827.990
  -9873154.397 9  -7421515.89046  23971577.558    23971576.0074   23971582.6844
      3715.166        2894.935
   -602150.580 9   -465583.76148  20892505.629    20892503.8634   20892508.3084
      -437.728        -341.087
  -2515864.262 9  -1951840.57746  25048014.227    25048012.7394   25048018.5934
      2198.058        1712.772
  -7715017.617 9  -5999903.69748  21844953.226    21844951.5904   21844956.3094
      1677.310        1306.995
 96 10 21 16 26  0.0000000  0 10 28 22 26 17  3  6  1 23  9 21       0.000700896
  -3377366.729 9  -2625595.286 9  20669348.877    20669347.430    20669351.433
      -183.199        -142.752
   5190437.470 9   4035272.09246  24771473.892    24771471.9374   24771478.0094
     -1970.706       -1535.615
   7095868.513 9   5524093.05147  23795487.894    23795486.8384   23795490.9484
     -2791.792       -2175.422
    615938.061 9    481152.90548  20912701.233    20912699.4184   20912703.9374
      -679.141        -529.201
 -11308633.324 9  -8787235.54547  22665680.081    22665678.7314   22665683.2304
      2584.321        2013.757
  11428535.442 9   8887898.56746  23662693.684    23662692.3724   23662697.7144
     -3635.141       -2832.577
  -9984553.467 9  -7508320.28346  23950378.959    23950377.4104   23950384.1034
      3711.314        2891.933
   -588881.903 9   -455244.54048  20895030.549    20895028.7874   20895033.2554
      -446.944        -348.268
  -2581737.993 9  -2003170.69046  25035478.799    25035477.3344   25035483.2014
      2193.351        1709.105
  -7765207.796 9  -6039012.91548  21835402.348    21835400.7124   21835405.4134
      1668.760        1300.332
 96 10 21 16 26 30.0000000  0 10 28 22 26 17  3  6  1 23  9 21       0.000699630
  -3371556.723 9  -2621068.025 9  20670454.502    20670453.052    20670457.058
      -203.998        -158.959
   5249650.293 9   4081411.89146  24782741.744    24782739.8504   24782745.8594
     -1976.834       -1540.390
   7179801.721 9   5589495.50847  23811459.814    23811458.7574   23811462.9394
     -2803.770       -2184.756
    636474.253 9    497155.11848  20916609.148    20916607.3494   20916611.8574
      -689.821        -537.523
 -11385962.779 9  -8847492.26247  22650964.780    22650963.4374   22650967.8614
      2571.128        2003.476
  11537683.438 9   8972948.89446  23683463.677    23683462.4124   23683467.8294
     -3641.192       -2837.292
 -10095816.281 9  -7595018.50446  23929206.314    23929204.7214   23929211.5284
      3706.407        2888.109
   -575328.004 9   -444683.06748  20897609.731    20897607.9774   20897612.4844
      -456.491        -355.707
  -2647443.266 9  -2054369.54546  25022975.492    25022974.0364   25022979.8284
      2187.079        1704.217
  -7815132.752 9  -6077915.47148  21825901.938    21825900.2994   21825905.0214
      1659.726        1293.293
 96 10 21 16 27  0.0000000  0 10 28 22 26 17  3  6  1 23  9 21       0.000698367
  -3365126.090 9  -2616057.161 9  20671678.235    20671676.790    20671680.790
      -224.863        -175.218
   5309051.988 9   4127698.89546  24794045.683    24794043.7514   24794049.6594
     -1983.580       -1545.647
   7264092.611 9   5655176.69547  23827500.012    23827498.8544   23827503.0484
     -2815.771       -2194.107
    657332.409 9    513408.21348  20920578.406    20920576.5254   20920581.0354
      -700.857        -546.122
 -11462899.646 9  -8907443.06747  22636324.226    22636322.8434   22636327.2044
      2557.744        1993.047
  11646997.532 9   9058128.63346  23704265.419    23704264.1764   23704269.6204
     -3646.566       -2841.480
 -10206940.414 9  -7681608.67146  23908060.124    23908058.4824   23908065.2964
      3701.878        2884.580
   -561485.828 9   -433896.96748  20900243.833    20900242.0484   20900246.5574
      -466.455        -363.471
  -2712957.547 9  -2105419.58446  25010508.441    25010506.9534   25010512.7744
      2180.315        1698.947
  -7864794.247 9  -6116612.73848  21816451.633    21816450.0334   21816454.7474
      1650.881        1286.401
 96 10 21 16 27 30.0000000  0 10 28 22 26 17  3  6  1 23  9 21       0.000697099
  -3358084.988 9  -2610570.606 9  20673018.126    20673016.670    20673020.690
      -244.422        -190.459
   5368648.588 9   4174137.75846  24805386.540    24805384.5974   24805390.5654
     -1989.433       -1550.207
   7348727.259 9   5721125.73747  23843605.421    23843604.3254   23843608.5214
     -2826.426       -2202.410
    678507.753 9    529908.46848  20924607.957    20924606.0804   20924610.5554
      -710.583        -553.701
 -11539442.488 9  -8967086.84348  22621758.651    22621757.2784   22621761.6194
      2544.984        1983.104
  11756455.408 9   9143420.42746  23725094.513    23725093.3164   23725098.7864
     -3650.429       -2844.490
 -10317948.205 9  -7768108.16346  23886935.958    23886934.3594   23886941.1394
      3698.840        2882.213
   -547360.992 9   -422890.60748  20902931.708    20902929.9414   20902934.4464
      -474.963        -370.101
  -2778279.204 9  -2156319.52946  24998078.018    24998076.5894   24998082.4424
      2174.581        1694.479
  -7914203.771 9  -6155113.66048  21807049.302    21807047.6874   21807052.4234
      1643.250        1280.455
 96 10 21 16 28  0.0000000  0 10 28 22 26 17  3  6  1 23  9 21       0.000695834
  -3350436.516 9  -2604610.775 9  20674473.578    20674472.136    20674476.159
      -264.742        -206.292
   5428446.793 9   4220733.69246  24816765.782    24816763.8344   24816769.8334
     -1996.366       -1555.610
   7433694.888 9   5787334.26147  23859774.256    23859773.2544   23859777.3604
     -2837.106       -2210.732
    699987.664 9    546646.04948  20928695.471    20928693.5894   20928698.0494
      -720.534        -561.455
 -11615560.227 9  -9026399.36448  22607273.913    22607272.5344   22607276.9254
      2530.104        1971.510
  11866045.926 9   9228815.58046  23745948.875    23745947.6854   23745953.1804
     -3654.900       -2847.974
 -10428848.788 9  -7854524.14646  23865832.212    23865830.6774   23865837.4074
      3695.216        2879.389
   -532965.365 9   -411673.24648  20905671.152    20905669.3904   20905673.8494
      -484.102        -377.222
  -2843413.105 9  -2207073.17246  24985683.436    24985681.9604   24985687.8204
      2168.600        1689.818
  -7963364.352 9  -6193420.59848  21797694.377    21797692.7494   21797697.4724
      1634.983        1274.013
 96 10 21 16 28 30.0000000  0 10 28 22 26 17  3  6  1 23  9 21       0.000694575
  -3342175.038 9  -2598173.279 9  20676045.690    20676044.256    20676048.273
      -285.561        -222.515
   5488455.883 9   4267493.98046  24828185.197    24828183.2584   24828189.2664
     -2003.626       -1561.267
   7518985.793 9   5853794.64447  23876004.494    23876003.4884   23876007.7234
     -2848.559       -2219.656
    721757.157 9    563609.28048  20932838.092    20932836.2284   20932840.6664
      -730.255        -569.030
 -11691219.061 9  -9085354.29448  22592876.504    22592875.1304   22592879.5674
      2514.328        1959.217
  11975766.123 9   9314311.78046  23766827.932    23766826.8004   23766832.2854
     -3659.360       -2851.449
 -10539634.944 9  -7940850.97446  23844750.277    23844748.8154   23844755.4004
      3691.076        2876.163
   -518289.117 9   -400237.21448  20908463.992    20908462.2314   20908466.6764
      -493.846        -384.815
  -2908368.095 9  -2257687.40546  24973322.859    24973321.3924   24973327.2264
      2162.347        1684.946
  -8012279.650 9  -6231536.41248  21788386.138    21788384.4894   21788389.1994
      1626.334        1267.273
 96 10 21 16 29  0.0000000  0 10 28 22 26 17  3  6  1 23  9 21       0.000693325
  -3333300.165 9  -2591257.815 9  20677734.559    20677733.109    20677737.102
      -305.635        -238.157
   5548663.856 9   4314409.23246  24839642.496    24839640.5024   24839646.5554
     -2009.612       -1565.931
   7604607.729 9   5920513.02647  23892297.903    23892296.8554   23892301.0284
     -2859.060       -2227.839
    743798.578 9    580784.40048  20937032.443    20937030.5744   20937035.0404
      -738.846        -575.724
 -11766416.843 9  -9143949.97348  22578566.857    22578565.4904   22578569.9334
      2499.394        1947.580
  12085612.098 9   9399905.97346  23787731.074    23787729.9334   23787735.3994
     -3663.444       -2854.632
 -10650311.047 9  -8027092.04946  23823689.297    23823687.8634   23823694.3204
      3687.748        2873.570
   -503332.642 9   -388582.83148  20911310.124    20911308.3444   20911312.8034
      -502.756        -391.758
  -2973153.395 9  -2308169.43146  24960994.574    24960993.0724   24960998.9244
      2157.210        1680.943
  -8060941.107 9  -6269454.42748  21779126.151    21779124.5064   21779129.2424
      1618.162        1260.905
 96 10 21 16 29 30.0000000  0 10 28 22 26 17  3  6  1 23  9 21       0.000692086
  -3323808.012 9  -2583861.351 9  20679540.872    20679539.412    20679543.409
      -326.738        -254.601
   5609059.664 9   4361470.82746  24851135.375    24851133.4134   24851139.5794
     -2016.261       -1571.112
   7690558.951 9   5987487.98447  23908653.794    23908652.8494   23908657.0214
     -2870.661       -2236.879
    766115.498 9    598174.19848  20941279.236    20941277.3704   20941281.8534
      -748.593        -583.319
 -11841153.047 9  -9202185.97048  22564345.089    22564343.6914   22564348.1264
      2483.612        1935.282
  12195609.083 9   9485617.85246  23808662.960    23808661.7284   23808667.1634
     -3669.346       -2859.231
 -10760861.529 9  -8113235.24746  23802652.332    23802650.7984   23802657.2654
      3682.649        2869.597
   -488097.448 9   -376711.25448  20914209.258    20914207.4824   20914211.9624
      -512.582        -399.415
  -3037771.254 9  -2358520.96746  24948698.156    24948696.7224   24948702.4504
      2151.182        1676.246
  -8109337.771 9  -6307166.11248  21769916.566    21769914.9494   21769919.6804
      1608.776        1253.592
 96 10 21 16 30  0.0000000  0 10 28 22 26 17  3  6  1 23  9 21       0.000690859
  -3313698.616 9  -2575983.920 9  20681464.628    20681463.175    20681467.181
      -346.961        -270.359
   5669635.333 9   4408672.60346  24862662.585    24862660.6424   24862666.7104
     -2021.786       -1575.418
   7776846.139 9   6054724.71947  23925073.743    23925072.7394   23925076.9564
     -2881.447       -2245.283
    788711.699 9    615781.61548  20945579.130    20945577.2574   20945581.7774
      -757.627        -590.359
 -11915441.649 9  -9260073.19448  22550208.394    22550207.0184   22550211.4884
      2469.393        1924.202
  12305773.780 9   9571460.41046  23829626.658    23829625.4494   23829630.9484
     -3674.683       -2863.389
 -10871276.634 9  -8199272.95946  23781641.067    23781639.5154   23781645.9064
      3678.601        2866.442
   -472579.991 9   -364619.73748  20917162.125    20917160.3554   20917164.8414
      -521.665        -406.492
  -3102231.871 9  -2408749.99446  24936431.734    24936430.3114   24936436.0154
      2146.315        1672.453
  -8157467.490 9  -6344669.78548  21760757.822    21760756.1974   21760760.9104
      1600.208        1246.915
 96 10 21 16 30 30.0000000  0 10 28 22 26 17  3  6  1 23  9 21       0.000689642
  -3302965.899 9  -2567620.780 9  20683507.015    20683505.572    20683509.568
      -367.902        -286.677
   5730382.086 9   4456007.70246  24874222.308    24874220.3904   24874226.4354
     -2027.352       -1579.755
   7863478.840 9   6122230.69947  23941559.507    23941558.4214   23941562.6364
     -2893.563       -2254.724
    811607.436 9    633622.43748  20949936.025    20949934.1854   20949938.7334
      -768.289        -598.667
 -11989300.956 9  -9317625.89848  22536153.394    22536152.0394   22536156.5154
      2455.253        1913.184
  12416116.076 9   9657441.35746  23850624.167    23850622.9554   23850628.4694
     -3681.003       -2868.314
 -10981553.829 9  -8285203.21746  23760656.030    23760654.4104   23760660.8104
      3673.866        2862.753
   -456772.298 9   -352302.06248  20920170.231    20920168.4594   20920172.9264
      -531.405        -414.082
  -3166518.027 9  -2458843.07646  24924198.460    24924197.0554   24924202.6974
      2139.961        1667.502
  -8205323.402 9  -6381960.09948  21751651.169    21751649.5374   21751654.2024
      1590.646        1239.464
 96 10 21 16 31  0.0000000  0 10 28 22 26 17  3  6  1 23  9 21       0.000688437
  -3291607.018 9  -2558769.725 9  20685668.562    20685667.109    20685671.113
      -389.180        -303.257
   5791298.896 9   4503475.26846  24885814.339    24885812.4264   24885818.5774
     -2033.601       -1584.624
   7950472.048 9   6190017.55947  23958113.809    23958112.7254   23958116.9984
     -2905.693       -2264.176
    834833.353 9    651720.53948  20954355.758    20954353.9184   20954358.4924
      -780.074        -607.850
 -12062743.531 9  -9374853.87348  22522177.723    22522176.3484   22522180.9024
      2441.086        1902.145
  12526655.039 9   9743575.55046  23871659.107    23871657.8424   23871663.4684
     -3688.017       -2873.779
 -11091689.612 9  -8371023.28647  23739697.911    23739696.3024   23739702.5794
      3668.658        2858.695
   -440672.943 9   -339757.11948  20923233.830    20923232.0454   20923236.5054
      -541.715        -422.115
  -3230611.203 9  -2508785.79846  24912001.826    24912000.4924   24912006.0744
      2132.978        1662.061
  -8252893.387 9  -6419027.61848  21742598.920    21742597.2844   21742601.9314
      1580.979        1231.932
 96 10 21 16 31 30.0000000  0 10 28 22 26 17  3  6  1 23  9 21       0.000687245
  -3279620.150 9  -2549429.325 9  20687949.584    20687948.130    20687952.153
      -409.874        -319.382
   5852395.349 9   4551082.84146  24897440.761    24897438.8664   24897444.9344
     -2039.351       -1589.105
   8037818.287 9   6258079.54147  23974735.195    23974734.1824   23974738.4894
     -2917.261       -2273.190
    858411.930 9    670093.44648  20958842.639    20958840.7834   20958845.3594
      -791.673        -616.888
 -12135766.689 9  -9431755.03548  22508281.821    22508280.4774   22508285.0564
      2427.089        1891.238
  12637391.746 9   9829863.83146  23892731.612    23892730.4174   23892735.9324
     -3694.216       -2878.610
 -11201674.684 9  -8456725.92947  23718768.503    23718766.8974   23718773.1444
      3663.892        2854.981
   -424273.122 9   -326978.04548  20926354.617    20926352.8384   20926357.2694
      -551.411        -429.671
  -3294497.865 9  -2558567.60046  24899844.499    24899843.2534   24899848.8314
      2126.139        1656.732
  -8300188.731 9  -6455881.13048  21733598.924    21733597.2744   21733601.9344
      1572.247        1225.128
 96 10 21 16 32  0.0000000  0 10 28 22 26 17  3  6  1 23  9 21       0.000686069
  -3267002.416 9  -2539597.345 9  20690350.653    20690349.233    20690353.235
      -431.048        -335.882
   5913671.526 9   4598830.46346  24909101.430    24909099.4734   24909105.4534
     -2045.349       -1593.778
   8125512.383 9   6326412.56447  23991422.846    23991421.8334   23991426.1034
     -2928.633       -2282.052
    882343.660 9    688741.53548  20963396.711    20963394.8584   20963399.4264
      -803.465        -626.077
 -12208350.548 9  -9488313.88348  22494469.577    22494468.2134   22494472.8334
      2411.905        1879.406
  12748315.688 9   9916298.00246  23913839.848    23913838.5924   23913844.2244
     -3700.331       -2883.375
 -11311520.360 9  -8542319.94847  23697865.569    23697863.9534   23697870.1294
      3659.329        2851.425
   -407589.557 9   -313977.87448  20929529.385    20929527.6254   20929532.0614
      -560.492        -436.747
  -3358155.413 9  -2608170.85946  24887730.906    24887729.6114   24887735.2074
      2117.890        1650.304
  -8347215.746 9  -6492525.55548  21724649.970    21724648.3354   21724653.0004
      1563.117        1218.013
 96 10 21 16 32 30.0000000  0 10 28 22 26 17  3  6  1 23  9 21       0.000684910
  -3253756.251 9  -2529275.674 9  20692871.301    20692869.900    20692873.912
      -452.104        -352.289
   5975115.393 9   4646708.75146  24920793.870    24920791.9044   24920797.8004
     -2051.150       -1598.299
   8213540.857 9   6395006.12247  24008174.176    24008173.0514   24008177.4424
     -2940.094       -2290.982
    906626.938 9    707663.55748  20968017.705    20968015.8574   20968020.3984
      -815.478        -635.437
 -12280477.022 9  -9544516.33648  22480744.385    22480742.9974   22480747.6384
      2396.513        1867.413
  12859409.143 9  10002864.26146  23934980.294    23934979.0314   23934984.7104
     -3705.954       -2887.756
 -11421228.789 9  -8627807.02746  23676988.705    23676987.1234   23676993.2664
      3654.351        2847.546
   -390644.807 9   -300774.18248  20932753.847    20932752.0734   20932756.5504
      -569.228        -443.554
  -3421563.914 9  -2657580.05546  24875664.718    24875663.3704   24875668.9684
      2109.447        1643.725
  -8393975.527 9  -6528961.74248  21715751.820    21715750.1904   21715754.9064
      1554.022        1210.926
 96 10 21 16 33  0.0000000  0 10 28 22 26 17  3  6  1 23  9 21       0.000683767
  -3239884.754 9  -2518466.729 9  20695510.982    20695509.561    20695513.590
      -472.816        -368.428
   6036726.685 9   4694717.50146  24932517.988    24932516.0354   24932522.0794
     -2056.307       -1602.317
   8301900.326 9   6463857.64147  24024988.419    24024987.3464   24024991.7404
     -2950.496       -2299.088
    931251.806 9    726851.75048  20972703.736    20972701.8734   20972706.4174
      -826.186        -643.781
 -12352148.721 9  -9600364.41348  22467105.695    22467104.2994   22467108.9404
      2381.336        1855.586
  12970654.498 9  10089548.87946  23956149.656    23956148.3564   23956154.1024
     -3710.421       -2891.237
 -11530786.410 9  -8713176.60447  23656140.520    23656139.0134   23656145.1294
      3649.427        2843.709
   -373449.610 9   -287375.33348  20936025.968    20936024.1894   20936028.6964
      -577.303        -449.846
  -3484735.628 9  -2706804.73746  24863643.547    24863642.1584   24863647.8124
      2101.974        1637.902
  -8440471.435 9  -6565192.31748  21706903.885    21706902.3094   21706907.0404
      1545.614        1204.375
 96 10 21 16 33 30.0000000  0 10 28 22 26 17  3  6  1 23  9 21       0.000682634
  -3225387.986 9  -2507170.561 9  20698269.635    20698268.219    20698272.247
      -494.047        -384.972
   6098484.292 9   4742840.25546  24944270.145    24944268.0804   24944274.2254
     -2061.290       -1606.200
   8390568.958 9   6532950.00747  24041861.503    24041860.4044   24041864.9194
     -2961.081       -2307.336
    956197.967 9    746290.30649  20977450.837    20977448.9744   20977453.4944
      -837.249        -652.402
 -12423348.970 9  -9655845.12648  22453556.742    22453555.3354   22453559.9724
      2364.894        1842.774
  13082036.586 9  10176340.05146  23977345.003    23977343.7164   23977349.4684
     -3715.514       -2895.206
 -11640196.522 9  -8798431.23347  23635320.515    23635318.9844   23635325.0634
      3644.122        2839.575
   -356014.185 9   -273789.29448  20939343.806    20939342.0334   20939346.5674
      -585.443        -456.189
  -3547680.434 9  -2755852.57546  24851665.430    24851664.0644   24851669.7734
      2094.116        1631.779
  -8486701.662 9  -6601215.86848  21698106.534    21698104.9634   21698109.7364
      1535.892        1196.799
 96 10 21 16 34  0.0000000  0 10 28 22 26 17  3  6  1 23  9 21       0.000681512
  -3210265.851 9  -2495387.096 9  20701147.288    20701145.883    20701149.897
      -514.165        -400.648
   6160382.203 9   4791072.32046  24956048.905    24956046.8054   24956053.1224
     -2065.290       -1609.317
   8479543.223 9   6602280.59747  24058792.784    24058791.7184   24058796.1624
     -2970.702       -2314.833
    981461.058 9    765975.82048  20982258.258    20982256.4114   20982260.9204
      -847.205        -660.160
 -12494070.057 9  -9710952.46148  22440098.902    22440097.5334   22440102.2024
      2349.753        1830.976
  13193559.783 9  10263241.17646  23998567.173    23998565.9144   23998571.7204
     -3719.414       -2898.245
 -11749456.901 9  -8883569.19046  23614529.045    23614527.4594   23614533.4384
      3639.624        2836.071
   -338344.920 9   -260021.03848  20942706.138    20942704.3804   20942708.9284
      -592.931        -462.024
  -3610402.166 9  -2804726.60146  24839729.856    24839728.5014   24839734.2034
      2087.508        1626.630
  -8532644.152 9  -6637015.20848  21689363.961    21689362.3794   21689367.1654
      1526.807        1189.720
 96 10 21 16 34 30.0000000  0 10 28 22 26 17  3  6  1 23  9 21       0.000680402
  -3194514.884 9  -2483113.635 9  20704144.614    20704143.218    20704147.231
      -535.657        -417.395
   6222420.760 9   4839413.97846  24967854.320    24967852.2844   24967858.7154
     -2070.587       -1613.444
   8568840.770 9   6671863.05047  24075785.449    24075784.3684   24075788.8704
     -2982.270       -2323.847
   1007055.993 9    785919.91148  20987128.861    20987126.9774   20987131.4694
      -858.964        -669.322
 -12564321.995 9  -9765694.23648  22426730.430    22426729.0234   22426733.6584
      2333.985        1818.690
  13305224.307 9  10350252.42846  24019816.360    24019814.9514   24019820.8184
     -3724.698       -2902.362
 -11858547.666 9  -8968574.98247  23593769.783    23593768.2294   23593774.1684
      3633.269        2831.119
   -320403.688 9   -246040.86448  20946120.251    20946118.4974   20946123.0084
      -602.962        -469.841
  -3672917.457 9  -2853439.77246  24827833.635    24827832.2244   24827837.8764
      2080.425        1621.110
  -8578288.053 9  -6672581.87648  21680678.169    21680676.6054   21680681.3994
      1516.371        1181.588
 96 10 21 16 35  0.0000000  0 10 28 22 26 17  3  6  1 23  9 21       0.000679299
  -3178138.615 9  -2470352.925 9  20707260.957    20707259.541    20707263.537
      -556.399        -433.558
   6284599.155 9   4887864.61346  24979686.603    24979684.5554   24979690.9054
     -2074.897       -1616.803
   8658459.533 9   6741695.81847  24092839.357    24092838.2934   24092842.7454
     -2992.455       -2331.783
   1032985.623 9    806124.80548  20992063.124    20992061.2194   20992065.7044
      -870.107        -678.005
 -12634111.635 9  -9820075.77548  22413449.928    22413448.5424   22413453.1584
      2318.084        1806.299
  13417029.776 9  10437373.50446  24041092.323    24041090.9524   24041096.7904
     -3729.284       -2905.936
 -11967470.724 9  -9053450.08447  23573042.365    23573040.8474   23573046.7954
      3627.944        2826.969
   -302180.541 9   -231841.01448  20949588.040    20949586.2674   20949590.7534
      -612.291        -477.110
  -3735242.791 9  -2902004.92046  24815973.452    24815972.0864   24815977.7124
      2074.104        1616.185
  -8623641.986 9  -6707922.59748  21672047.584    21672045.9984   21672050.8354
      1506.901        1174.208
 96 10 21 16 35 30.0000000  0 10 28 22 26 17  3  6  1 23  9 21       0.000678204
  -3161140.618 9  -2457107.754 9  20710495.599    20710494.171    20710498.158
      -577.495        -449.996
   6346908.355 9   4936417.19646  24991543.827    24991541.7734   24991548.1144
     -2079.884       -1620.689
   8748383.239 9   6811766.21147  24109951.327    24109950.2814   24109954.7654
     -3003.220       -2340.171
   1059266.474 9    826603.38248  20997064.188    20997062.2854   20997066.8084
      -882.607        -687.746
 -12703415.812 9  -9874079.03148  22400261.801    22400260.4134   22400265.0704
      2301.580        1793.439
  13528978.621 9  10524606.30246  24062395.595    24062394.1264   24062400.0834
     -3734.539       -2910.030
 -12076231.668 9  -9138198.85547  23552345.775    23552344.3024   23552350.3114
      3621.987        2822.328
   -283671.115 9   -217418.08948  20953110.285    20953108.5034   20953112.9874
      -622.377        -484.969
  -3797369.266 9  -2950415.11646  24804151.120    24804149.7234   24804155.3954
      2066.951        1610.611
  -8668710.346 9  -6743040.79648  21663471.355    21663469.7724   21663474.6374
      1497.012        1166.503
 96 10 21 16 36  0.0000000  0 10 28 22 26 17  3  6  1 23  9 21       0.000677122
  -3143522.178 9  -2443379.124 9  20713848.299    20713846.865    20713850.846
      -597.586        -465.651
   6409363.441 9   4985083.44646  25003428.759    25003426.7024   25003432.9244
     -2084.169       -1624.028
   8838628.764 9   6882087.35147  24127124.505    24127123.4674   24127128.0284
     -3013.560       -2348.229
   1085906.607 9    847361.91448  21002133.608    21002131.7404   21002136.2734
      -893.875        -696.526
 -12772239.421 9  -9927707.81948  22387165.139    22387163.7534   22387168.3964
      2286.100        1781.377
  13641068.549 9  10611949.04846  24083725.675    24083724.2804   24083730.2564
     -3738.443       -2913.072
 -12184820.698 9  -9222813.67047  23531681.959    23531680.4824   23531686.5234
      3616.805        2818.290
   -264862.373 9   -202761.93448  20956689.484    20956687.6824   20956692.1964
      -632.062        -492.516
  -3859290.995 9  -2998665.76346  24792367.813    24792366.4524   24792372.0274
      2060.618        1605.676
  -8713505.379 9  -6777946.01448  21654947.150    21654945.5674   21654950.4084
      1488.803        1160.106
 96 10 21 16 36 30.0000000  0 10 28 22 26 17  3  6  1 23  9 21       0.000676052
  -3125285.593 9  -2429168.820 9  20717318.626    20717317.181    20717321.152
      -618.568        -482.001
   6471960.384 9   5033860.21546  25015340.608    25015338.5694   25015344.7914
     -2089.458       -1628.149
   8929190.805 9   6952655.14847  24144357.870    24144356.9134   24144361.4244
     -3024.150       -2356.481
   1112898.194 9    868394.31148  21007269.938    21007268.0734   21007272.6394
      -905.887        -705.886
 -12840574.232 9  -9980955.72148  22374161.481    22374160.0654   22374164.7354
      2269.183        1768.195
  13753284.226 9  10699389.76646  24105079.710    24105078.3064   24105084.1674
     -3742.915       -2916.557
 -12293239.292 9  -9307295.66747  23511050.627    23511049.0794   23511055.1554
      3610.718        2813.546
   -245750.959 9   -187869.92948  20960326.244    20960324.4434   20960328.9514
      -642.198        -500.414
  -3921011.359 9  -3046759.53246  24780622.907    24780621.4044   24780626.9694
      2053.356        1600.018
  -8758041.182 9  -6812649.23648  21646472.291    21646470.6954   21646475.4914
      1479.876        1153.150
 96 10 21 16 37  0.0000000  0 10 28 22 26 17  3  6  1 23  9 21       0.000674997
  -3106428.627 9  -2414475.101 9  20720906.961    20720905.529    20720909.528
      -638.895        -497.840
   6534710.175 9   5082756.06746  25027281.475    25027279.5114   25027285.7274
     -2094.188       -1631.835
   9020049.607 9   7023454.19246  24161647.845    24161646.8184   24161651.2954
     -3033.349       -2363.649
   1140239.779 9    889699.42648  21012472.878    21012471.0234   21012475.5774
      -917.101        -714.624
 -12908400.601 9 -10033807.43448  22361254.549    22361253.1384   22361257.8254
      2252.258        1755.006
  13865619.491 9  10786923.68846  24126456.490    24126455.0114   24126461.0084
     -3746.518       -2919.365
 -12401485.218 9  -9391643.12047  23490452.082    23490450.4754   23490456.6234
      3605.259        2809.293
   -226355.720 9   -172756.76148  20964017.031    20964015.2464   20964019.7314
      -651.201        -507.429
  -3982506.728 9  -3094677.97046  24768920.704    24768919.1974   24768924.7554
      2045.990        1594.278
  -8802319.150 9  -6847151.54348  21638046.465    21638044.8514   21638049.6344
      1471.580        1146.686
 96 10 21 16 37 30.0000000  0 10 28 22 26 17  3  6  1 23  9 21       0.000673931
  -3086957.234 9  -2399302.606 9  20724612.238    20724610.804    20724614.820
      -659.422        -513.835
   6597612.002 9   5131770.42746  25039251.416    25039249.4294   25039255.5814
     -2099.499       -1635.973
   9111190.714 9   7094473.18446  24178991.337    24178990.2614   24178994.8144
     -3042.884       -2371.078
   1167915.221 9    911264.69448  21017739.319    21017737.4984   21017742.0434
      -927.992        -723.111
 -12975723.009 9 -10086266.44948  22348443.541    22348442.1234   22348446.7714
      2235.846        1742.218
  13978074.337 9  10874550.79046  24147855.945    24147854.5164   24147860.4334
     -3750.552       -2922.508
 -12509556.536 9  -9475854.49847  23469886.756    23469885.1954   23469891.3194
      3599.388        2804.718
   -206675.671 9   -157421.66848  20967762.015    20967760.2364   20967764.7074
      -660.888        -514.978
  -4043771.978 9  -3142417.09846  24757262.317    24757260.6974   24757266.3234
      2038.092        1588.124
  -8846340.385 9  -6881453.79948  21629669.507    21629667.8924   21629672.6304
      1462.991        1139.993
 96 10 21 16 38  0.0000000  0 10 28 22 26 17  3  6  1 23  9 21       0.000672915
  -3066868.049 9  -2383648.715 9  20728435.077    20728433.663    20728437.666
      -680.011        -529.879
   6660675.852 9   5180911.05046  25051252.152    25051250.1444   25051256.1984
     -2104.726       -1640.046
   9202617.211 9   7165714.55846  24196389.152    24196388.1064   24196392.7224
     -3052.200       -2378.338
   1195910.813 9    933079.43248  21023066.689    21023064.8964   21023069.4584
      -938.625        -731.396
 -13042551.572 9 -10138340.64948  22335726.512    22335725.0954   22335729.7074
      2219.313        1729.335
  14090641.681 9  10962265.54846  24169276.833    24169275.4264   24169281.3734
     -3754.058       -2925.240
 -12617452.997 9  -9559929.62547  23449354.746    23449353.1344   23449359.2904
      3593.550        2800.169
   -186709.049 9   -141863.26948  20971561.517    20971559.7334   20971564.2244
      -670.245        -522.269
  -4104788.570 9  -3189962.46346  24745651.132    24745649.7024   24745655.2924
      2029.508        1581.435
  -8890103.019 9  -6915554.54748  21621341.736    21621340.1074   21621344.8454
      1454.297        1133.218
 96 10 21 16 38 30.0000000  0 10 28 22 26 17  3  6  1 23  9 21       0.000671869
  -3046166.744 9  -2367517.853 9  20732374.416    20732372.988    20732377.022
      -700.034        -545.481
   6723889.374 9   5230168.28346  25063281.313    25063279.2604   25063285.2684
     -2109.545       -1643.801
   9294305.591 9   7237160.01646  24213836.985    24213835.8554   24213840.4504
     -3060.363       -2384.698
   1224222.873 9    955140.76548  21028454.315    21028452.4954   21028457.0634
      -948.717        -739.260
 -13108894.852 9 -10190036.70748  22323101.782    22323100.3554   22323104.9454
      2203.832        1717.272
  14203310.712 9  11050059.54146  24190717.092    24190715.5934   24190721.6694
     -3757.184       -2927.676
 -12725179.666 9  -9643872.45247  23428855.051    23428853.4214   23428859.5484
      3588.308        2796.084
   -166472.278 9   -126094.36348  20975412.461    20975410.6854   20975415.1764
      -678.774        -528.915
  -4165538.530 9  -3237300.07246  24734090.824    24734089.3094   24734094.8774
      2020.468        1574.391
  -8933606.525 9  -6949453.37548  21613063.287    21613061.6544   21613066.3914
      1446.046        1126.789
 96 10 21 16 39  0.0000000  0 10 28 22 26 17  3  6  1 23  9 21       0.000670819
  -3024852.853 9  -2350909.648 9  20736430.329    20736428.917    20736432.946
      -720.942        -561.773
   6787253.554 9   5279542.89146  25075338.974    25075337.0114   25075343.0704
     -2114.612       -1647.750
   9386254.329 9   7308808.38246  24231334.156    24231333.1604   24231337.6694
     -3069.617       -2391.909
   1252844.526 9    977443.33848  21033900.863    21033899.0244   21033903.5684
      -959.344        -747.541
 -13174772.312 9 -10241369.79548  22310565.695    22310564.2814   22310568.8674
      2187.866        1704.831
  14316087.039 9  11137937.14045  24212177.725    24212176.3934   24212182.4394
     -3761.364       -2930.933
 -12832737.200 9  -9727683.48447  23408387.517    23408385.9224   23408392.0274
      3581.994        2791.164
   -145967.878 9   -110116.91848  20979314.367    20979312.5744   20979317.0274
      -688.295        -536.334
  -4226003.284 8  -3284415.45446  24722584.744    24722583.2294   24722588.8054
      2010.574        1566.681
  -8976851.065 9  -6983150.41348  21604834.124    21604832.4764   21604837.2334
      1436.773        1119.563
 96 10 21 16 39 30.0000000  0 10 28 22 26 17  3  6  1 23  9 21       0.000669767
  -3002928.807 9  -2333825.999 9  20740602.377    20740600.960    20740604.990
      -740.826        -577.267
   6850751.747 9   5329021.95246  25087422.375    25087420.4304   25087426.5254
     -2118.619       -1650.872
   9478469.166 9   7380664.08146  24248882.197    24248881.1084   24248885.6024
     -3078.289       -2398.667
   1281763.676 9    999977.72948  21039403.987    21039402.1464   21039406.7124
      -968.894        -754.982
 -13240189.087 9 -10292343.90148  22298117.276    22298115.8694   22298120.4254
      2173.018        1693.261
  14428962.946 8  11225892.33745  24233657.326    24233656.0864   24233662.0324
     -3763.785       -2932.819
 -12940121.080 9  -9811359.19347  23387952.971    23387951.4014   23387957.4914
      3576.797        2787.115
   -125189.954 9    -93926.33748  20983268.281    20983266.4784   20983270.9274
      -696.803        -542.963
  -4286191.811 8  -3331315.57746  24711131.219    24711129.6934   24711135.2424
      2001.795        1559.840
  -9019831.335 9  -7016641.52448  21596655.238    21596653.6054   21596658.3564
      1428.392        1113.033
 96 10 21 16 40  0.0000000  0 10 28 22 26 17  3  6  1 23  9 21       0.000668713
  -2980396.113 9  -2316268.080 9  20744890.272    20744888.825    20744892.839
      -760.913        -592.919
   6914371.968 9   5378596.09246  25099529.037    25099527.0464   25099533.1704
     -2122.261       -1653.710
   9570961.096 9   7452735.69246  24266482.748    24266481.7734   24266486.2164
     -3087.358       -2405.734
   1310987.197 9   1022749.28848  21044965.046    21044963.2004   21044967.7504
      -978.958        -762.824
 -13305144.142 9 -10342958.23148  22285756.697    22285755.2874   22285759.8734
      2157.756        1681.368
  14541916.198 8  11313907.79545  24255151.626    24255150.4084   24255156.2784
     -3766.240       -2934.732
 -13047334.372 9  -9894901.98747  23367550.872    23367549.3784   23367555.4384
      3571.036        2782.625
   -104159.476 9    -77538.96648  20987270.262    20987268.4764   20987272.9074
      -704.796        -549.192
  -4346106.991 9  -3378002.70946  24699729.660    24699728.2054   24699733.8054
      1993.162        1553.113
  -9062545.514 9  -7049925.29348  21588527.002    21588525.3484   21588530.1354
      1419.612        1106.191
 96 10 21 16 40 30.0000000  0 10 28 22 26 17  3  6  1 23  9 21       0.000667657
  -2957255.513 9  -2298236.464 9  20749293.787    20749292.353    20749296.371
      -781.769        -609.171
   6978108.155 9   5428260.59046  25111657.739    25111655.7764   25111661.7894
     -2126.779       -1657.230
   9663728.959 9   7525022.27846  24284135.771    24284134.8884   24284139.4264
     -3097.104       -2413.328
   1340511.536 9   1045755.25348  21050583.368    21050581.5204   21050586.0544
      -989.359        -770.929
 -13369644.182 9 -10393217.99848  22273482.705    22273481.3114   22273485.9354
      2142.132        1669.194
  14654953.912 8  11401989.06845  24276661.949    24276660.6164   24276666.7274
     -3769.560       -2937.319
 -13154362.230 9  -9978300.29947  23347184.191    23347182.6904   23347188.6784
      3564.160        2777.267
    -82883.596 9    -60960.37048  20991318.952    20991317.1514   20991321.5624
      -713.598        -556.050
  -4405772.167 8  -3424495.03746  24688375.770    24688374.1534   24688379.8924
      1984.594        1546.437
  -9104989.418 9  -7082998.46348  21580450.209    21580448.5744   21580453.3284
      1409.982        1098.687
 96 10 21 16 41  0.0000000  0 10 28 22 26 17  3  6  1 23  9 21       0.000666607
  -2933501.914 9  -2279727.192 9  20753813.968    20753812.538    20753816.562
      -801.861        -624.827
   7041953.882 9   5478010.44446  25123807.207    25123805.1984   25123811.2634
     -2129.692       -1659.500
   9756783.697 9   7597532.40646  24301843.435    24301842.5714   24301847.2124
     -3106.610       -2420.735
   1370343.354 9   1069000.80648  21056260.237    21056258.3774   21056262.8854
      -999.688        -778.978
 -13433678.629 9 -10443114.97648  22261297.361    22261295.9884   22261300.5874
      2126.490        1657.005
  14768084.091 8  11490142.39145  24298189.902    24298188.5914   24298194.7784
     -3772.566       -2939.662
 -13261189.795 9 -10061542.53347  23326855.651    23326854.0794   23326860.0424
      3557.563        2772.127
    -61360.262 9    -44188.95448  20995414.688    20995412.9414   20995417.3284
      -721.407        -562.135
  -4465202.008 8  -3470803.98346  24677066.610    24677065.0604   24677070.6804
      1977.264        1540.725
  -9147151.794 9  -7115852.26348  21572426.996    21572425.3534   21572430.0944
      1400.748        1091.492
 96 10 21 16 41 30.0000000  0 10 28 22 26 17  3  6  1 23  9 21       0.000665567
  -2909141.223 9  -2260744.857 9  20758449.677    20758448.247    20758452.256
      -822.531        -640.933
   7105898.901 9   5527837.68546  25135975.510    25135973.5534   25135979.5874
     -2133.617       -1662.559
   9850130.747 9   7670270.33546  24319606.947    24319605.9094   24319610.6704
     -3116.740       -2428.629
   1400504.124 9   1092502.69048  21061999.686    21061997.8224   21062002.3484
     -1011.455        -788.147
 -13497229.236 9 -10492634.92748  22249204.116    22249202.7304   22249207.3054
      2109.954        1644.120
  14881315.035 8  11578374.22645  24319737.117    24319735.7204   24319741.9474
     -3776.658       -2942.850
 -13367819.700 9 -10144630.74747  23306564.657    23306563.0574   23306568.9994
      3550.804        2766.860
    -39597.249 9    -27230.77548  20999556.095    20999554.3144   20999558.7034
      -729.725        -568.617
  -4524409.007 9  -3516939.29746  24665799.920    24665798.3504   24665803.9844
      1969.333        1534.545
  -9189039.668 9  -7148492.16148  21564456.010    21564454.3814   21564459.1064
      1391.515        1084.297
 96 10 21 16 42  0.0000000  0 10 28 22 26 17  3  6  1 23  9 21       0.000664534
  -2884173.401 9  -2241289.434 9  20763200.911    20763199.476    20763203.483
      -842.475        -656.474
   7169941.531 9   5577740.99346  25148162.435    25148160.4794   25148166.5214
     -2136.529       -1664.828
   9943757.556 9   7743226.24446  24337423.582    24337422.5164   24337427.2894
     -3125.429       -2435.399
   1431010.607 9   1116273.95748  21067804.873    21067803.0074   21067807.5554
     -1022.655        -796.874
 -13560297.323 9 -10541778.90148  22237202.688    22237201.2844   22237205.8624
      2094.068        1631.741
  14994676.130 8  11666707.49845  24341309.001    24341307.7464   24341313.9704
     -3781.172       -2946.368
 -13474251.745 9 -10227564.78847  23286311.304    23286309.7324   23286315.6464
      3544.159        2761.682
    -17598.740 9    -10089.08748  21003742.293    21003740.5054   21003744.8574
      -737.454        -574.639
  -4583382.766 8  -3562892.84546  24654577.495    24654575.9794   24654581.6464
      1961.817        1528.688
  -9230668.547 9  -7180930.25248  21556534.291    21556532.6764   21556537.3894
      1383.263        1077.867
 96 10 21 16 42 30.0000000  0 10 28 22 26 17  3  6  1 23  9 21       0.000663510
  -2858602.759 9  -2221364.280 9  20768066.828    20768065.378    20768069.424
      -862.388        -671.991
   7234081.594 9   5627720.21846  25160367.926    25160366.0164   25160372.1004
     -2139.478       -1667.126
  10037648.941 9   7816388.33046  24355290.537    24355289.5334   24355294.1584
     -3134.135       -2442.183
   1461852.599 9   1140306.66048  21073673.908    21073672.0624   21073676.6374
     -1033.647        -805.439
 -13622879.379 9 -10590544.14148  22225293.669    22225292.2854   22225296.8504
      2077.750        1619.026
  15108185.221 8  11755156.07545  24362909.091    24362907.8274   24362914.2144
     -3785.973       -2950.109
 -13580482.111 9 -10310341.68047  23266096.307    23266094.7934   23266100.6554
      3537.834        2756.754
      4637.789 9      7238.06648  21007973.777    21007972.0114   21007976.3184
      -745.142        -580.630
  -4642124.310 8  -3608665.43346  24643399.174    24643397.6984   24643403.4554
      1954.009        1522.604
  -9272044.614 9  -7213171.34348  21548660.695    21548659.0864   21548663.8064
      1374.954        1071.393
 96 10 21 16 43  0.0000000  0 10 28 22 26 17  3  6  1 23  9 21       0.000662504
  -2832429.065 9  -2200969.212 9  20773047.491    20773046.053    20773050.120
      -882.697        -687.816
   7298307.817 9   5677766.57746  25172589.887    25172587.9564   25172593.9964
     -2142.513       -1669.491
  10131812.643 9   7889762.62446  24373209.423    24373208.3764   24373212.9614
     -3143.601       -2449.559
   1493034.847 9   1164604.50048  21079607.665    21079605.8454   21079610.4384
     -1045.261        -814.489
 -13684953.393 9 -10638913.50348  22213481.360    22213479.9704   22213484.5744
      2060.246        1605.386
  15221842.304 8  11843719.96745  24384537.413    24384536.1614   24384542.4344
     -3791.155       -2954.147
 -13686520.782 9 -10392969.18947  23245917.871    23245916.2944   23245922.1504
      3531.192        2751.578
     27107.054 9     24746.57548  21012249.561    21012247.7674   21012252.0784
      -752.958        -586.721
  -4700622.249 9  -3654248.21346  24632267.408    24632265.9244   24632271.6044
      1945.595        1516.048
  -9313167.213 9  -7245214.92148  21540835.327    21540833.7004   21540838.4244
      1366.414        1064.738
 96 10 21 16 43 30.0000000  0 10 28 22 26 17  3  6  1 23  9 21       0.000661520
  -2805651.405 9  -2180103.525 9  20778143.072    20778141.646    20778145.747
      -902.556        -703.290
   7362624.303 9   5727883.25146  25184828.956    25184827.0524   25184833.1714
     -2145.167       -1671.559
  10226242.222 9   7963344.05746  24391178.773    24391177.7094   24391182.2564
     -3151.748       -2455.908
   1524556.458 9   1189166.77448  21085606.046    21085604.2204   21085608.8254
     -1056.047        -822.894
 -13746506.730 9 -10686877.14048  22201768.171    22201766.7864   22201771.4094
      2043.320        1592.197
  15335632.565 8  11932387.62845  24406191.009    24406189.7184   24406195.9524
     -3794.628       -2956.853
 -13792359.791 9 -10475441.12147  23225777.353    23225775.8264   23225781.6514
      3524.595        2746.438
     49802.924 9     42431.65648  21016568.417    21016566.6504   21016570.9744
      -760.131        -592.310
  -4758873.997 9  -3699639.13346  24621182.434    24621180.8254   24621186.5784
      1937.644        1509.852
  -9354041.006 9  -7277064.63448  21533057.287    21533055.6554   21533060.3914
      1358.296        1058.412
 96 10 21 16 44  0.0000000  0 10 28 22 26 17  3  6  1 23  9 21       0.000660550
  -2778271.464 9  -2158768.526 9  20783353.309    20783351.887    20783355.995
      -922.680        -718.971
   7427020.876 9   5778062.31746  25197083.226    25197081.2744   25197087.5044
     -2147.898       -1673.687
  10320923.659 9   8037121.74846  24409196.031    24409195.0014   24409199.5354
     -3160.415       -2462.661
   1556393.386 9   1213974.75148  21091664.432    21091662.6024   21091667.1974
     -1066.235        -830.832
 -13807544.782 9 -10734439.25148  22190153.037    22190151.6614   22190156.3044
      2025.957        1578.668
  15449513.689 8  12021126.09045  24427861.790    24427860.5654   24427866.9274
     -3797.073       -2958.758
 -13897981.488 9 -10557743.72547  23205678.125    23205676.6264   23205682.5034
      3517.043        2740.553
     72718.824 9     60288.19248  21020929.194    21020927.4134   21020931.7334
      -767.542        -598.085
  -4816873.152 9  -3744833.22346  24610145.407    24610143.9544   24610149.7854
      1929.123        1503.213
  -9394649.495 9  -7308707.60748  21525329.690    21525328.0754   21525332.8444
      1349.055        1051.212
 96 10 21 16 44 30.0000000  0 10 28 22 26 17  3  6  1 23  9 21       0.000659611
  -2750287.635 9  -2136962.963 9  20788678.492    20788677.056    20788681.136
      -943.076        -734.864
   7491500.099 9   5828305.78146  25209353.111    25209351.1404   25209357.4834
     -2150.720       -1675.886
  10415874.409 9   8111109.29446  24427264.636    24427263.6124   24427268.1494
     -3169.719       -2469.911
   1588533.174 9   1239018.72848  21097780.426    21097778.6034   21097783.2184
     -1076.737        -839.016
 -13868055.088 9 -10781590.13848  22178638.344    22178636.9594   22178641.5684
      2007.976        1564.657
  15563455.598 8  12109911.91945  24449544.135    24449543.0544   24449549.4204
     -3799.061       -2960.307
 -14003385.425 9 -10639876.63547  23185620.374    23185618.9394   23185624.7764
      3509.700        2734.831
     95855.303 9     78316.60548  21025331.912    21025330.1324   21025334.4834
      -775.157        -604.018
  -4874619.111 9  -3789830.01946  24599156.787    24599155.4064   24599161.0044
      1920.296        1496.335
  -9434982.691 9  -7340136.07048  21517654.546    21517652.9314   21517657.6774
      1339.760        1043.969
 96 10 21 16 45  0.0000000  0 10 28 22 26 17  3  6  1 23  9 21       0.000658689
  -2721698.687 9  -2114685.877 9  20794118.829    20794117.376    20794121.455
      -962.997        -750.387
   7556055.321 9   5878608.51446  25221637.575    25221635.6014   25221641.8604
     -2153.259       -1677.864
  10511094.276 9   8185306.55546  24445384.432    24445383.4144   24445387.9504
     -3178.265       -2476.570
   1620987.795 9   1264308.01948  21103956.346    21103954.5254   21103959.1054
     -1087.201        -847.170
 -13928040.933 9 -10828332.35748  22167223.431    22167222.0254   22167226.6074
      1990.945        1551.386
  15677435.423 8  12198727.28745  24471233.839    24471232.7964   24471239.1164
     -3799.775       -2960.864
 -14108569.901 9 -10721838.53847  23165604.406    23165602.9744   23165608.8114
      3502.390        2729.135
    119222.857 9     96525.08048  21029778.608    21029776.8404   21029781.2004
      -782.934        -610.078
  -4932102.005 9  -3834621.84546  24588218.293    24588216.8094   24588222.2764
      1911.687        1489.626
  -9475053.205 9  -7371359.84348  21510029.427    21510027.8044   21510032.5094
      1331.476        1037.514
 96 10 21 16 45 30.0000000  0 10 28 22 26 17  3  6  1 23  9 21       0.000657767
  -2692506.536 9  -2091938.767 9  20799673.969    20799672.499    20799676.558
      -983.034        -766.000
   7620697.417 9   5928978.93946  25233938.645    25233936.6824   25233942.8474
     -2156.123       -1680.096
  10606564.354 9   8259698.79546  24463551.856    24463550.8644   24463555.3804
     -3186.325       -2482.851
   1653769.047 9   1289851.83448  21110194.420    21110192.5974   21110197.2044
     -1098.041        -855.616
 -13987516.105 9 -10874676.64848  22155905.700    22155904.2864   22155908.8294
      1974.211        1538.346
  15791438.637 8  12287560.88045  24492928.012    24492926.8374   24492933.2434
     -3800.537       -2961.457
 -14213527.068 9 -10803623.32347  23145631.712    23145630.2854   23145636.0594
      3495.014        2723.388
    142837.241 9    114925.88748  21034272.271    21034270.5274   21034274.8984
      -791.383        -616.662
  -4989304.668 9  -3879195.30546  24577332.977    24577331.5154   24577336.9284
      1901.805        1481.926
  -9514873.405 9  -7402388.57248  21502451.920    21502450.2864   21502454.9634
      1323.343        1031.176
 96 10 21 16 46  0.0000000  0 10 28 22 26 17  3  6  1 23  9 21       0.000656840
  -2662710.779 9  -2068721.314 9  20805343.937    20805342.486    20805346.516
     -1003.102        -781.638
   7685436.631 9   5979425.04246  25246258.234    25246256.2274   25246262.4044
     -2159.645       -1682.840
  10702288.185 9   8334288.75046  24481767.656    24481766.5114   24481771.0014
     -3194.889       -2489.524
   1686876.344 9   1315649.71448  21116494.523    21116492.7064   21116497.3454
     -1108.921        -864.094
 -14046485.041 9 -10920626.46748  22144684.241    22144682.8584   22144687.3944
      1957.280        1525.153
  15905481.022 8  12376424.99645  24514629.577    24514628.4834   24514634.9504
     -3802.146       -2962.711
 -14318275.885 9 -10885245.76347  23125698.692    23125697.2574   23125703.0004
      3488.506        2718.316
    166721.954 9    133537.34248  21038817.432    21038815.6654   21038820.0284
      -800.653        -623.885
  -5046208.520 9  -3923535.92746  24566504.517    24566503.0444   24566508.5134
      1891.973        1474.265
  -9554448.298 9  -7433226.14748  21494921.064    21494919.4154   21494924.1044
      1315.396        1024.984
 96 10 21 16 46 30.0000000  0 10 28 22 26 17  3  6  1 23  9 21       0.000655900
  -2632313.559 9  -2045035.190 9  20811128.362    20811126.908    20811130.951
     -1023.366        -797.428
   7750280.719 9   6029952.84846  25258597.735    25258595.6934   25258601.9834
     -2163.314       -1685.699
  10798256.254 9   8409069.00946  24500029.814    24500028.7304   24500033.2164
     -3202.907       -2495.772
   1720313.941 9   1341704.96548  21122857.470    21122855.6484   21122860.3254
     -1120.409        -873.046
 -14104951.289 9 -10966184.58248  22133558.470    22133557.0974   22133561.6284
      1940.452        1512.041
  16019585.407 8  12465337.41945  24536342.931    24536341.8254   24536348.3554
     -3804.679       -2964.685
 -14422835.985 9 -10966721.14647  23105801.532    23105800.1094   23105805.8764
      3482.020        2713.262
    190881.594 9    152363.02848  21043414.866    21043413.1054   21043417.4604
      -809.953        -631.132
  -5102817.151 9  -3967646.51246  24555732.182    24555730.8284   24555736.1604
      1881.964        1466.465
  -9593796.681 9  -7463887.21748  21487433.255    21487431.6364   21487436.3654
      1307.628        1018.931
 96 10 21 16 47  0.0000000  0 11 28 22 26 17  3  6  1 23  9 21 31    0.000654941
  -2601315.566 9  -2020880.933 9  20817027.127    20817025.649    20817029.683
     -1043.245        -812.918
   7815232.232 9   6080564.33246  25270957.555    25270955.4734   25270961.9914
     -2166.814       -1688.426
  10894451.811 9   8484026.53046  24518335.081    24518334.0994   24518338.6704
     -3210.265       -2501.505
   1754097.664 9   1368029.92848  21129286.271    21129284.4594   21129289.1884
     -1131.852        -881.963
 -14162919.309 9 -11011354.47148  22122527.564    22122526.1534   22122530.6614
      1923.816        1499.077
  16133749.590 8  12554296.44645  24558067.726    24558066.6164   24558073.2034
     -3806.405       -2966.030
 -14527197.388 9 -11048041.70347  23085942.186    23085940.7804   23085946.5324
      3475.356        2708.070
    215311.840 9    171399.57348  21048063.790    21048062.0044   21048066.3854
      -818.589        -637.861
  -5159126.947 9  -4011524.22846  24545016.691    24545015.3854   24545020.6934
      1872.027        1458.722
  -9632909.657 9  -7494364.85748  21479990.307    21479988.6704   21479993.3874
      1299.669        1012.729
  -2589755.76118  -1961379.67155  25279092.120    25279090.1545   25279095.0235
      3347.482        2608.428
 96 10 21 16 47 30.0000000  0 11 28 22 26 17  3  6  1 23  9 21 31    0.000653975
  -2569716.661 9  -1996258.428 9  20823040.224    20823038.741    20823042.769
     -1063.168        -828.442
   7880291.048 9   6131259.44046  25283337.773    25283335.7514   25283342.4394
     -2170.123       -1691.005
  10990875.370 9   8559161.71846  24536683.779    24536682.8484   24536687.4644
     -3217.837       -2507.405
   1788224.255 9   1394622.06348  21135780.330    21135778.5604   21135783.2964
     -1143.039        -890.680
 -14220371.717 9 -11056122.58048  22111594.686    22111593.2904   22111597.8214
      1906.550        1485.623
  16247982.114 8  12643308.72245  24579805.564    24579804.5354   24579810.9634
     -3809.032       -2968.077
 -14631357.652 9 -11129205.52647  23066121.171    23066119.7354   23066125.4514
      3468.803        2702.963
    240000.048 9    190637.12848  21052761.798    21052760.0124   21052764.4114
      -827.081        -644.479
  -5215133.620 9  -4055165.73346  24534358.930    24534357.5734   24534362.8684
      1862.169        1451.041
  -9671763.188 9  -7524640.33148  21472596.721    21472595.0884   21472599.8044
      1290.755        1005.783
  -2690062.987 9  -2039541.13645  25260004.210    25260002.3594   25260007.0084
      3339.742        2602.396
 96 10 21 16 48  0.0000000  0 11 28 22 26 17  3  6  1 23  9 21 31    0.000653007
  -2537523.274 9  -1971172.692 9  20829166.423    20829164.937    20829168.984
     -1083.028        -843.918
   7945439.192 9   6182024.16246  25295735.104    25295733.1624   25295739.8094
     -2172.992       -1693.241
  11087528.786 9   8634476.04146  24555076.418    24555075.4404   24555080.0374
     -3225.543       -2513.410
   1822682.780 9   1421472.84348  21142337.629    21142335.8244   21142340.5714
     -1154.270        -899.431
 -14277305.837 9 -11100486.82948  22100760.466    22100759.0654   22100763.6494
      1889.129        1472.049
  16362291.880 8  12732381.18445  24601557.937    24601557.0724   24601563.4644
     -3811.747       -2970.192
 -14735323.591 9 -11210217.92747  23046337.132    23046335.6244   23046341.3594
      3461.927        2697.605
    264935.524 9    210067.36148  21057506.852    21057505.0674   21057509.4644
      -835.031        -650.673
  -5270861.412 9  -4098589.93846  24523754.285    24523752.8074   24523758.1904
      1853.010        1443.904
  -9710348.012 9  -7554706.42248  21465254.262    21465252.6404   21465257.3554
      1281.591         998.642
  -2790146.155 9  -2117528.06945  25240959.126    25240957.3284   25240961.6944
      3332.456        2596.719
 96 10 21 16 48 30.0000000  0 11 28 22 26 17  3  6  1 23  9 21 31    0.000652041
  -2504738.871 9  -1945626.423 9  20835405.098    20835403.612    20835407.677
     -1102.579        -859.152
   8010659.550 9   6232845.19546  25308146.241    25308144.3024   25308150.8294
     -2174.971       -1694.783
  11184400.158 9   8709960.17046  24573510.431    24573509.4744   24573514.0724
     -3232.673       -2518.966
   1857484.583 9   1448591.11348  21148960.248    21148958.4344   21148963.1154
     -1165.880        -908.478
 -14333723.005 9 -11144448.26348  22090024.621    22090023.2184   22090027.8194
      1871.941        1458.655
  16476679.274 8  12821514.13945  24623325.157    24623324.2804   24623330.6234
     -3814.145       -2972.061
 -14839068.422 9 -11291058.03047  23026595.198    23026593.5894   23026599.3484
      3454.345        2691.697
    290086.269 9    229665.34248  21062292.875    21062291.1114   21062295.4884
      -841.676        -655.851
  -5326318.373 9  -4141803.11646  24513201.172    24513199.6294   24513205.0494
      1843.859        1436.773
  -9748661.734 9  -7584561.26548  21457963.369    21457961.7694   21457966.4714
      1272.637         991.665
  -2890013.319 8  -2195346.66145  25221955.034    25221953.2584   25221957.4214
      3325.221        2591.081
 96 10 21 16 49  0.0000000  0 11 28 22 26 17  3  6  1 23  9 21 31    0.000651087
  -2471368.459 9  -1919623.526 9  20841755.303    20841753.818    20841757.889
     -1121.808        -874.136
   8075930.832 9   6283705.90046  25320567.053    25320565.1204   25320571.5254
     -2176.093       -1695.657
  11281490.907 9   8785615.24246  24591986.300    24591985.2774   24591989.9334
     -3239.784       -2524.507
   1892639.627 9   1475984.63648  21155650.073    21155648.2474   21155652.8864
     -1177.350        -917.416
 -14389615.430 9 -11188000.81048  22079388.634    22079387.2454   22079391.8714
      1854.503        1445.067
  16591137.182 8  12910702.04245  24645105.831    24645104.7974   24645111.2724
     -3816.220       -2973.678
 -14942581.641 9 -11371717.66347  23006897.239    23006895.6604   23006901.3684
      3446.837        2685.847
    315441.656 9    249422.77748  21067117.890    21067116.1004   21067120.4724
      -848.318        -661.027
  -5381486.927 9  -4184791.55946  24502702.900    24502701.2884   24502706.8074
      1834.307        1429.330
  -9786704.773 9  -7614205.19048  21450724.033    21450722.4234   21450727.1394
      1263.916         984.870
  -2989662.225 8  -2272995.10145  25202992.153    25202990.3524   25202994.9044
      3318.116        2585.545
 96 10 21 16 49 30.0000000  0 11 28 22 26 17  3  6  1 23  9 21 31    0.000650146
  -2437413.138 9  -1893164.856 9  20848216.814    20848215.325    20848219.410
     -1141.626        -889.579
   8141241.134 9   6334596.99546  25332995.234    25332993.3474   25332999.5934
     -2177.557       -1696.798
  11378806.774 9   8861445.75046  24610504.868    24610503.9544   24610508.6344
     -3247.498       -2530.518
   1928143.468 9   1503649.94848  21162406.232    21162404.4024   21162409.0394
     -1189.232        -926.674
 -14444982.368 9 -11231143.88848  22068852.678    22068851.2774   22068855.9014
      1836.911        1431.359
  16705680.548 8  12999956.54345  24666902.706    24666901.7244   24666908.1484
     -3819.736       -2976.418
 -15045855.198 9 -11452190.53047  22987244.892    22987243.3674   22987249.0234
      3438.244        2679.151
    341011.383 9    269347.23148  21071983.691    21071981.8854   21071986.2324
      -856.011        -667.022
  -5436357.964 9  -4227548.20246  24492261.258    24492259.6704   24492265.1434
      1824.029        1421.321
  -9824480.557 9  -7643640.86248  21443535.540    21443533.9274   21443538.6524
      1254.888         977.835
  -3089084.443 9  -2350467.02745  25184072.922    25184071.1614   25184075.6734
      3310.282        2579.441
 96 10 21 16 50  0.0000000  0 11 28 22 26 17  3  6  1 23  9 21 31    0.000649215
  -2402873.812 9  -1866251.117 9  20854789.457    20854787.944    20854792.057
     -1161.131        -904.777
   8206585.693 9   6385514.78046  25345429.964    25345428.0374   25345434.2314
     -2178.787       -1697.756
  11476341.856 9   8937447.05746  24629065.155    24629064.2164   24629068.9234
     -3254.861       -2536.255
   1963991.050 9   1531583.11248  21169227.771    21169225.9854   21169230.6144
     -1200.821        -935.705
 -14499832.182 9 -11273884.00448  22058415.121    22058413.7174   22058418.3444
      1819.546        1417.828
  16820300.684 8  13089270.85446  24688714.249    24688713.3014   24688719.8104
     -3821.738       -2977.978
 -15148876.615 9 -11532466.93247  22967640.572    22967639.0294   22967644.6264
      3429.698        2672.492
    366790.890 9    289435.14848  21076889.345    21076887.5824   21076891.9234
      -862.767        -672.286
  -5490928.588 9  -4270070.71946  24481876.693    24481875.2244   24481880.6764
      1813.657        1413.239
  -9862002.739 9  -7672878.91848  21436395.316    21436393.6744   21436398.4164
      1246.403         971.223
  -3188284.759 8  -2427766.00645  25165195.668    25165194.0114   25165198.2494
      3302.857        2573.655
 96 10 21 16 50 30.0000000  0 11 28 22 26 17  3  6  1 23  9 21 31    0.000648300
  -2367751.879 9  -1838883.397 9  20861472.936    20861471.443    20861475.571
     -1179.464        -919.063
   8271957.315 9   6436453.64346  25357869.855    25357867.9564   25357874.1494
     -2178.570       -1697.587
  11574091.297 9   9013615.39446  24647666.347    24647665.3144   24647670.0254
     -3261.114       -2541.128
   2000183.756 9   1559785.19948  21176115.026    21176113.2444   21176117.8984
     -1211.101        -943.715
 -14554155.831 9 -11316214.13248  22048077.641    22048076.2884   22048080.8534
      1802.855        1404.822
  16934974.367 8  13178626.89846  24710535.963    24710535.0244   24710541.4144
     -3822.152       -2978.300
 -15251641.971 9 -11612543.79947  22948084.907    22948083.3734   22948088.9594
      3422.379        2666.789
    392773.356 9    309681.21448  21081833.654    21081831.8814   21081836.2214
      -868.761        -676.957
  -5545176.072 9  -4312341.46146  24471553.817    24471552.3674   24471557.6794
      1803.639        1405.433
  -9899272.707 9  -7701920.45248  21429303.076    21429301.4144   21429306.1734
      1239.104         965.536
  -3287253.340 8  -2504884.38745  25146362.441    25146361.0344   25146365.1284
      3295.688        2568.069
 96 10 21 16 51  0.0000000  0 11 28 22 26 17  3  6  1 23  9 21 31    0.000647402
  -2332046.246 9  -1811060.850 9  20868267.485    20868266.008    20868270.153
     -1200.213        -935.231
   8337361.036 9   6487417.52046  25370315.860    25370313.9334   25370320.2134
     -2181.124       -1699.577
  11672070.591 9   9089962.87046  24666311.420    24666310.2974   24666314.9404
     -3270.196       -2548.205
   2036708.229 9   1588245.81048  21183065.390    21183063.6194   21183068.2834
     -1223.070        -953.042
 -14607943.025 9 -11358126.23548  22037842.257    22037840.9144   22037845.4834
      1783.676        1389.877
  17049684.611 8  13268011.42746  24732364.708    24732363.7624   24732370.1304
     -3824.594       -2980.203
 -15354159.008 9 -11692427.17347  22928576.479    22928574.9904   22928580.5664
      3412.777        2659.307
    418982.140 9    330103.63348  21086821.042    21086819.2644   21086823.5984
      -877.767        -683.974
  -5599098.016 9  -4354358.55346  24461292.870    24461291.3604   24461296.6074
      1791.981        1396.349
  -9936284.223 9  -7730760.59048  21422259.989    21422258.3374   21422263.1134
      1229.014         957.673
  -3385973.280 9  -2581809.02445  25127576.857    25127575.4924   25127579.4934
      3286.308        2560.759
 96 10 21 16 51 30.0000000  0 11 28 22 26 17  3  6  1 23  9 21 31    0.000646518
  -2295759.833 9  -1782785.745 9  20875172.550    20875171.076    20875175.246
     -1219.130        -949.971
   8402806.170 9   6538413.67946  25382769.710    25382767.7274   25382774.0764
     -2182.212       -1700.425
  11770276.624 9   9166486.98746  24684999.385    24684998.2084   24685002.9784
     -3277.152       -2553.625
   2073542.720 9   1616947.98848  21190074.814    21190073.0004   21190077.6974
     -1232.903        -960.704
 -14661203.281 9 -11399627.73948  22027707.218    22027705.8534   22027710.3994
      1766.540        1376.525
  17164425.800 8  13357420.08046  24754199.413    24754198.4344   24754204.7284
     -3825.154       -2980.639
 -15456432.675 9 -11772120.90647  22909114.405    22909112.9364   22909118.4874
      3405.292        2653.474
    445413.337 9    350699.36548  21091850.761    21091848.9694   21091853.3084
      -884.566        -689.272
  -5652722.229 9  -4396143.63346  24451088.511    24451087.0294   24451092.2774
      1782.650        1389.078
  -9973043.417 9  -7759404.11148  21415264.944    21415263.2844   21415268.0624
      1221.288         951.653
  -3484453.621 8  -2658546.97445  25108836.701    25108835.1704   25108839.1544
      3278.767        2554.883
 96 10 21 16 52  0.0000000  0 11 28 22 26 17  3  6  1 23  9 21 31    0.000645637
  -2258897.902 9  -1754062.186 9  20882187.164    20882185.683    20882189.854
     -1238.303        -964.911
   8468297.073 9   6589445.49746  25395232.204    25395230.2534   25395236.7174
     -2183.834       -1701.689
  11868699.128 9   9243179.81046  24703728.547    24703727.4764   24703732.2474
     -3284.373       -2559.252
   2110685.371 9   1645890.29548  21197142.834    21197141.0174   21197145.7524
     -1243.448        -968.921
 -14713931.835 9 -11440714.92948  22017673.397    22017671.9974   22017676.5174
      1748.813        1362.711
  17279188.786 8  13446845.72146  24776038.226    24776037.1334   24776043.5374
     -3825.727       -2981.086
 -15558484.060 9 -11851641.42747  22889694.603    22889693.1914   22889698.7294
      3398.126        2647.890
    472056.341 9    371460.14048  21096920.718    21096918.9194   21096923.2724
      -891.799        -694.908
  -5706055.002 9  -4437701.63046  24440939.649    24440938.1314   24440943.3354
      1772.789        1381.394
 -10009558.873 9  -7787857.71648  21408316.261    21408314.6144   21408319.4214
      1213.125         945.292
  -3582699.279 8  -2735102.02145  25090140.608    25090139.2554   25090143.3944
      3270.922        2548.770
 96 10 21 16 52 30.0000000  0 11 28 22 26 17  3  6  1 23  9 21 31    0.000644745
  -2221462.799 9  -1724892.000 9  20889310.857    20889309.374    20889313.546
     -1257.335        -979.742
   8533843.855 9   6640520.84446  25407705.263    25407703.4014   25407709.9124
     -2185.851       -1703.261
  11967339.178 9   9320042.13646  24722499.104    24722498.0874   24722502.7924
     -3291.587       -2564.873
   2148146.786 9   1675080.99048  21204271.496    21204269.7174   21204274.4824
     -1253.843        -977.021
 -14766141.044 9 -11481397.43048  22007738.412    22007736.9764   22007741.4714
      1731.811        1349.463
  17393977.387 9  13536291.32546  24797881.930    24797880.7004   24797887.1774
     -3826.896       -2981.997
 -15660322.283 9 -11930995.85647  22870315.491    22870314.0114   22870319.5184
      3391.033        2642.363
    498924.953 9    392396.71348  21102033.597    21102031.8204   21102036.1944
      -899.368        -700.806
  -5759095.044 9  -4479031.52046  24430846.302    24430844.8354   24430850.0624
      1763.318        1374.014
 -10045839.732 9  -7816128.51448  21401412.238    21401410.5724   21401415.3884
      1205.627         939.450
  -3680710.974 9  -2811474.75745  25071489.805    25071488.4904   25071492.5354
      3263.293        2542.826
 96 10 21 16 53  0.0000000  0 11 28 22 26 17  3  6  1 23  9 21 31    0.000643835
  -2183454.811 9  -1695275.410 9  20896543.558    20896542.077    20896546.240
     -1276.705        -994.835
   8599456.827 9   6691647.80046  25420191.018    25420189.1254   25420195.5494
     -2188.398       -1705.245
  12066190.998 9   9397069.49146  24741309.969    24741308.9564   24741313.7014
     -3298.577       -2570.320
   2185916.876 9   1704512.21148  21211458.942    21211457.1094   21211461.9064
     -1264.398        -985.245
 -14817840.343 9 -11521682.60048  21997900.369    21997898.9534   21997903.4154
      1714.562        1336.022
  17508808.880 9  13625770.35446  24819733.756    24819732.4354   24819739.0534
     -3828.688       -2983.393
 -15761942.844 9 -12010180.68047  22850977.759    22850976.2654   22850981.7594
      3383.393        2636.410
    526017.548 9    413507.81648  21107189.118    21107187.3594   21107191.7344
      -906.866        -706.649
  -5811850.729 9  -4520139.84046  24420807.203    24420805.7284   24420810.9574
      1753.491        1366.357
 -10081891.306 9  -7844220.64348  21394551.790    21394550.1494   21394554.9764
      1197.623         933.213
  -3778500.473 8  -2887674.36545  25052881.093    25052879.7594   25052883.8754
      3255.817        2537.000
 96 10 21 16 53 30.0000000  0 11 28 22 26 17  3  6  1 23  9 21 31    0.000642907
  -2144874.885 9  -1665213.157 9  20903885.063    20903883.596    20903887.782
     -1295.376       -1009.384
   8665134.496 9   6742825.15246  25432689.108    25432687.0824   25432693.6694
     -2190.119       -1706.586
  12165235.334 9   9474246.85646  24760157.573    24760156.5024   24760161.3454
     -3304.310       -2574.787
   2224000.234 9   1734187.53148  21218705.978    21218704.1914   21218708.9564
     -1274.727        -993.294
 -14869032.501 9 -11561572.60148  21988158.847    21988157.4484   21988161.8784
      1697.922        1323.056
  17623686.501 9  13715285.32346  24841594.309    24841592.9394   24841599.4744
     -3829.829       -2984.282
 -15863340.153 9 -12089191.55047  22831682.494    22831680.9994   22831686.4394
      3376.263        2630.854
    553322.948 9    434784.75148  21112385.210    21112383.4184   21112387.8084
      -913.609        -711.903
  -5864310.520 9  -4561017.60746  24410824.352    24410822.9274   24410828.1514
      1743.579        1358.633
 -10117715.129 9  -7872135.30648  21387734.738    21387733.0974   21387737.8984
      1190.256         927.472
  -3876069.587 8  -2963702.24945  25034314.021    25034312.7224   25034316.9294
      3248.640        2531.408
 96 10 21 16 54  0.0000000  0 11 28 22 26 17  3  6  1 23  9 21 31    0.000641958
  -2105731.085 9  -1634711.519 9  20911333.912    20911332.430    20911336.618
     -1313.711       -1023.671
   8730857.822 9   6794038.06746  25445195.887    25445193.8984   25445200.4734
     -2190.923       -1707.213
  12264450.839 9   9551557.61446  24779037.741    24779036.6624   24779041.5114
     -3309.591       -2578.902
   2262405.654 9   1764113.81248  21226014.316    21226012.5094   21226017.2604
     -1285.078       -1001.359
 -14919716.523 9 -11601066.64948  21978514.014    21978512.5944   21978517.0024
      1681.399        1310.181
  17738595.578 9  13804824.80946  24863460.867    24863459.5864   24863466.0714
     -3830.150       -2984.532
 -15964512.761 9 -12168027.32847  22812429.996    22812428.4994   22812433.8954
      3368.908        2625.123
    580838.117 9    456225.13548  21117621.160    21117619.3764   21117623.7714
      -920.203        -717.041
  -5916455.092 9  -4601649.73046  24400901.530    24400900.1004   24400905.3794
      1733.373        1350.680
 -10153299.634 9  -7899863.49048  21380963.249    21380961.5964   21380966.4164
      1182.620         921.522
  -3973421.763 9  -3039561.12045  25015788.576    25015787.0684   25015791.2304
      3241.848        2526.115
 96 10 21 16 54 30.0000000  0 11 28 22 26 17  3  6  1 23  9 21 31    0.000640996
  -2066032.327 9  -1603777.450 9  20918888.357    20918886.879    20918891.081
     -1332.488       -1038.302
   8796604.362 9   6845269.09546  25457707.084    25457705.1644   25457711.7464
     -2191.668       -1707.793
  12363828.917 9   9628995.02146  24797948.903    24797947.7844   24797952.6104
     -3315.183       -2583.259
   2301117.783 9   1794279.08448  21233381.014    21233379.1844   21233383.8974
     -1295.241       -1009.279
 -14969891.156 9 -11640163.77248  21968966.054    21968964.6534   21968969.0744
      1663.618        1296.326
  17853520.514 9  13894376.62746  24885330.391    24885329.1634   24885335.5754
     -3830.926       -2985.137
 -16065449.209 9 -12246679.09447  22793222.440    22793220.9094   22793226.2894
      3360.559        2618.617
    608544.130 9    477814.22648  21122893.458    21122891.6584   21122896.0524
      -926.445        -721.905
  -5968293.812 9  -4642043.55546  24391037.002    24391035.5654   24391040.7724
      1722.904        1342.523
 -10188652.598 9  -7927411.25248  21374235.791    21374234.1574   21374238.9684
      1174.468         915.170
  -4070556.979 8  -3115250.92245  24997304.432    24997302.9044   24997307.1374
      3234.069        2520.054
 96 10 21 16 55  0.0000000  0 11 28 22 26 17  3  6  1 23  9 21 31    0.000640042
  -2025778.442 9  -1572410.810 9  20926548.427    20926546.947    20926551.179
     -1351.066       -1052.779
   8862354.789 9   6896503.15146  25470219.033    25470217.1134   25470223.8234
     -2191.627       -1707.761
  12463363.311 9   9706554.23846  24816889.665    24816888.5884   24816893.4224
     -3320.347       -2587.283
   2340130.433 9   1824678.53148  21240804.922    21240803.0564   21240807.7794
     -1305.694       -1017.424
 -15019522.275 9 -11678837.37248  21959521.551    21959520.1474   21959524.5494
      1645.166        1281.947
  17968451.927 8  13983933.50446  24907201.162    24907199.9124   24907206.3044
     -3830.983       -2985.182
 -16166140.013 9 -12325139.44547  22774061.634    22774060.0924   22774065.4214
      3352.160        2612.073
    636428.039 9    499541.94248  21128199.622    21128197.8194   21128202.2104
      -932.363        -726.517
  -6019817.892 9  -4682192.18046  24381232.268    24381230.8184   24381236.0914
      1712.099        1334.103
 -10223759.799 9  -7954767.50748  21367555.145    21367553.4954   21367558.2924
      1165.991         908.564
  -4167456.492 8  -3190756.97945  24978864.733    24978863.3754   24978867.8744
      3225.817        2513.624
 96 10 21 16 55 30.0000000  0 11 28 22 26 17  3  6  1 23  9 21 31    0.000639099
  -1984967.403 9  -1540610.022 9  20934314.499    20934313.046    20934317.288
     -1369.369       -1067.041
   8928091.569 9   6947726.57045  25482728.307    25482726.3854   25482733.3364
     -2190.711       -1707.048
  12563050.527 9   9784232.53446  24835859.463    24835858.4854   24835863.3804
     -3325.214       -2591.076
   2379465.725 9   1855329.39048  21248290.182    21248288.3384   21248293.0714
     -1316.436       -1025.794
 -15068599.724 9 -11717079.54148  21950182.441    21950181.0144   21950185.4314
      1626.946        1267.750
  18083374.227 8  14073483.29146  24929070.257    24929068.9494   24929075.2844
     -3830.306       -2984.654
 -16266576.797 9 -12403401.85947  22754949.139    22754947.6024   22754952.9024
      3343.938        2605.666
    664486.686 9    521405.82048  21133539.023    21133537.2244   21133541.5964
      -937.957        -730.875
  -6071019.973 9  -4722089.89946  24371488.762    24371487.3134   24371492.6664
      1701.729        1326.023
 -10258613.557 9  -7981926.27148  21360922.702    21360921.0534   21360925.8194
      1157.860         902.229
  -4264102.018 9  -3266065.19545  24960473.741    24960472.2604   24960476.9554
      3217.497        2507.140
 96 10 21 16 56  0.0000000  0 11 28 22 26 17  3  6  1 23  9 21 31    0.000638162
  -1943602.397 9  -1508377.571 9  20942186.003    20942184.547    20942188.807
     -1387.907       -1081.486
   8993807.488 9   6998933.72045  25495233.695    25495231.6954   25495238.6604
     -2190.071       -1706.549
  12662902.113 9   9862038.92046  24854860.569    24854859.5834   24854864.4994
     -3331.116       -2595.675
   2419130.146 9   1886236.70848  21255838.094    21255836.2574   21255840.9904
     -1327.424       -1034.356
 -15117127.702 9 -11754893.55748  21940947.869    21940946.4204   21940950.8814
      1608.696        1253.529
  18198282.865 9  14163022.42346  24950936.768    24950935.4054   24950941.7684
     -3829.744       -2984.216
 -16366762.572 9 -12481468.68947  22735884.389    22735882.8574   22735888.1614
      3335.482        2599.077
    692722.073 9    543407.41348  21138912.064    21138910.2554   21138914.6074
      -944.116        -735.675
  -6121909.325 9  -4761743.96146  24361804.760    24361803.3564   24361808.7294
      1691.348        1317.934
 -10293223.782 9  -8008895.27148  21354336.568    21354334.9364   21354339.7154
      1150.157         896.226
  -4360494.480 8  -3341176.25545  24942131.053    24942129.6814   24942134.0994
      3208.886        2500.431
 96 10 21 16 56 30.0000000  0 11 28 22 26 17  3  6  1 23  9 21 31    0.000637224
  -1901687.016 9  -1475716.258 9  20950162.230    20950160.780    20950165.063
     -1406.060       -1095.631
   9059503.339 9   7050125.24745  25507735.249    25507733.2024   25507740.1354
     -2189.372       -1706.004
  12762928.886 9   9939981.80946  24873895.119    24873894.0324   24873898.9494
     -3336.891       -2600.175
   2459119.860 9   1917397.49948  21263447.934    21263446.0924   21263450.8294
     -1338.178       -1042.736
 -15165114.981 9 -11792286.24348  21931816.212    21931814.7534   21931819.2294
      1590.893        1239.657
  18313168.867 8  14252543.92546  24972798.906    24972797.4934   24972803.9404
     -3828.801       -2983.481
 -16466702.013 9 -12559343.56847  22716866.506    22716864.9734   22716870.3274
      3327.469        2592.833
    721141.185 9    565552.16948  21144320.059    21144318.2374   21144322.5904
      -950.216        -740.428
  -6172494.778 9  -4801161.19746  24352178.697    24352177.2784   24352182.6494
      1681.206        1310.031
 -10327620.086 9  -8035697.57848  21347791.159    21347789.5414   21347794.3114
      1143.095         890.723
  -4456622.202 9  -3416080.89145  24923838.440    24923836.8224   24923841.7244
      3199.962        2493.477
 96 10 21 16 57  0.0000000  0 11 28 22 26 17  3  6  1 23  9 21 31    0.000636273
  -1859223.120 9  -1442627.533 9  20958242.850    20958241.387    20958245.679
     -1424.356       -1109.888
   9125189.450 9   7101309.18445  25520234.998    25520232.8814   25520239.7604
     -2189.263       -1705.919
  12863131.821 9  10018061.97046  24892963.228    24892962.0864   24892967.0164
     -3342.800       -2604.779
   2499438.959 9   1948814.95748  21271120.421    21271118.5734   21271123.3474
     -1349.250       -1051.364
 -15212581.043 9 -11829272.78948  21922783.703    21922782.2534   21922786.8054
      1574.053        1226.535
  18428023.358 8  14342040.85446  24994654.984    24994653.6804   24994660.0764
     -3827.729       -2982.646
 -16566393.231 9 -12637025.02447  22697895.886    22697894.3194   22697899.7504
      3319.075        2586.292
    749755.747 9    587849.22448  21149765.259    21149763.4424   21149767.7554
      -956.912        -745.646
  -6222767.183 9  -4840334.50446  24342612.164    24342610.7024   24342616.1294
      1670.960        1302.047
 -10361797.540 9  -8062329.35548  21341287.426    21341285.7754   21341290.5524
      1135.888         885.108
  -4552480.867 8  -3490775.97845  24905597.319    24905595.7304   24905600.5844
      3191.134        2486.598
 96 10 21 16 57 30.0000000  0 11 28 22 26 17  3  6  1 23  9 21 31    0.000635296
  -1816211.017 9  -1409111.632 9  20966427.795    20966426.306    20966430.617
     -1443.036       -1124.444
   9190877.520 9   7152494.65145  25532735.067    25532733.0564   25532739.8824
     -2190.047       -1706.530
  12963519.212 9  10096285.86646  24912066.330    24912065.2444   24912070.2064
     -3349.638       -2610.108
   2540083.496 9   1980486.00048  21278854.850    21278852.9924   21278857.7834
     -1360.279       -1059.958
 -15259545.906 9 -11865868.79548  21913846.577    21913845.1384   21913849.6604
      1556.904        1213.172
  18542848.481 9  14431514.90946  25016505.526    25016504.1904   25016510.6204
     -3827.319       -2982.326
 -16665833.030 9 -12714510.57247  22678973.074    22678971.5144   22678976.9354
      3310.394        2579.528
    778579.306 9    610309.13248  21155250.214    21155248.3994   21155252.6834
      -964.768        -751.767
  -6272734.927 9  -4879270.41846  24333103.651    24333102.1204   24333107.5544
      1660.227        1293.683
 -10395767.198 9  -8088799.20448  21334823.218    21334821.5694   21334826.3364
      1128.935         879.690
  -4648079.612 8  -3565268.54745  24887405.532    24887403.9834   24887408.4904
      3182.113        2479.569
 96 10 21 16 58  0.0000000  0 11 28 22 26 17  3  6  1 23  9 21 31    0.000634288
  -1772655.085 9  -1375171.968 9  20974716.182    20974714.726    20974719.062
     -1460.867       -1138.338
   9256583.410 9   7203693.99945  25545238.570    25545236.5714   25545243.2884
     -2190.302       -1706.729
  13064095.605 9  10174657.03846  24931205.400    24931204.3684   24931209.2624
     -3355.361       -2614.567
   2581036.790 9   2012397.63448  21286648.034    21286646.1654   21286650.9614
     -1369.954       -1067.497
 -15306010.638 9 -11902075.08948  21905004.699    21905003.2224   21905007.7394
      1540.492        1200.383
  18657644.830 8  14520966.53246  25038350.628    25038349.2474   25038355.6934
     -3825.838       -2981.172
 -16765030.330 9 -12791807.15447  22660096.385    22660094.8414   22660100.3194
      3302.565        2573.427
    807633.117 9    632948.46048  21160778.990    21160777.1564   21160781.4304
      -972.223        -757.576
  -6322389.678 9  -4917962.42846  24323654.669    24323653.1804   24323658.5654
      1649.858        1285.604
 -10429547.463 9  -8115121.48448  21328395.034    21328393.3864   21328398.1534
      1122.755         874.874
  -4743424.965 8  -3639563.58945  24869261.574    24869259.9844   24869264.9844
      3173.942        2473.202
 96 10 21 16 58 30.0000000  0 11 28 22 26 17  3  6  1 23  9 21 31    0.000633257
  -1728557.847 9  -1340810.508 9  20983107.620    20983106.156    20983110.501
     -1478.428       -1152.022
   9322300.500 8   7254902.05545  25557744.070    25557742.0674   25557748.7764
     -2190.002       -1706.495
  13164844.114 9  10253162.31046  24950377.261    24950376.1834   24950381.0924
     -3360.548       -2618.609
   2622283.547 9   2044537.93848  21294497.062    21294495.2204   21294499.9864
     -1379.219       -1074.716
 -15351961.888 9 -11937881.26248  21896260.501    21896259.0064   21896263.5204
      1523.507        1187.148
  18772410.224 8  14610394.03446  25060189.833    25060188.4534   25060194.9424
     -3824.709       -2980.293
 -16863981.792 9 -12868912.17547  22641266.514    22641264.9884   22641270.5024
      3294.696        2567.296
    836907.909 9    655759.98548  21166349.809    21166347.9704   21166352.2444
      -978.658        -762.591
  -6371721.140 9  -4956402.50846  24314267.281    24314265.7774   24314271.0454
      1639.402        1277.456
 -10463121.706 9  -8141283.23048  21322006.072    21322004.4334   21322009.1854
      1115.982         869.596
  -4838510.950 9  -3713656.55646  24851167.661    24851166.1044   24851171.0024
      3165.774        2466.837
 96 10 21 16 59  0.0000000  0 11 28 22 26 17  3  6  1 23  9 21 31    0.000632212
  -1683918.387 9  -1306026.536 9  20991602.228    20991600.773    20991605.114
     -1496.995       -1166.490
   9388020.341 9   7306112.26445  25570250.117    25570248.2164   25570254.8544
     -2190.582       -1706.947
  13265753.705 8  10331793.13646  24969579.771    24969578.7384   24969583.5724
     -3366.144       -2622.969
   2663821.660 9   2076905.27248  21302401.549    21302399.7134   21302404.4364
     -1389.534       -1082.754
 -15397386.991 9 -11973277.45348  21887616.361    21887614.8874   21887619.3944
      1505.236        1172.911
  18887159.310 9  14699808.82146  25082025.943    25082024.4614   25082030.9954
     -3824.834       -2980.390
 -16962683.472 9 -12945822.55347  22622484.174    22622482.6594   22622488.1784
      3286.039        2560.550
    866382.809 9    678727.42948  21171958.695    21171956.8514   21171961.1154
      -985.740        -768.109
  -6420727.680 9  -4994589.41446  24304941.661    24304940.1744   24304945.4004
      1628.305        1268.809
 -10496470.613 9  -8167269.38448  21315659.965    21315658.3344   21315663.0824
      1107.911         863.307
  -4933349.305 8  -3787556.58945  24833120.525    24833118.8494   24833123.8954
      3157.323        2460.252
 96 10 21 16 59 30.0000000  0 10 28 26 17  3  6  1 23  9 21 31       0.000631157
  -1638735.257 9  -1270818.926 9  21000200.273    21000198.839    21000203.193
     -1514.890       -1180.434
  13366818.022 9  10410544.46846  24988811.546    24988810.5774   24988815.5154
     -3370.932       -2626.700
   2705666.604 9   2109511.69448  21310364.438    21310362.5904   21310367.2804
     -1399.834       -1090.780
 -15442260.362 9 -12008243.72648  21879077.162    21879075.7614   21879080.2704
      1486.735        1158.495
  19001904.346 8  14789220.47546  25103861.236    25103859.8174   25103866.4054
     -3824.529       -2980.152
 -17061138.807 9 -13022540.97347  22603748.763    22603747.2204   22603752.7414
      3277.953        2554.249
    896055.520 9    701849.01348  21177605.251    21177603.3894   21177607.6614
      -991.989        -772.978
  -6469410.552 9  -5032524.09046  24295677.621    24295676.1704   24295681.3464
      1617.517        1260.403
 -10529592.381 9  -8193078.55248  21309357.119    21309355.4794   21309360.2124
      1100.462         857.503
  -5027945.147 9  -3861267.66145  24815119.436    24815117.7694   24815122.5574
      3149.145        2453.879
 96 10 21 17  0  0.0000000  0 10 28 26 17  3  6  1 23  9 21 31       0.000630098
  -1593015.214 9  -1235192.941 9  21008900.527    21008899.101    21008903.444
     -1533.333       -1194.805
  13468010.113 8  10489395.40946  25008067.840    25008066.8744   25008071.7904
     -3375.447       -2630.218
   2747826.997 9   2142363.92748  21318387.360    21318385.4754   21318390.1694
     -1411.041       -1099.512
 -15486575.385 9 -12042774.92048  21870644.351    21870642.8994   21870647.4324
      1467.469        1143.482
  19116642.561 9  14878626.79546  25125695.171    25125693.8334   25125700.4694
     -3824.790       -2980.356
 -17159339.889 9 -13099061.27547  22585061.748    22585060.1654   22585065.6654
      3268.570        2546.938
    925896.961 9    725102.07848  21183283.876    21183282.0244   21183286.2994
      -997.535        -777.300
  -6517765.274 9  -5070203.07346  24286475.977    24286474.5804   24286479.7974
      1606.029        1251.451
 -10562470.449 9  -8218697.82348  21303100.644    21303099.0094   21303103.7174
      1091.123         850.226
  -5122290.389 9  -3934783.42245  24797166.366    24797164.7094   24797169.5394
      3140.103        2446.834
 96 10 21 17  0 30.0000000  0 10 28 26 17  3  6  1 23  9 21 31       0.000629046
  -1546756.485 9  -1199147.202 9  21017703.283    21017701.870    21017706.213
     -1550.954       -1208.535
  13569329.069 9  10568345.18346  25027348.315    25027347.3044   25027352.2164
     -3379.480       -2633.361
   2790317.052 9   2175473.03248  21326472.993    21326471.1134   21326475.7974
     -1422.084       -1108.117
 -15530322.091 9 -12076863.27248  21862319.621    21862318.1794   21862322.7274
      1448.735        1128.884
  19231378.104 8  14968031.04746  25147528.623    25147527.2444   25147534.0374
     -3824.469       -2980.106
 -17257272.366 9 -13175372.26647  22566425.782    22566424.2194   22566429.6984
      3259.995        2540.256
    955882.352 9    748467.30948  21188989.887    21188988.0524   21188992.3414
     -1001.879        -780.685
  -6565791.007 9  -5107625.68146  24277336.913    24277335.5924   24277340.9064
      1595.236        1243.041
 -10595086.126 9  -8244112.63948  21296894.055    21296892.4494   21296897.1334
      1083.098         843.972
  -5216369.076 9  -4008091.46445  24779263.716    24779262.1404   24779266.9294
      3131.575        2440.188
 96 10 21 17  1  0.0000000  0 10 28 26 17  3  6  1 23  9 21 31       0.000628068
  -1499961.984 9  -1162683.974 9  21026607.999    21026606.574    21026610.948
     -1569.047       -1222.634
  13670770.292 9  10647390.23746  25046652.097    25046650.8994   25046655.8194
     -3383.594       -2636.567
   2833154.141 9   2208852.55848  21334624.676    21334622.7754   21334627.4734
     -1434.081       -1117.466
 -15573504.646 9 -12110512.02448  21854102.230    21854100.8214   21854105.4074
      1429.670        1114.029
  19346102.950 8  15057426.95645  25169360.079    25169358.7794   25169365.5104
     -3824.048       -2979.778
 -17354940.953 9 -13251477.62247  22547840.054    22547838.4784   22547843.9824
      3250.853        2533.132
    986013.044 9    771945.76448  21194723.546    21194721.7324   21194726.0384
     -1007.418        -785.001
  -6613485.678 9  -5144790.34446  24268260.889    24268259.5034   24268264.9474
      1583.888        1234.198
 -10627459.131 9  -8269338.35348  21290733.694    21290732.0714   21290736.7574
      1074.723         837.446
  -5310184.084 9  -4081194.09845  24761411.281    24761409.8004   24761414.4384
      3122.385        2433.027
 96 10 21 17  1 30.0000000  0 10 28 26 17  3  6  1 23  9 21 31       0.000627023
  -1452634.110 9  -1125805.137 9  21035614.219    21035612.788    21035617.180
     -1586.492       -1236.227
  13772332.941 9  10726529.89646  25065978.893    25065977.6454   25065982.6744
     -3387.511       -2639.619
   2876338.464 9   2242502.65248  21342842.376    21342840.4974   21342845.2264
     -1445.069       -1126.028
 -15616129.448 9 -12143726.16948  21845990.977    21845989.5864   21845994.1874
      1411.781        1100.089
  19460804.052 8  15146804.38545  25191187.070    25191185.7334   25191192.3774
     -3823.043       -2978.995
 -17452335.771 9 -13327369.65647  22529306.391    22529304.8104   22529310.3264
      3241.851        2526.118
   1016302.308 9    795547.77748  21200487.413    21200485.5904   21200489.8924
     -1012.244        -788.762
  -6660836.247 9  -5181686.85346  24259250.239    24259248.8684   24259254.4184
      1572.489        1225.316
 -10659596.640 9  -8294380.57048  21284618.110    21284616.4914   21284621.1814
      1067.383         831.727
  -5403731.768 9  -4154088.37045  24743609.756    24743608.2924   24743612.9884
      3113.664        2426.232
 96 10 21 17  2  0.0000000  0 10 28 26 17  3  6  1 23  9 21 31       0.000625971
  -1404776.532 9  -1088513.540 9  21044721.250    21044719.819    21044724.197
     -1604.302       -1250.105
  13874026.682 9  10805771.72546  25085330.525    25085329.4914   25085334.3614
     -3392.459       -2643.475
   2919850.177 9   2276407.85648  21351122.335    21351120.4894   21351125.2634
     -1455.998       -1134.544
 -15658218.241 9 -12176522.64548  21837981.745    21837980.3314   21837984.9574
      1393.939        1086.186
  19575479.048 8  15236161.47945  25213009.073    25213007.8774   25213014.3414
     -3822.038       -2978.211
 -17549463.652 9 -13403053.67547  22510823.578    22510821.9764   22510827.5224
      3233.224        2519.395
   1046747.267 9    819271.11148  21206280.917    21206279.0984   21206283.3694
     -1017.799        -793.090
  -6707836.521 9  -5218310.39546  24250306.375    24250305.0244   24250310.5744
      1560.531        1215.998
 -10691503.967 9  -8319243.42548  21278546.319    21278544.7174   21278549.4314
      1059.724         825.759
  -5497005.218 9  -4226768.98846  24725860.545    24725859.0724   24725863.6494
      3104.419        2419.028
 96 10 21 17  2 30.0000000  0 10 28 26 17  3  6  1 23  9 21 31       0.000624906
  -1356387.789 9  -1050808.045 9  21053929.355    21053927.924    21053932.299
     -1622.051       -1263.936
  13975874.313 9  10885133.44546  25104711.490    25104710.4284   25104715.3774
     -3397.624       -2647.499
   2963689.417 9   2310568.27748  21359464.682    21359462.8384   21359467.6034
     -1467.000       -1143.117
 -15699770.186 9 -12208900.79248  21830074.759    21830073.3284   21830077.8944
      1375.894        1072.125
  19690121.288 8  15325493.06745  25234824.816    25234823.5334   25234829.9884
     -3821.181       -2977.544
 -17646340.137 9 -13478541.80747  22492388.567    22492386.9684   22492392.4984
      3224.769        2512.807
   1077373.812 9    843135.94148  21212108.963    21212107.1514   21212111.4444
     -1024.403        -798.236
  -6754474.178 9  -5254651.38746  24241431.562    24241430.1064   24241435.7314
      1548.276        1206.449
 -10723201.117 9  -8343942.49548  21272514.573    21272512.9474   21272517.6554
      1053.056         820.563
  -5590014.474 9  -4299243.73545  24708161.573    24708160.0354   24708164.4824
      3095.874        2412.369
 96 10 21 17  3  0.0000000  0  9 28 26 17  3  1 23  9 21 31          0.000623810
  -1307473.961 9  -1012693.395 9  21063237.364    21063235.926    21063240.304
     -1638.997       -1277.140
  14077871.474 9  10964611.67246  25124120.931    25124119.8124   25124124.8884
     -3402.282       -2651.129
   3007840.006 9   2344971.30748  21367866.304    21367864.4454   21367869.1824
     -1476.412       -1150.451
 -15740796.617 9 -12240869.45548  21822267.705    21822266.2734   21822270.8024
      1359.089        1059.030
 -17742962.801 9 -13553832.15147  22474001.813    22474000.2874   22474005.7874
      3216.553        2506.405
   1108197.546 9    867154.41948  21217974.541    21217972.7234   21217977.0154
     -1030.574        -803.045
  -6800757.833 9  -5290716.52146  24232624.139    24232622.6434   24232628.1564
      1537.231        1197.842
 -10754698.695 9  -8368486.06548  21266520.795    21266519.1704   21266523.8674
      1046.623         815.550
  -5682777.650 9  -4371526.70245  24690509.240    24690507.6194   24690512.2234
      3088.010        2406.242
 96 10 21 17  3 30.0000000  0  9 28 26 17  3  1 23  9 21 31          0.000622688
  -1258033.928 9   -974168.716 9  21072645.508    21072644.078    21072648.466
     -1657.119       -1291.262
  14180029.152 9  11044215.04946  25143560.892    25143559.8864   25143564.8744
     -3408.242       -2655.773
   3052284.266 9   2379603.17448  21376323.836    21376321.9554   21376326.6424
     -1486.719       -1158.482
 -15781297.232 9 -12272428.38648  21814560.660    21814559.2484   21814563.7824
      1340.823        1044.797
 -17839318.521 9 -13628914.49748  22455665.943    22455664.4334   22455669.9114
      3207.051        2499.001
   1139216.772 9    891325.22848  21223877.308    21223875.4714   21223879.7564
     -1037.389        -808.355
  -6846690.764 9  -5326508.38846  24223883.365    24223881.8784   24223887.3224
      1524.979        1188.295
 -10785988.232 9  -8392867.51948  21260566.601    21260564.9504   21260569.6684
      1039.256         809.810
  -5775284.865 9  -4443610.22446  24672905.665    24672904.1674   24672908.6954
      3078.682        2398.973
 96 10 21 17  4  0.0000000  0  9 28 26 17  3  1 23  9 21 31          0.000621545
  -1208069.778 9   -935235.635 9  21082153.447    21082151.976    21082156.351
     -1674.055       -1304.458
  14282336.619 9  11123935.04546  25163029.514    25163028.3614   25163033.4764
     -3412.359       -2658.981
   3097029.720 9   2414469.74048  21384838.617    21384836.7514   21384841.4084
     -1496.578       -1166.165
 -15821257.110 9 -12303565.96448  21806956.496    21806955.0994   21806959.6684
      1322.803        1030.755
 -17935408.283 9 -13703789.60348  22437380.687    22437379.1564   22437384.6294
      3198.486        2492.327
   1170420.945 9    915640.15548  21229815.261    21229813.4454   21229817.7124
     -1043.107        -812.811
  -6892279.305 9  -5362031.89646  24215208.174    24215206.7624   24215212.1794
      1513.882        1179.648
 -10817071.975 9  -8417088.61348  21254651.549    21254649.9254   21254654.6154
      1032.811         804.788
  -5867519.283 9  -4515481.22145  24655354.222    24655352.7214   24655357.1854
      3070.063        2392.257
 96 10 21 17  4 30.0000000  0  9 28 26 17  3  1 23  9 21 31          0.000620389
  -1157583.255 9   -895895.510 9  21091760.720    21091759.264    21091763.620
     -1691.664       -1318.180
  14384771.239 9  11203754.17046  25182522.299    25182521.0474   25182526.2614
     -3416.502       -2662.209
   3142085.256 9   2449577.93448  21393412.405    21393410.5234   21393415.2224
     -1506.901       -1174.208
 -15860654.601 9 -12334265.31548  21799459.347    21799457.9764   21799462.5654
      1303.785        1015.936
 -18031208.591 9 -13778439.16048  22419150.488    22419148.9594   22419154.4514
      3188.251        2484.351
   1201811.897 9    940100.62548  21235788.798    21235786.9724   21235791.2194
     -1049.394        -817.710
  -6937520.502 9  -5397284.76046  24206599.041    24206597.6654   24206603.0054
      1502.389        1170.693
 -10847949.009 9  -8441148.63748  21248775.863    21248774.2184   21248778.9024
      1025.493         799.085
  -5959484.724 9  -4587142.53846  24637853.492    24637852.0194   24637856.7954
      3060.743        2384.995
 96 10 21 17  5  0.0000000  0  9 28 26 17  3  1 23  9 21 31          0.000619225
  -1106574.862 9   -856148.729 9  21101467.310    21101465.862    21101470.197
     -1709.228       -1331.866
  14487314.506 9  11283657.97946  25202035.656    25202034.4244   25202039.6304
     -3419.919       -2664.872
   3187439.909 9   2484919.20648  21402043.110    21402041.2624   21402045.9594
     -1517.113       -1182.166
 -15899490.247 9 -12364526.87348  21792069.187    21792067.8184   21792072.4114
      1284.793        1001.137
 -18126704.269 9 -13852851.35048  22400978.278    22400976.7344   22400982.2074
      3177.785        2476.196
   1233369.583 9    964691.01748  21241794.016    21241792.1974   21241796.4354
     -1054.708        -821.850
  -6982423.649 9  -5432274.20046  24198054.276    24198052.8364   24198058.1704
      1490.802        1161.664
 -10878598.338 9  -8465031.22848  21242943.499    21242941.8424   21242946.5614
      1017.504         792.860
  -6051166.315 9  -4658582.74746  24620407.204    24620405.7244   24620410.4354
      3050.789        2377.238
 96 10 21 17  5 30.0000000  0  9 28 26 17  3  1 23  9 21 31          0.000618067
  -1055047.691 9   -815997.708 9  21111272.663    21111271.194    21111275.512
     -1726.106       -1345.018
  14589947.492 9  11363631.64346  25221566.087    25221564.8934   25221570.1154
     -3422.454       -2666.847
   3233102.133 9   2520500.14148  21410732.337    21410730.4914   21410735.2374
     -1527.300       -1190.104
 -15937751.846 9 -12394341.11548  21784788.289    21784786.9094   21784791.4754
      1265.891         986.409
 -18221894.547 9 -13927025.56548  22382864.142    22382862.6084   22382868.0854
      3168.026        2468.592
   1265072.200 9    989394.34148  21247826.801    21247824.9934   21247829.2314
     -1059.122        -825.290
  -7026978.018 9  -5466991.88546  24189575.833    24189574.3824   24189579.6424
      1479.377        1152.761
 -10909018.907 9  -8488735.56648  21237154.669    21237153.0244   21237157.7214
      1010.338         787.276
  -6142547.302 9  -4729788.69045  24603017.975    24603016.3224   24603021.3114
      3041.087        2369.678
 96 10 21 17  6  0.0000000  0  9 28 26 17  3  1 23  9 21 31          0.000616909
  -1003005.868 9   -775445.664 9  21121175.920    21121174.457    21121178.773
     -1743.323       -1358.434
  14692666.620 9  11443672.47546  25241112.927    25241111.7244   25241116.9544
     -3425.567       -2669.273
   3279086.402 9   2556332.01748  21419482.828    21419481.0104   21419485.7794
     -1538.110       -1198.527
 -15975436.398 9 -12423705.71348  21777617.168    21777615.7744   21777620.3374
      1246.582         971.363
 -18316784.714 9 -14000965.93248  22364807.082    22364805.5834   22364811.0504
      3158.039        2460.810
   1296932.131 9   1014220.24648  21253889.550    21253887.7414   21253892.0134
     -1064.821        -829.731
  -7071174.133 9  -5501430.41646  24181165.544    24181164.0334   24181169.3684
      1467.041        1143.149
 -10939209.745 9  -8512260.89448  21231409.576    21231407.8954   21231412.6294
      1002.447         781.128
  -6233634.850 9  -4800766.01246  24585684.402    24585682.7884   24585687.7564
      3031.357        2362.096
 96 10 21 17  6 30.0000000  0  9 28 26 17  3  1 23  9 21 31          0.000615745
   -950449.326 9   -734492.539 9  21131177.139    21131175.671    21131179.965
     -1760.654       -1371.938
  14795485.973 9  11523791.41246  25260678.804    25260677.6484   25260682.9124
     -3429.217       -2672.117
   3325382.120 9   2592406.58448  21428292.637    21428290.7994   21428295.5874
     -1548.495       -1206.619
 -16012552.228 9 -12452627.13948  21770554.269    21770552.8684   21770557.4444
      1227.663         956.620
 -18411376.970 9 -14074674.15948  22346806.752    22346805.2574   22346810.7444
      3148.031        2453.011
   1328959.450 9   1039176.58348  21259984.166    21259982.3434   21259986.6724
     -1070.504        -834.159
  -7115000.501 9  -5535580.83246  24172825.505    24172824.0604   24172829.4444
      1454.488        1133.367
 -10969166.890 9  -8535604.12448  21225708.921    21225707.2454   21225712.0064
       994.444         774.891
  -6324430.206 9  -4871515.64446  24568406.767    24568405.0834   24568409.9414
      3021.175        2354.162
 96 10 21 17  7  0.0000000  0  9 28 26 17  3  1 23  9 21 31          0.000614567
   -897390.060 9   -693147.679 9  21141274.025    21141272.554    21141276.828
     -1777.185       -1384.819
  14898395.537 9  11603980.61746  25280261.963    25280260.8124   25280266.0004
     -3432.173       -2674.421
   3371984.030 9   2628719.73748  21437160.684    21437158.8654   21437163.6734
     -1558.972       -1214.783
 -16049123.000 9 -12481123.85648  21763595.093    21763593.6934   21763598.2624
      1209.742         942.656
 -18505693.372 9 -14148167.43748  22328858.975    22328857.4474   22328862.8784
      3139.122        2446.069
   1361138.394 9   1064251.07348  21266107.621    21266105.8134   21266110.1404
     -1075.485        -838.040
  -7158460.138 9  -5569445.48046  24164555.412    24164553.9994   24164559.3294
      1442.150        1123.753
 -10998897.814 9  -8558771.07348  21220051.307    21220049.6394   21220054.4104
       987.296         769.322
  -6414927.164 9  -4942032.75746  24551185.902    24551184.1784   24551189.0294
      3011.359        2346.514
 96 10 21 17  7 30.0000000  0  9 28 26 17  3  1 23  9 21 31          0.000613380
   -843823.487 9   -651407.515 9  21151467.455    21151465.976    21151470.227
     -1793.661       -1397.658
  15001423.234 9  11684261.85446  25299867.489    25299866.4214   25299871.5964
     -3436.096       -2677.477
   3418916.720 9   2665290.64148  21446091.722    21446089.8904   21446094.7164
     -1569.651       -1223.105
 -16085143.905 9 -12509192.10048  21756740.567    21756739.1434   21756743.7004
      1192.090         928.901
 -18599733.295 9 -14221445.28848  22310963.787    22310962.2294   22310967.6424
      3130.537        2439.379
   1393494.173 9   1089463.35348  21272264.773    21272262.9394   21272267.2494
     -1081.342        -842.604
  -7201526.238 9  -5603003.46446  24156360.184    24156358.8064   24156364.1654
      1429.356        1113.784
 -11028415.739 9  -8581772.05348  21214434.270    21214432.5984   21214437.3464
       980.794         764.255
  -6505119.174 9  -5012312.23846  24534022.719    24534021.0674   24534025.9924
      3001.713        2338.997
 96 10 21 17  8  0.0000000  0  9 28 26 17  3  1 23  9 21 31          0.000612171
   -789755.981 9   -609277.012 9  21161756.209    21161754.711    21161758.952
     -1811.303       -1411.405
  15104574.607 9  11764639.52546  25319496.623    25319495.4504   25319500.6104
     -3440.987       -2681.289
   3466175.950 9   2702115.99548  21455084.905    21455083.0524   21455087.8924
     -1581.317       -1232.195
 -16120638.694 9 -12536850.38448  21749986.117    21749984.7054   21749989.2684
      1173.784         914.637
 -18693510.156 9 -14294518.15148  22293118.673    22293117.1054   22293122.4354
      3120.688        2431.705
   1426038.944 9   1114822.90548  21278457.872    21278456.0524   21278460.3224
     -1088.502        -848.183
  -7244199.106 9  -5636255.05646  24148239.788    24148238.4474   24148243.7154
      1415.164        1102.725
 -11057733.918 9  -8604617.38548  21208855.204    21208853.5264   21208858.2364
       973.331         758.440
  -6595014.828 9  -5082360.83346  24516916.200    24516914.5464   24516919.2994
      2990.625        2330.357
 96 10 21 17  8 30.0000000  0  9 28 26 17  3  1 23  9 21 31          0.000610953
   -735183.914 9   -566753.348 9  21172140.961    21172139.462    21172143.695
     -1827.146       -1423.750
  15207843.411 9  11845108.65846  25339148.086    25339146.8914   25339152.0574
     -3443.850       -2683.519
   3513764.464 9   2739197.92848  21464140.710    21464138.8354   21464143.7104
     -1591.581       -1240.193
 -16155609.652 9 -12564100.49048  21743331.373    21743329.9564   21743334.5234
      1157.195         901.710
 -18787004.070 9 -14367370.54348  22275327.379    22275325.8064   22275331.1014
      3111.918        2424.871
   1458756.989 9   1140317.47448  21284683.938    21284682.1004   21284686.3874
     -1093.073        -851.745
  -7286480.746 9  -5669201.76546  24140193.923    24140192.5304   24140197.7704
      1403.293        1093.475
 -11086851.579 9  -8627306.46948  21203314.256    21203312.6054   21203317.3094
       967.538         753.926
  -6684591.365 9  -5152160.69846  24499870.375    24499868.5814   24499873.4994
      2980.814        2322.712
 96 10 21 17  9  0.0000000  0  9 28 26 17  3  1 23  9 21 31          0.000609727
   -680104.941 9   -523834.689 9  21182622.144    21182620.653    21182624.891
     -1844.409       -1437.202
  15311236.898 9  11925674.95146  25358823.216    25358822.0484   25358827.2014
     -3448.782       -2687.363
   3561697.924 9   2776548.65248  21473262.123    21473260.2694   21473265.1834
     -1603.546       -1249.516
 -16190046.112 9 -12590934.10148  21736778.320    21736776.9284   21736781.4994
      1138.759         887.345
 -18880200.305 9 -14439990.96848  22257592.730    22257591.1484   22257596.3894
      3101.414        2416.686
   1491648.245 9   1165947.01448  21290942.946    21290941.0894   21290945.3794
     -1099.249        -856.558
  -7328375.451 9  -5701846.97646  24132221.718    24132220.2694   24132225.4024
      1390.087        1083.185
 -11115763.114 9  -8649834.94148  21197812.560    21197810.9174   21197815.6254
       960.325         748.305
  -6773848.063 9  -5221711.38346  24482885.413    24482883.8184   24482888.4304
      2969.916        2314.220
 96 10 21 17  9 30.0000000  0  9 28 26 17  3  1 23  9 21 31          0.000608494
   -624520.720 9   -480522.331 9  21193199.466    21193197.976    21193202.229
     -1861.266       -1450.337
  15414761.725 9  12006343.54946  25378523.347    25378522.1934   25378527.4164
     -3452.773       -2690.472
   3609965.371 9   2814159.63248  21482447.129    21482445.2554   21482450.1984
     -1614.304       -1257.899
 -16223934.770 9 -12617340.85248  21730329.595    21730328.1634   21730332.7254
      1120.240         872.914
 -18973081.214 9 -14512365.68948  22239918.101    22239916.4874   22239921.6934
      3090.602        2408.261
   1524705.710 9   1191706.06948  21297233.570    21297231.7464   21297236.0274
     -1104.553        -860.691
  -7369895.008 9  -5734199.87446  24124320.739    24124319.3214   24124324.4484
      1377.976        1073.747
 -11144471.214 9  -8672204.88648  21192349.593    21192347.9794   21192352.6484
       953.337         742.860
  -6862791.772 9  -5291018.16946  24465959.956    24465958.3144   24465962.7664
      2959.427        2306.047
 96 10 21 17 10  0.0000000  0  9 28 26 17  3  1 23  9 21 31          0.000607256
   -568433.573 9   -436818.083 9  21203872.480    21203870.996    21203875.276
     -1877.618       -1463.079
  15518395.481 9  12087097.10246  25398244.315    25398243.1024   25398248.3404
     -3455.882       -2692.895
   3658554.678 9   2852021.40748  21491693.334    21491691.4954   21491696.4524
     -1624.664       -1265.972
 -16257259.590 9 -12643308.25948  21723988.083    21723986.6874   21723991.1914
      1101.458         858.279
 -19065632.885 9 -14584483.86448  22222306.086    22222304.4784   22222309.6814
      3079.784        2399.832
   1557912.333 9   1217581.34648  21303552.625    21303550.7894   21303555.0724
     -1108.905        -864.082
  -7411061.799 9  -5766277.88246  24116486.986    24116485.5414   24116490.6864
      1366.770        1065.015
 -11172963.803 9  -8694406.90748  21186927.671    21186926.0314   21186930.6754
       946.412         737.464
  -6951413.561 9  -5360074.11246  24449095.960    24449094.3394   24449098.6904
      2948.898        2297.843
 96 10 21 17 10 30.0000000  0  9 28 26 17  3  1 23  9 21 31          0.000606010
   -511845.814 9   -392723.747 9  21214640.761    21214639.283    21214643.570
     -1894.485       -1476.222
  15622134.771 9  12167932.87546  25417985.320    25417984.0784   25417989.3894
     -3459.640       -2695.823
   3707465.798 9   2890133.94748  21501000.796    21500998.9724   21501003.9474
     -1635.688       -1274.562
 -16289997.157 9 -12668818.05848  21717758.377    21717756.9634   21717761.4684
      1081.416         842.662
 -19157849.381 9 -14656340.85748  22204757.811    22204756.2754   22204761.4364
      3068.470        2391.015
   1591256.126 9   1243563.51248  21309897.758    21309895.9004   21309900.1774
     -1113.785        -867.884
  -7451890.728 9  -5798092.61446  24108717.463    24108715.9964   24108721.1074
      1355.316        1056.090
 -11201227.795 9  -8716430.79548  21181549.201    21181547.5704   21181552.2374
       938.235         731.092
  -7039712.987 9  -5428878.84046  24432293.242    24432291.5384   24432296.0584
      2938.237        2289.535
 96 10 21 17 11  0.0000000  0  9 28 26 17  3  1 23  9 21 31          0.000604747
   -454757.347 9   -348239.251 9  21225504.334    21225502.865    21225507.170
     -1911.113       -1489.179
  15725977.497 9  12248849.21146  25437745.928    25437744.7064   25437750.0294
     -3462.691       -2698.201
   3756697.780 9   2928496.51048  21510369.375    21510367.5454   21510372.5174
     -1646.229       -1282.776
 -16322138.688 9 -12693863.41548  21711642.067    21711640.6524   21711645.1694
      1061.626         827.241
 -19249736.304 9 -14727941.04548  22187272.260    22187270.7614   22187275.9274
      3057.599        2382.545
   1624745.825 9   1269659.36748  21316270.622    21316268.8044   21316273.0464
     -1118.524        -871.577
  -7492370.695 9  -5829635.40846  24101014.352    24101012.8914   24101018.0104
      1343.562        1046.931
 -11229255.858 9  -8738270.84548  21176215.640    21176214.0084   21176218.6994
       930.545         725.100
  -7127706.558 9  -5497445.23846  24415548.447    24415546.8254   24415551.3604
      2928.061        2281.606
 96 10 21 17 11 30.0000000  0  9 28 26 17  3  1 23  9 21 31          0.000603466
   -397173.418 9   -303368.682 9  21236462.198    21236460.708    21236465.038
     -1928.055       -1502.380
  15829893.368 8  12329822.50946  25457520.362    25457519.1784   25457524.5564
     -3465.269       -2700.210
   3806241.633 9   2967102.08448  21519797.294    21519795.4454   21519800.4104
     -1657.034       -1291.195
 -16353686.948 9 -12718446.48848  21705638.695    21705637.2484   21705641.7824
      1041.406         811.485
 -19341299.534 9 -14799289.00048  22169848.366    22169846.8394   22169851.9984
      3046.409        2373.825
   1658379.632 9   1295867.51948  21322670.969    21322669.1254   21322673.3864
     -1124.044        -875.878
  -7532498.382 9  -5860903.71247  24093378.337    24093376.8814   24093382.0044
      1331.263        1037.348
 -11257054.124 9  -8759931.83048  21170925.834    21170924.1924   21170928.8714
       922.519         718.846
  -7215388.326 9  -5565768.70846  24398863.347    24398861.7594   24398866.1484
      2917.093        2273.059
 96 10 21 17 12  0.0000000  0  9 28 26 17  3  1 23  9 21 31          0.000602164
   -339099.629 9   -258116.402 9  21247513.259    21247511.786    21247516.132
     -1944.186       -1514.950
  15933868.784 9  12410842.25046  25477306.356    25477305.0974   25477310.3614
     -3467.085       -2701.625
   3856099.158 9   3005952.08548  21529284.897    21529283.0524   21529288.0044
     -1667.441       -1299.305
 -16384648.555 9 -12742572.42348  21699746.912    21699745.4764   21699750.0194
      1022.189         796.511
 -19432549.047 9 -14870392.50248  22152484.230    22152482.6384   22152487.7794
      3036.162        2365.841
   1692168.883 9   1322196.78948  21329100.835    21329099.0244   21329103.2854
     -1129.180        -879.881
  -7572261.109 9  -5891887.63846  24085811.744    24085810.3124   24085815.3314
      1318.735        1027.586
 -11284634.238 9  -8781422.82948  21165677.571    21165675.9014   21165680.5544
       915.429         713.321
  -7302760.003 9  -5633850.51246  24382237.020    24382235.3754   24382239.9344
      2907.053        2265.236
 96 10 21 17 12 30.0000000  0  9 28 26 17  3  1 23  9 21 31          0.000600840
   -280536.268 9   -212482.638 9  21258657.517    21258656.034    21258660.387
     -1960.358       -1527.552
  16037904.018 9  12491908.62246  25497103.836    25497102.6274   25497107.5654
     -3468.841       -2702.993
   3906268.953 9   3045045.40748  21538831.884    21538830.0604   21538835.0064
     -1677.495       -1307.139
 -16415032.183 9 -12766247.99048  21693965.110    21693963.6794   21693968.2224
      1003.173         781.693
 -19523482.124 9 -14941249.43048  22135180.252    22135178.6634   22135183.7774
      3025.639        2357.641
   1726117.536 9   1348650.27348  21335561.050    21335559.2264   21335563.4954
     -1134.343        -883.904
  -7611631.366 9  -5922565.73447  24078319.833    24078318.4104   24078323.4714
      1305.429        1017.217
 -11311991.791 9  -8802740.40548  21160471.571    21160469.9364   21160474.5834
       908.187         707.678
  -7389830.119 9  -5701697.34946  24365667.931    24365666.4534   24365670.9114
      2897.166        2257.532
 96 10 21 17 13  0.0000000  0  9 28 26 17  3  1 23  9 21 31          0.000599503
   -221487.864 9   -166470.918 9  21269894.056    21269892.583    21269896.958
     -1976.669       -1540.262
  16141992.583 8  12573016.53746  25516911.371    25516910.2634   25516915.0694
     -3470.921       -2704.614
   3956737.942 9   3084371.87048  21548435.824    21548433.9884   21548438.9404
     -1687.539       -1314.965
 -16444847.788 9 -12789480.93748  21688291.383    21688289.9804   21688294.5114
       984.021         766.770
 -19614094.832 9 -15011856.71748  22117937.206    22117935.6274   22117940.7444
      3014.809        2349.202
   1760225.658 9   1375228.02148  21342051.614    21342049.7654   21342054.0664
     -1139.976        -888.293
  -7650588.520 9  -5952921.93547  24070906.495    24070905.0324   24070910.1124
      1291.296        1006.205
 -11339141.545 9  -8823896.05748  21155305.177    21155303.5184   21155308.1694
       901.286         702.301
  -7476596.360 9  -5769307.44446  24349157.244    24349155.6124   24349159.8184
      2886.520        2249.236
 96 10 21 17 13 30.0000000  0  9 28 26 17  3  1 23  9 21 31          0.000598160
   -161953.968 9   -120080.894 9  21281222.986    21281221.522    21281225.914
     -1992.670       -1552.730
  16246148.480 8  12654176.89645  25536731.377    25536730.3804   25536735.5234
     -3473.402       -2706.547
   4007502.641 9   3123928.76448  21558096.034    21558094.2364   21558099.1744
     -1697.225       -1322.513
 -16474085.455 9 -12812263.54748  21682727.671    21682726.2484   21682730.7824
       964.663         751.685
 -19704386.717 9 -15082214.01148  22100755.224    22100753.6384   22100758.7324
      3004.156        2340.901
   1794502.167 9   1401936.97648  21348574.204    21348572.3804   21348576.6754
     -1145.510        -892.605
  -7689123.768 9  -5982949.36547  24063573.472    24063572.0774   24063577.1334
      1277.143         995.176
 -11366082.171 9  -8844888.75248  21150178.541    21150176.8694   21150181.5394
       894.394         696.930
  -7563033.490 9  -5836660.99046  24332708.582    24332706.8704   24332711.6054
      2875.528        2240.671
 96 10 21 17 14  0.0000000  0  9 28 26 17  3  1 23  9 21 31          0.000596821
   -101931.671 9    -73310.299 9  21292644.887    21292643.407    21292647.795
     -2008.425       -1565.006
  16350393.891 8  12735407.00145  25556568.488    25556567.5994   25556572.8704
     -3475.891       -2708.486
   4058574.002 9   3163724.60648  21567814.645    21567812.8254   21567817.7534
     -1707.181       -1330.271
 -16502733.461 9 -12834586.67548  21677276.114    21677274.7064   21677279.2594
       945.592         736.825
 -19794349.204 9 -15152314.63448  22083635.881    22083634.3044   22083639.4294
      2993.782        2332.817
   1828946.306 9   1428776.54948  21355128.711    21355126.9034   21355131.1974
     -1150.313        -896.348
  -7727218.194 9  -6012633.32147  24056324.413    24056322.9274   24056327.9054
      1262.929         984.101
 -11392802.774 9  -8865710.00448  21145093.750    21145092.1014   21145096.7674
       887.233         691.350
  -7649135.527 9  -5903753.52046  24316323.762    24316322.1844   24316326.7804
      2864.884        2232.377
 96 10 21 17 14 30.0000000  0  9 28 26 17  3  1 23  9 21 31          0.000595484
    -41418.526 9    -26157.227 9  21304160.170    21304158.698    21304163.077
     -2025.381       -1578.219
  16454733.193 8  12816710.26446  25576423.556    25576422.7414   25576428.0974
     -3479.770       -2711.509
   4109963.822 9   3203768.59848  21577593.866    21577592.0034   21577596.9204
     -1718.511       -1339.099
 -16530791.315 9 -12856449.95048  21671936.894    21671935.4974   21671940.0114
       925.311         721.022
 -19883987.100 9 -15222162.32448  22066578.329    22066576.7594   22066581.9054
      2982.446        2323.984
   1863548.339 9   1455739.16148  21361713.274    21361711.4504   21361715.7594
     -1156.067        -900.831
  -7764875.328 9  -6041976.49847  24049158.466    24049157.0324   24049161.9644
      1247.965         972.440
 -11419288.524 9  -8886348.25348  21140053.656    21140051.9794   21140056.6804
       879.097         685.011
  -7734888.235 9  -5970573.80646  24300005.487    24300003.8304   24300008.5004
      2852.124        2222.434
 96 10 21 17 15  0.0000000  0  9 28 26 17  3  1 23  9 21 31          0.000594157
     19581.830 9     21375.493 9  21315768.170    21315766.693    21315771.087
     -2041.464       -1590.751
  16559170.094 8  12898089.57046  25596297.281    25596296.3834   25596301.6724
     -3482.837       -2713.899
   4161685.945 9   3244071.53348  21587436.264    21587434.4304   21587439.3184
     -1729.782       -1347.882
 -16558262.307 9 -12877855.92748  21666709.358    21666707.9404   21666712.4624
       906.002         705.976
 -19973307.899 9 -15291762.92548  22049581.149    22049579.6044   22049584.6864
      2972.120        2315.938
   1898304.914 9   1482822.19548  21368327.223    21368325.4234   21368329.7264
     -1161.139        -904.784
  -7802108.457 9  -6070989.28647  24042073.204    24042071.8074   24042076.6874
      1234.167         961.689
 -11445561.330 9  -8906820.56948  21135054.065    21135052.4074   21135057.1364
       872.112         679.568
  -7820269.369 9  -6037104.51346  24283757.872    24283756.3014   24283761.1834
      2839.701        2212.754
 96 10 21 17 15 30.0000000  0  8 28 17  3  1 23  9 21 31             0.000592842
     81070.261 9     69288.532 9  21327469.038    21327467.577    21327471.978
     -2057.902       -1603.560
   4213763.897 9   3284651.73748  21597346.423    21597344.5254   21597349.4624
     -1742.188       -1357.549
 -16585150.639 9 -12898807.88248  21661592.723    21661591.2974   21661595.8054
       886.546         690.815
 -20062303.286 9 -15361109.95548  22032645.911    22032644.3704   22032649.3864
      2960.629        2306.984
   1933210.510 9   1510021.34648  21374969.602    21374967.7784   21374972.0604
     -1165.977        -908.554
  -7838922.776 9  -6099675.74546  24035067.733    24035066.3024   24035071.0844
      1220.001         950.650
 -11471612.287 9  -8927120.01148  21130096.721    21130095.0674   21130099.8264
       864.617         673.728
  -7905265.483 9  -6103335.27746  24267583.950    24267582.2754   24267586.9694
      2826.744        2202.658
 96 10 21 17 16  0.0000000  0  8 28 17  3  1 23  9 21 31             0.000591536
    143043.116 9    117579.042 9  21339262.079    21339260.645    21339265.042
     -2073.948       -1616.063
   4266210.691 9   3325519.34448  21607326.676    21607324.8244   21607329.7774
     -1754.450       -1367.104
 -16611475.600 9 -12919320.84448  21656583.265    21656581.8314   21656586.3544
       868.154         676.484
 -20150955.662 9 -15430189.70848  22015775.971    22015774.3864   22015779.3664
      2949.307        2298.161
   1968249.654 9   1537324.56548  21381637.292    21381635.4894   21381639.8034
     -1170.361        -911.970
  -7875328.378 9  -6128043.71047  24028140.026    24028138.5314   24028143.3724
      1206.704         940.289
 -11497450.631 9  -8947253.78548  21125179.808    21125178.1884   21125182.9724
       857.615         668.271
  -7989884.638 9  -6169272.26346  24251480.932    24251479.3964   24251484.0884
      2814.158        2192.850
 96 10 21 17 16 30.0000000  0  8 28 17  3  1 23  9 21 31             0.000590239
    205500.672 9    166247.242 9  21351147.392    21351145.969    21351150.355
     -2089.811       -1628.424
   4319019.880 9   3366669.33748  21617375.928    21617374.0994   21617379.0654
     -1766.096       -1376.179
 -16637241.099 9 -12939397.86848  21651680.212    21651678.8224   21651683.3674
       849.513         661.958
 -20239264.297 9 -15499001.60148  21998971.382    21998969.8004   21998974.7674
      2937.859        2289.241
   2003429.527 9   1564737.44548  21388331.760    21388329.9864   21388334.3164
     -1175.030        -915.608
  -7911330.837 9  -6156097.54747  24021288.875    24021287.4144   24021292.2054
      1193.355         929.887
 -11523079.379 9  -8967224.23548  21120302.821    21120301.1764   21120305.9834
       851.022         663.134
  -8074119.509 9  -6234909.83446  24235451.907    24235450.3544   24235454.9324
      2801.496        2182.984
 96 10 21 17 17  0.0000000  0  8 28 17  3  1 23  9 21 31             0.000588948
    268443.260 9    215293.388 9  21363125.017    21363123.586    21363127.961
     -2106.300       -1641.273
   4372190.738 9   3408101.14948  21627494.062    21627492.2154   21627497.1784
     -1778.457       -1385.811
 -16662429.542 9 -12959025.23448  21646887.004    21646885.6124   21646890.1854
       829.662         646.490
 -20327207.165 9 -15567528.48848  21982236.354    21982234.8004   21982239.7464
      2925.119        2279.314
   2038766.665 9   1592272.86448  21395056.230    21395054.4414   21395058.7554
     -1180.645        -919.983
  -7946914.711 9  -6183825.20047  24014517.498    24014516.0444   24014520.7974
      1178.924         918.642
 -11548486.044 9  -8987021.64048  21115468.078    21115466.4304   21115471.2774
       842.569         656.547
  -8157977.868 9  -6300254.01046  24219494.251    24219492.5754   24219497.1444
      2789.090        2173.317
 96 10 21 17 17 30.0000000  0  8 28 17  3  1 23  9 21 31             0.000587650
    331866.360 9    264713.958 9  21375194.102    21375192.614    21375196.999
     -2122.049       -1653.545
   4425705.379 9   3449800.84948  21637677.595    21637675.7534   21637680.7084
     -1789.263       -1394.231
 -16687031.696 9 -12978195.75148  21642205.368    21642203.9604   21642208.5194
       810.195         631.321
 -20414776.515 9 -15635764.31748  21965572.439    21965570.8894   21965575.8234
      2912.695        2269.632
   2074257.403 9   1619927.97448  21401809.939    21401808.1454   21401812.4484
     -1185.665        -923.895
  -7982074.157 9  -6211222.14846  24007826.926    24007825.4254   24007830.2354
      1164.878         907.697
 -11573644.510 9  -9006625.64148  21110680.599    21110678.9374   21110683.7834
       834.548         650.297
  -8241478.555 9  -6365319.46946  24203604.274    24203602.7514   24203607.3484
      2777.398        2164.206
 96 10 21 17 18  0.0000000  0  8 28 17  3  1 23  9 21 31             0.000586344
    395772.491 9    314510.919 9  21387355.036    21387353.580    21387357.969
     -2138.515       -1666.375
   4479543.930 9   3491752.94548  21647922.775    21647920.8944   21647925.8374
     -1800.138       -1402.705
 -16711029.039 9 -12996894.99248  21637638.828    21637637.4274   21637641.9954
       789.416         615.129
 -20501972.519 9 -15703709.22848  21948979.576    21948978.0194   21948982.9664
      2900.287        2259.964
   2109918.848 9   1647716.10648  21408596.076    21408594.2994   21408598.5884
     -1192.019        -928.846
  -8016800.530 9  -6238281.61846  24001218.581    24001217.1094   24001222.0454
      1149.954         896.068
 -11598552.047 9  -9026034.11248  21105940.893    21105939.2114   21105944.0274
       825.844         643.515
  -8324615.947 9  -6430101.86746  24187784.185    24187782.4694   24187786.9714
      2764.753        2154.353
 96 10 21 17 18 30.0000000  0  8 28 17  3  1 23  9 21 31             0.000585030
    460160.182 9    364683.117 9  21399607.630    21399606.167    21399610.564
     -2154.097       -1678.517
   4533694.474 9   3533948.15048  21658227.253    21658225.3964   21658230.3704
     -1810.046       -1410.425
 -16734405.592 9 -13015110.49848  21633190.463    21633189.0634   21633193.6324
       769.076         599.280
 -20588806.834 9 -15771372.31148  21932455.535    21932453.9964   21932458.9174
      2888.498        2250.778
   2145762.229 9   1675646.00148  21415416.886    21415415.0954   21415419.3634
     -1197.557        -933.161
  -8051082.268 9  -6264994.64847  23994694.905    23994693.4664   23994698.3344
      1135.486         884.794
 -11623211.548 9  -9045249.30748  21101248.365    21101246.7004   21101251.4854
       818.026         637.423
  -8407385.134 9  -6494597.30746  24172033.655    24172031.7344   24172036.5914
      2753.020        2145.210
 96 10 21 17 19  0.0000000  0  8 28 17  3  1 23  9 21 31             0.000583710
    525032.412 9    415232.878 9  21411952.410    21411950.939    21411955.367
     -2170.300       -1691.143
   4588161.421 9   3576389.90848  21668591.942    21668590.0994   21668595.1074
     -1820.597       -1418.647
 -16757161.695 9 -13032842.53848  21628860.133    21628858.7294   21628863.3224
       748.489         583.238
 -20675266.533 9 -15838743.48148  21916002.784    21916001.2334   21916006.1654
      2875.989        2241.030
   2181784.678 9   1703715.43048  21422271.781    21422269.9624   21422274.1954
     -1203.443        -937.748
  -8084914.336 9  -6291357.26347  23988256.853    23988255.3914   23988260.4094
      1120.630         873.218
 -11647619.291 9  -9064268.32848  21096603.732    21096602.0714   21096606.8264
       809.730         630.958
  -8489783.675 9  -6558803.98246  24156353.553    24156351.9284   24156356.5834
      2740.355        2135.341
 96 10 21 17 19 30.0000000  0  8 28 17  3  1 23  9 21 31             0.000582388
    590384.507 9    466156.564 9  21424388.486    21424387.029    21424391.473
     -2186.582       -1703.830
   4642932.279 9   3619068.47848  21679014.547    21679012.6714   21679017.6964
     -1831.061       -1426.801
 -16779316.095 9 -13050105.72248  21624644.294    21624642.8794   21624647.5194
       728.280         567.491
 -20761365.492 9 -15905833.55848  21899618.649    21899617.1134   21899622.0384
      2863.826        2231.553
   2217979.448 9   1731919.13448  21429159.442    21429157.6224   21429161.8864
     -1209.677        -942.605
  -8118311.795 9  -6317381.23747  23981901.580    23981900.0834   23981905.0844
      1105.753         861.626
 -11671801.912 9  -9083111.93348  21092001.951    21092000.2934   21092005.0204
       802.456         625.290
  -8571795.449 9  -6622709.23046  24140747.172    24140745.4274   24140750.3784
      2727.058        2124.980
 96 10 21 17 20  0.0000000  0  8 28 17  3  1 23  9 21 31             0.000581062
    656211.105 9    517449.991 9  21436914.857    21436913.408    21436917.885
     -2201.917       -1715.779
   4698017.499 9   3661992.00448  21689496.952    21689495.0584   21689500.1074
     -1841.417       -1434.870
 -16800873.380 9 -13066903.62048  21620542.113    21620540.6814   21620545.3344
       708.791         552.305
 -20847114.949 9 -15972651.29848  21883301.088    21883299.5354   21883304.4504
      2852.640        2222.836
   2254345.661 9   1760256.43148  21436079.708    21436077.9064   21436082.1794
     -1214.727        -946.541
  -8151278.925 9  -6343069.90247  23975628.152    23975626.6204   23975631.4674
      1091.935         850.858
 -11695784.804 9  -9101799.90148  21087438.204    21087436.4974   21087441.2414
       796.298         620.492
  -8653430.700 9  -6686321.10446  24125212.532    24125210.8604   24125215.9714
      2715.163        2115.711
 96 10 21 17 20 30.0000000  0  8 28 17  3  1 23  9 21 31             0.000579730
    722511.643 9    569112.717 9  21449531.445    21449529.995    21449534.495
     -2217.790       -1728.148
   4753438.316 9   3705177.03348  21700043.158    21700041.3234   21700046.3624
     -1853.068       -1443.949
 -16821826.983 9 -13083231.11748  21616554.765    21616553.3354   21616558.0274
       688.494         536.489
 -20932506.670 9 -16039190.28348  21867051.569    21867050.0084   21867054.9154
      2840.396        2213.296
   2290873.275 9   1788719.49748  21443030.674    21443028.8824   21443033.1814
     -1219.960        -950.618
  -8183814.495 9  -6368422.27746  23969436.762    23969435.2244   23969440.2014
      1077.424         839.551
 -11719558.526 9  -9120324.87948  21082914.205    21082912.5204   21082917.2554
       788.836         614.677
  -8734694.281 9  -6749643.37346  24109748.515    24109746.8034   24109751.9194
      2702.699        2105.999
 96 10 21 17 21  0.0000000  0  8 28 17  3  1 23  9 21 31             0.000578398
    789283.525 9    621142.727 9  21462237.736    21462236.290    21462240.788
     -2233.780       -1740.608
   4809208.134 9   3748634.01848  21710655.806    21710653.9754   21710659.0224
     -1865.136       -1453.353
 -16842173.736 9 -13099085.74448  21612682.860    21612681.4474   21612686.1464
       667.669         520.262
 -21017531.562 9 -16105443.42948  21850871.840    21850870.2684   21850875.1824
      2827.737        2203.431
   2327547.550 9   1817296.84848  21450009.612    21450007.8004   21450012.0664
     -1225.191        -954.694
  -8215915.985 9  -6393436.42946  23963327.911    23963326.4894   23963331.4294
      1062.552         827.963
 -11743114.982 9  -9138680.55948  21078431.549    21078429.8764   21078434.6134
       781.399         608.882
  -8815578.484 9  -6812670.02046  24094356.500    24094354.9774   24094359.9974
      2689.270        2095.535
 96 10 21 17 21 30.0000000  0  8 28 17  3  1 23  9 21 31             0.000577085
    856530.185 9    673542.689 9  21475034.385    21475032.930    21475037.428
     -2249.412       -1752.789
   4865345.698 9   3792377.54448  21721338.477    21721336.5984   21721341.6824
     -1877.443       -1462.943
 -16861891.407 9 -13114450.18048  21608930.683    21608929.2904   21608933.9884
       646.559         503.812
 -21102179.690 9 -16171402.99248  21834763.805    21834762.2424   21834767.1564
      2815.270        2193.717
   2364372.012 9   1845991.21948  21457017.048    21457015.2604   21457019.5444
     -1229.882        -958.350
  -8247569.825 9  -6418101.77547  23957304.401    23957302.9114   23957307.8644
      1047.423         816.174
 -11766456.740 9  -9156868.94648  21073989.729    21073988.0684   21073992.8354
       774.600         603.584
  -8896067.830 9  -6875388.99746  24079040.092    24079038.4944   24079043.4384
      2676.553        2085.626
 96 10 21 17 22  0.0000000  0  8 28 17  3  1 23  9 21 31             0.000575800
    924248.349 9    726310.060 9  21487920.753    21487919.290    21487923.797
     -2265.262       -1765.139
   4921855.021 9   3836410.76848  21732091.782    21732089.9534   21732095.0634
     -1889.904       -1472.652
 -16880962.733 9 -13129310.96648  21605301.534    21605300.1224   21605304.8374
       624.936         486.963
 -21186442.076 9 -16237061.97448  21818729.157    21818727.5914   21818732.5584
      2802.095        2183.451
   2401333.893 9   1874792.67848  21464050.656    21464048.8234   21464053.1434
     -1234.554        -961.990
  -8278756.552 9  -6442403.12347  23951369.858    23951368.3034   23951373.3234
      1031.570         803.821
 -11789580.203 9  -9174887.22648  21069589.466    21069587.7874   21069592.5744
       766.852         597.547
  -8976166.184 9  -6937803.29146  24063797.801    24063796.1464   24063801.1294
      2662.850        2074.948
 96 10 21 17 22 30.0000000  0  8 28 17  3  1 23  9 21 31             0.000574547
    992433.835 9    779441.579 9  21500896.026    21500894.588    21500899.091
     -2280.744       -1777.203
   4978727.671 9   3880727.09848  21742914.289    21742912.4544   21742917.5984
     -1901.893       -1481.995
 -16899403.512 9 -13143680.41948  21601792.379    21601790.9544   21601795.6954
       604.351         470.923
 -21270317.506 9 -16302419.43548  21802768.194    21802766.6404   21802771.5974
      2789.296        2173.477
   2438440.743 9   1903707.10048  21471111.812    21471110.0244   21471114.3364
     -1239.566        -965.896
  -8309468.894 9  -6466334.83246  23945525.515    23945523.9334   23945528.9804
      1015.591         791.370
 -11812477.841 9  -9192729.54148  21065232.228    21065230.4884   21065235.3074
       759.255         591.627
  -9055846.958 9  -6999892.21446  24048635.132    24048633.5014   24048638.3294
      2648.752        2063.963
 96 10 21 17 23  0.0000000  0  8 28 17  3  1 23  9 21 31             0.000573322
   1061083.227 9    832934.584 9  21513959.599    21513958.157    21513962.663
     -2296.108       -1789.175
   5035951.234 9   3925316.86548  21753803.569    21753801.7314   21753806.9034
     -1913.124       -1490.746
 -16917237.278 9 -13157576.87348  21598398.714    21598397.3184   21598402.0504
       584.173         455.200
 -21353807.880 9 -16367476.85148  21786880.507    21786878.9364   21786883.9264
      2776.538        2163.536
   2475708.374 9   1932746.80648  21478203.603    21478201.8174   21478206.1034
     -1245.378        -970.424
  -8339701.772 9  -6489892.92947  23939772.215    23939770.7334   23939775.7234
       999.810         779.073
 -11835151.193 9  -9210397.08948  21060917.605    21060915.8844   21060920.7374
       751.964         585.946
  -9135099.228 9  -7061647.19246  24033554.035    24033552.3404   24033557.1764
      2634.489        2052.849
 96 10 21 17 23 30.0000000  0  8 28 17  3  1 23  9 21 31             0.000572105
   1130194.424 9    886787.438 9  21527111.052    21527109.598    21527114.112
     -2311.156       -1800.901
   5093513.295 9   3970170.40148  21764757.285    21764755.4334   21764760.6324
     -1924.160       -1499.345
 -16934462.174 9 -13170998.88248  21595120.938    21595119.5464   21595124.2924
       564.349         439.752
 -21436918.536 9 -16432238.38648  21771065.079    21771063.4814   21771068.4804
      2764.266        2153.974
   2513160.206 9   1961930.03848  21485330.504    21485328.7044   21485332.9664
     -1251.352        -975.079
  -8369466.124 9  -6513085.94647  23934108.486    23934106.9764   23934111.9284
       984.499         767.142
 -11857593.961 9  -9227884.96448  21056646.815    21056645.1294   21056650.0104
       744.319         579.989
  -9213931.804 9  -7123075.20046  24018552.797    24018551.2104   24018555.8604
      2621.188        2042.484
 96 10 21 17 24  0.0000000  0  8 28 17  3  1 23  9 21 31             0.000570871
   1199756.711 9    940991.792 9  21540348.343    21540346.876    21540351.381
     -2326.252       -1812.664
   5151405.304 9   4015281.03848  21775773.773    21775771.9284   21775777.1294
     -1935.344       -1508.060
 -16951103.500 9 -13183966.16348  21591954.274    21591952.8734   21591957.5884
       545.186         424.820
 -21519654.133 9 -16496707.66048  21755320.986    21755319.3834   21755324.3824
      2751.460        2143.995
   2550802.371 9   1991261.58748  21492493.604    21492491.8254   21492496.0644
     -1258.097        -980.335
  -8398764.905 9  -6535916.16047  23928533.009    23928531.4344   23928536.5934
       968.964         755.037
 -11879794.261 9  -9245183.89748  21052422.230    21052420.5604   21052425.4094
       735.771         573.328
  -9292360.978 9  -7184188.82646  24003628.251    24003626.5774   24003631.4174
      2607.436        2031.768
 96 10 21 17 24 30.0000000  0  8 28 17  3  1 23  9 21 31             0.000569604
   1269766.613 9    995544.931 9  21553670.793    21553669.317    21553673.849
     -2340.786       -1823.989
   5209632.892 9   4060653.16348  21786854.130    21786852.3044   21786857.5264
     -1946.094       -1516.437
 -16967171.707 9 -13196486.86348  21588896.679    21588895.2684   21588899.9364
       526.104         409.951
 -21602002.885 9 -16560875.50448  21739650.484    21739648.9094   21739653.9224
      2738.705        2134.056
   2588645.865 9   2020750.01348  21499694.991    21499693.2214   21499697.4504
     -1264.374        -985.226
  -8427611.651 9  -6558394.15647  23923043.640    23923042.1594   23923047.0994
       954.304         743.614
 -11901746.163 9  -9262289.27548  21048244.917    21048243.2674   21048248.0844
       727.991         567.266
  -9370391.276 9  -7244991.64946  23988779.648    23988777.9854   23988782.7374
      2594.880        2021.984
 96 10 21 17 25  0.0000000  0  8 28 17  3  1 23  9 21 31             0.000568306
   1340220.516 9   1050444.047 9  21567077.729    21567076.268    21567080.814
     -2355.479       -1835.438
   5268185.787 9   4106278.77948  21797996.416    21797994.5684   21797999.7844
     -1956.809       -1524.786
 -16982643.227 9 -13208542.60548  21585952.625    21585951.1644   21585955.8164
       505.847         394.166
 -21683952.870 9 -16624732.61748  21724055.921    21724054.3154   21724059.3554
      2725.358        2123.656
   2626681.303 9   2050388.00848  21506932.898    21506931.1194   21506935.3674
     -1270.447        -989.959
  -8456003.345 9  -6580517.56447  23917641.034    23917639.4254   23917644.4984
       939.225         731.864
 -11923458.670 9  -9279208.10948  21044113.191    21044111.5234   21044116.3454
       720.270         561.249
  -9448042.988 9  -7305499.48846  23974003.136    23974001.3834   23974005.9914
      2582.618        2012.430
 96 10 21 17 25 30.0000000  0  8 28 17  3  1 23  9 21 31             0.000566981
   1411118.239 9   1105688.998 9  21580569.117    21580567.669    21580572.245
     -2370.737       -1847.328
   5327074.686 9   4152166.21148  21809202.641    21809200.7804   21809205.9844
     -1968.800       -1534.130
 -16997502.535 9 -13220121.29848  21583124.967    21583123.5314   21583128.2044
       485.126         378.020
 -21765493.782 9 -16688270.96948  21708539.169    21708537.5874   21708542.6374
      2710.996        2112.464
   2664888.221 9   2080159.62348  21514203.461    21514201.6674   21514205.9344
     -1276.278        -994.502
  -8483937.114 9  -6602284.11247  23912325.253    23912323.7654   23912328.7484
       923.045         719.256
 -11944944.794 9  -9295950.54148  21040024.536    21040022.8764   21040027.6654
       712.567         555.247
  -9525328.014 9  -7365721.57546  23959296.123    23959294.4054   23959299.3024
      2569.927        2002.541
 96 10 21 17 26  0.0000000  0  8 28 17  3  1 23  9 21 31             0.000565652
   1482454.592 9   1161275.736 9  21594143.986    21594142.534    21594147.149
     -2385.188       -1858.588
   5386293.321 9   4198310.58348  21820471.620    21820469.7554   21820474.9574
     -1979.294       -1542.307
 -17011761.379 9 -13231232.09448  21580411.576    21580410.1574   21580414.8664
       465.167         362.468
 -21846622.778 9 -16751488.35048  21693100.762    21693099.2044   21693104.2914
      2697.497        2101.946
   2703239.915 9   2110044.04948  21521501.556    21521499.7564   21521504.0334
     -1280.654        -997.912
  -8511397.474 9  -6623681.79947  23907099.909    23907098.4694   23907103.2374
       907.560         707.190
 -11966223.417 9  -9312531.28848  21035975.366    21035973.7164   21035978.4684
       706.001         550.131
  -9602241.693 9  -7425654.30146  23944660.108    23944658.4084   23944663.2054
      2557.289        1992.693
 96 10 21 17 26 30.0000000  0  8 28 17  3  1 23  9 21 31             0.000564327
   1554228.522 9   1217203.444 9  21607802.116    21607800.673    21607805.320
     -2399.842       -1870.007
   5445832.854 9   4244705.00148  21831801.609    21831799.7574   21831804.9464
     -1990.026       -1550.670
 -17025408.077 9 -13241865.89848  21577814.678    21577813.2834   21577817.9894
       444.546         346.399
 -21927346.772 9 -16814390.14448  21677739.454    21677737.9174   21677743.0134
      2684.209        2091.591
   2741721.145 9   2140029.41148  21528824.301    21528822.5104   21528826.8014
     -1284.822       -1001.160
  -8538390.348 9  -6644715.18547  23901963.005    23901961.5954   23901966.7244
       891.757         694.875
 -11987312.003 9  -9328963.95348  21031962.343    21031960.6804   21031965.4294
       699.595         545.139
  -9678773.519 9  -7485289.47846  23930096.364    23930094.7164   23930099.6734
      2544.442        1982.682
 96 10 21 17 27  0.0000000  0  8 28 17  3  1 23  9 21 31             0.000563013
   1626437.094 9   1273469.836 9  21621542.946    21621541.511    21621546.209
     -2414.246       -1881.231
   5505689.790 9   4291346.75148  21843192.016    21843190.1774   21843195.3534
     -2000.862       -1559.113
 -17038447.115 9 -13252026.19748  21575333.440    21575332.0454   21575336.7774
       424.616         330.870
 -22007681.355 9 -16876988.50148  21662452.308    21662450.7504   21662455.8324
      2671.212        2081.464
   2780314.111 9   2170101.84048  21536168.307    21536166.4994   21536170.8184
     -1288.105       -1003.718
  -8564910.670 9  -6665380.36647  23896916.407    23896914.9994   23896919.9674
       876.262         682.802
 -12008204.205 9  -9345243.59048  21027986.665    21027985.0114   21027989.7604
       692.849         539.882
  -9754912.816 9  -7544618.79146  23915607.532    23915605.8734   23915610.8814
      2531.175        1972.344
 96 10 21 17 27 30.0000000  0  8 28 17  3  1 23  9 21 31             0.000561706
   1699075.492 9   1330071.155 9  21635365.570    21635364.163    21635368.878
     -2428.360       -1892.229
   5565878.797 9   4338247.25648  21854645.634    21854643.7874   21854648.9664
     -2011.815       -1567.648
 -17050893.539 9 -13261724.72048  21572964.969    21572963.5764   21572968.3014
       405.026         315.605
 -22087627.343 9 -16939284.05648  21647239.150    21647237.5394   21647242.6104
      2658.515        2071.570
   2819002.135 9   2200248.33448  21543530.369    21543528.5824   21543532.9094
     -1291.377       -1006.268
  -8590969.212 9  -6685685.71647  23891957.623    23891956.1784   23891961.1824
       860.850         670.792
 -12028889.681 9  -9361362.14448  21024050.362    21024048.6964   21024053.4374
       685.994         534.541
  -9830648.914 9  -7603633.93546  23901195.501    23901193.8394   23901198.7744
      2517.560        1961.735
 96 10 21 17 28  0.0000000  0  8 28 17  3  1 23  9 21 31             0.000560402
   1772136.623 9   1387001.877 9  21649268.656    21649267.262    21649271.977
     -2442.649       -1903.363
   5626395.683 9   4385403.24748  21866161.682    21866159.7994   21866164.9434
     -2022.957       -1576.330
 -17062750.135 9 -13270963.63648  21570708.792    21570707.3734   21570712.0754
       385.101         300.079
 -22167195.685 9 -17001285.34348  21632097.792    21632096.2054   21632101.2704
      2645.735        2061.612
   2857798.108 9   2230478.95448  21550913.028    21550911.2234   21550915.5544
     -1295.458       -1009.448
  -8616566.669 9  -6705631.78147  23887086.460    23887085.0894   23887090.2284
       845.498         658.830
 -12049357.088 9  -9377310.76648  21020155.568    21020153.8764   21020158.6334
       678.183         528.454
  -9905959.839 9  -7662317.75246  23886864.195    23886862.4914   23886867.5654
      2502.826        1950.254
 96 10 21 17 28 30.0000000  0  8 28 17  3  1 23  9 21 31             0.000559092
   1845616.640 9   1444259.004 9  21663251.480    21663250.070    21663254.781
     -2456.446       -1914.114
   5687249.268 9   4432821.60648  21877741.751    21877739.8814   21877745.0154
     -2034.273       -1585.148
 -17074013.782 9 -13279740.51448  21568565.373    21568563.9644   21568568.6644
       365.395         284.723
 -22246380.387 9 -17062987.68348  21617029.463    21617027.8684   21617032.9154
      2632.793        2051.527
   2896714.943 9   2260803.75148  21558318.600    21558316.8234   21558321.1694
     -1299.453       -1012.561
  -8641707.206 9  -6725221.81647  23882302.299    23882300.8454   23882306.1634
       830.127         646.852
 -12069589.435 9  -9393076.23048  21016305.456    21016303.7774   21016308.5244
       670.155         522.199
  -9980836.733 9  -7720663.37746  23872615.500    23872613.8444   23872618.9184
      2488.426        1939.033
 96 10 21 17 29  0.0000000  0  8 28 17  3  1 23  9 21 31             0.000557779
   1919516.457 9   1501843.250 9  21677314.187    21677312.764    21677317.446
     -2470.248       -1924.869
   5748442.995 9   4480505.00948  21889386.506    21889384.6634   21889389.7754
     -2045.344       -1593.774
 -17084682.517 9 -13288053.82148  21566535.217    21566533.7994   21566538.4844
       345.774         269.434
 -22325165.541 9 -17124378.69448  21602037.167    21602035.5454   21602040.5704
      2619.507        2041.174
   2935760.581 9   2291228.91148  21565748.791    21565746.9644   21565751.3174
     -1303.662       -1015.841
  -8666377.925 9  -6744445.74147  23877607.626    23877606.2044   23877611.3864
       814.569         634.729
 -12089577.587 9  -9408651.41248  21012501.821    21012500.1314   21012504.8924
       662.474         516.214
 -10055274.822 9  -7778667.08646  23858450.368    23858448.6824   23858453.7594
      2474.143        1927.904
 96 10 21 17 29 30.0000000  0  8 28 17  3  1 23  9 21 31             0.000556455
   1993825.006 9   1559745.994 9  21691454.646    21691453.226    21691457.912
     -2483.647       -1935.309
   5809961.588 9   4528441.55848  21901093.141    21901091.2554   21901096.3784
     -2055.736       -1601.872
 -17094761.613 9 -13295907.67248  21564617.268    21564615.8354   21564620.5004
       326.137         254.133
 -22403562.337 9 -17185467.08248  21587118.731    21587117.1244   21587122.1314
      2607.009        2031.436
   2974941.553 9   2321759.52748  21573204.661    21573202.8574   21573207.2544
     -1308.508       -1019.617
  -8690583.691 9  -6763307.37047  23873001.415    23872999.9474   23873005.1494
       799.183         622.740
 -12109343.682 9  -9424053.55948  21008740.456    21008738.7524   21008743.5364
       655.354         510.665
 -10129285.777 9  -7836337.97246  23844366.480    23844364.8334   23844369.9734
      2459.912        1916.815
 96 10 21 17 30  0.0000000  0  8 28 17  3  1 23  9 21 31             0.000555121
   2068539.025 9   1617964.687 9  21705672.273    21705670.858    21705675.525
     -2496.690       -1945.473
   5871796.116 9   4576624.28548  21912859.949    21912858.0284   21912863.1454
     -2065.892       -1609.786
 -17104249.198 9 -13303300.60648  21562811.873    21562810.4364   21562815.0724
       306.880         239.127
 -22481576.101 9 -17246257.00348  21572273.221    21572271.6084   21572276.5764
      2594.379        2021.594
   3014272.546 9   2352407.04248  21580689.100    21580687.3104   21580691.7024
     -1312.819       -1022.976
  -8714322.252 9  -6781804.94247  23868484.138    23868482.7774   23868487.7754
       783.965         610.882
 -12128891.234 9  -9439285.41748  21005020.676    21005018.9804   21005023.7844
       648.510         505.332
 -10202863.002 9  -7893670.87446  23830365.167    23830363.5284   23830368.6264
      2445.938        1905.926
 96 10 21 17 30 30.0000000  0  8 28 17  3  1 23  9 21 31             0.000553780
   2143656.139 9   1676497.482 9  21719966.618    21719965.202    21719969.854
     -2510.570       -1956.288
   5933944.792 9   4625051.79848  21924686.474    21924684.5564   21924689.6914
     -2076.705       -1618.212
 -17113139.205 9 -13310227.89348  21561120.135    21561118.7124   21561123.3664
       286.306         223.096
 -22559189.203 9 -17306734.72148  21557503.923    21557502.3144   21557507.2624
      2580.496        2010.776
   3053739.175 9   2383160.25048  21588199.383    21588197.5884   21588201.9534
     -1317.699       -1026.778
  -8737587.457 9  -6799933.67847  23864057.273    23864055.7374   23864060.6134
       767.669         598.184
 -12148228.995 9  -9454353.79548  21001340.782    21001339.1154   21001343.9364
       641.382         499.778
 -10276019.601 9  -7950676.01646  23816443.833    23816442.2004   23816447.4214
      2431.613        1894.763
 96 10 21 17 31  0.0000000  0  8 28 17  3  1 23  9 21 31             0.000552433
   2219175.688 9   1735343.862 9  21734337.558    21734336.118    21734340.762
     -2524.041       -1966.785
   5996396.522 9   4673715.45348  21936570.610    21936568.7184   21936573.9204
     -2086.824       -1626.097
 -17121423.423 9 -13316683.13948  21559543.645    21559542.2304   21559546.9194
       265.879         207.178
 -22636410.121 9 -17366906.83948  21542809.235    21542807.6184   21542812.5724
      2567.628        2000.749
   3093334.149 9   2414013.47048  21595734.092    21595732.2864   21595736.6124
     -1321.979       -1030.114
  -8760386.694 9  -6817699.28647  23859718.695    23859717.2864   23859722.2534
       752.167         586.104
 -12167374.173 9  -9469272.11448  20997697.557    20997695.8814   20997700.7394
       634.859         494.695
 -10348759.405 9  -8007356.38746  23802602.041    23802600.3784   23802605.5324
      2417.615        1883.856
 96 10 21 17 31 30.0000000  0  8 28 17  3  1 23  9 21 31             0.000551085
   2295098.647 9   1794504.586 9  21748785.252    21748783.799    21748788.444
     -2537.592       -1977.344
   6059163.143 9   4722624.48548  21948514.697    21948512.8184   21948518.0214
     -2097.671       -1634.549
 -17129087.260 9 -13322654.97148  21558085.240    21558083.8334   21558088.5264
       244.914         190.842
 -22713241.640 9 -17426775.52948  21528188.645    21528187.0484   21528192.0014
      2554.327        1990.385
   3133059.147 9   2444968.00448  21603293.493    21603291.6954   21603296.0034
     -1326.429       -1033.581
  -8782717.218 9  -6835099.69747  23855469.577    23855468.0364   23855472.8784
       736.361         573.788
 -12186312.637 9  -9484029.35348  20994093.693    20994092.0164   20994096.8674
       627.620         489.055
 -10421070.487 9  -8063702.68046  23788841.745    23788840.0674   23788845.1894
      2403.006        1872.472
 96 10 21 17 32  0.0000000  0  8 28 17  3  1 23  9 21 31             0.000549737
   2371422.982 9   1853978.072 9  21763309.301    21763307.869    21763312.498
     -2550.495       -1987.399
   6122253.596 9   4771785.85348  21960520.411    21960518.5454   21960523.7454
     -2108.103       -1642.678
 -17136126.527 9 -13328140.12548  21556745.719    21556744.3024   21556748.9684
       224.586         175.002
 -22789668.968 9 -17486329.26748  21513644.979    21513643.3854   21513648.3334
      2541.083        1980.065
   3172902.520 9   2476014.77948  21610875.432    21610873.6304   21610877.9604
     -1329.510       -1035.982
  -8804569.713 9  -6852127.59347  23851311.122    23851309.5984   23851314.4294
       720.628         561.528
 -12205036.271 9  -9498619.19848  20990530.711    20990529.0264   20990533.8564
       620.965         483.869
 -10492948.691 9  -8119711.65446  23775163.620    23775161.9984   23775167.2614
      2389.104        1861.639
 96 10 21 17 32 30.0000000  0  8 28 17  3  1 23  9 21 31             0.000548398
   2448149.564 9   1913764.999 9  21777909.912    21777908.478    21777913.113
     -2564.210       -1998.086
   6185662.933 9   4821195.69448  21972586.833    21972584.9564   21972590.1874
     -2118.857       -1651.057
 -17142539.755 9 -13333137.45848  21555525.360    21555523.9564   21555528.5974
       203.424         158.512
 -22865691.501 9 -17545567.58048  21499178.365    21499176.7544   21499181.7194
      2527.600        1969.558
   3212849.783 9   2507142.51048  21618477.120    21618475.3314   21618479.7004
     -1333.397       -1039.011
  -8825939.198 9  -6868779.10547  23847244.581    23847242.9794   23847247.9244
       704.413         548.893
 -12223555.846 9  -9513050.03448  20987006.518    20987004.8464   20987009.6654
       613.974         478.421
 -10564397.914 9  -8175386.36646  23761567.264    23761565.6014   23761570.9044
      2374.435        1850.209
 96 10 21 17 33  0.0000000  0  8 28 17  3  1 23  9 21 31             0.000547066
   2525272.777 9   1973860.986 9  21792585.987    21792584.571    21792589.198
     -2577.548       -2008.479
   6249392.838 9   4870855.33348  21984714.246    21984712.3584   21984717.6364
     -2130.117       -1659.831
 -17148334.723 9 -13337653.03048  21554422.671    21554421.2544   21554425.8684
       182.834         142.468
 -22941330.762 9 -17604507.23548  21484784.668    21484783.0744   21484788.0324
      2514.585        1959.417
   3252903.011 9   2538352.80848  21626099.020    21626097.2144   21626101.5934
     -1337.047       -1041.855
  -8846829.255 9  -6885057.02047  23843269.212    23843267.7554   23843272.8074
       687.992         536.098
 -12241874.157 9  -9527324.04248  20983520.663    20983518.9924   20983523.7934
       606.915         472.921
 -10635416.400 9  -8230725.44846  23748053.167    23748051.3854   23748056.4164
      2359.832        1838.830
 96 10 21 17 33 30.0000000  0  8 28 17  3  1 23  9 21 31             0.000545742
   2602788.206 9   2034262.594 9  21807336.733    21807335.306    21807339.921
     -2590.754       -2018.769
   6313462.592 9   4920779.78948  21996906.323    21996904.4254   21996909.7334
     -2141.770       -1668.912
 -17153529.079 9 -13341700.59448  21553434.220    21553432.8144   21553437.4234
       162.974         126.993
 -23016569.566 9 -17663134.84648  21470467.168    21470465.5854   21470470.5254
      2500.622        1948.537
   3293060.692 9   2569644.49948  21633740.804    21633738.9994   21633743.3664
     -1340.741       -1044.733
  -8867225.933 9  -6900950.51247  23839387.886    23839386.3634   23839391.4034
       671.377         523.151
 -12259989.002 9  -9541439.50748  20980073.564    20980071.8714   20980076.6564
       600.261         467.736
 -10706001.872 9  -8285727.11746  23734621.284    23734619.5194   23734624.4364
      2345.218        1827.443
 96 10 21 17 34  0.0000000  0  8 28 17  3  1 23  9 21 31             0.000544428
   2680695.958 9   2094969.904 9  21822162.126    21822160.684    21822165.298
     -2603.248       -2028.505
   6377871.949 9   4970968.86748  22009163.052    22009161.1544   22009166.4574
     -2152.299       -1677.116
 -17158137.244 9 -13345291.39048  21552557.369    21552555.9454   21552560.5644
       144.044         112.242
 -23091386.183 9 -17721433.48848  21456230.066    21456228.4444   21456233.3844
      2486.969        1937.898
   3333325.427 9   2601019.60348  21641402.955    21641401.1384   21641405.4904
     -1343.882       -1047.181
  -8887137.923 9  -6916466.32647  23835598.635    23835597.1014   23835602.0914
       655.993         511.163
 -12277915.304 9  -9555408.05548  20976662.309    20976660.6264   20976665.3724
       594.714         463.413
 -10776152.274 9  -8340389.76246  23721272.141    23721270.3964   23721275.3814
      2331.116        1816.454
 96 10 21 17 34 30.0000000  0  8 28 17  3  1 23  9 21 31             0.000543112
   2758989.064 9   2155977.493 9  21837060.858    21837059.392    21837064.000
     -2616.135       -2038.547
   6442611.454 9   5021415.20248  22021482.577    22021480.7044   22021485.9664
     -2163.562       -1685.892
 -17162160.502 9 -13348426.40848  21551791.770    21551790.3434   21551795.0034
       124.313          96.867
 -23165777.151 9 -17779400.44448  21442073.937    21442072.3264   21442077.2364
      2472.577        1926.683
   3373714.548 9   2632491.64048  21649088.761    21649086.9504   21649091.2984
     -1348.746       -1050.971
  -8906583.722 9  -6931618.83747  23831897.780    23831896.3694   23831901.5064
       640.490         499.083
 -12295662.955 9  -9569237.39848  20973285.046    20973283.3764   20973288.1004
       588.391         458.486
 -10845867.925 9  -8394713.65046  23708005.713    23708003.9674   23708008.8644
      2316.600        1805.143
 96 10 21 17 35  0.0000000  0  8 28 17  3  1 23  9 21 31             0.000541781
   2837668.663 9   2217286.241 9  21852033.094    21852031.647    21852036.250
     -2629.035       -2048.599
   6507696.951 9   5072131.14248  22033867.937    22033866.1064   22033871.3424
     -2175.239       -1694.991
 -17165592.863 9 -13351100.98948  21551138.627    21551137.2214   21551141.8644
       104.738          81.614
 -23239726.773 9 -17837023.50348  21428001.761    21428000.1704   21428005.0544
      2457.492        1914.929
   3414260.683 9   2664086.02448  21656804.434    21656802.6254   21656806.9814
     -1354.059       -1055.111
  -8925559.993 9  -6946405.51047  23828286.616    23828285.2774   23828290.4144
       624.701         486.780
 -12313207.917 9  -9582908.80048  20969946.342    20969944.6934   20969949.4124
       581.419         453.054
 -10915145.683 9  -8448696.33046  23694822.477    23694820.8464   23694825.6954
      2301.992        1793.760
 96 10 21 17 35 30.0000000  0  8 28 17  3  1 23  9 21 31             0.000540425
   2916728.638 9   2278891.385 9  21867077.707    21867076.259    21867080.863
     -2641.606       -2058.394
   6573117.217 9   5123107.94748  22046316.997    22046315.1874   22046320.4244
     -2185.958       -1703.344
 -17168444.889 9 -13353323.36148  21550595.938    21550594.5174   21550599.1244
        85.218          66.404
 -23313223.504 9 -17894293.65048  21414015.776    21414014.1754   21414019.0584
      2442.442        1903.202
   3454959.892 9   2695799.68848  21664549.315    21664547.4684   21664551.8184
     -1359.219       -1059.132
  -8944071.702 9  -6960830.18547  23824764.116    23824762.7374   23824767.9414
       609.393         474.852
 -12330549.134 9  -9596421.44148  20966646.406    20966644.7774   20966649.4954
       574.630         447.764
 -10983991.160 9  -8502342.15946  23681721.707    23681719.9954   23681724.8384
      2287.680        1782.608
 96 10 21 17 36  0.0000000  0  8 28 17  3  1 23  9 21 31             0.000539035
   2996167.232 9   2340791.558 9  21882194.363    21882192.937    21882197.554
     -2654.304       -2068.289
   6638848.666 9   5174327.22948  22058825.285    22058823.4924   22058828.7374
     -2196.088       -1711.237
 -17170696.933 9 -13355078.21148  21550167.441    21550166.0144   21550170.5684
        64.893          50.566
 -23386274.049 9 -17951216.12648  21400114.698    21400113.0954   21400117.9994
      2427.729        1891.737
   3495822.405 9   2727640.60148  21672325.192    21672323.3574   21672327.7084
     -1364.943       -1063.592
  -8962120.111 9  -6974893.84947  23821329.812    23821328.3654   23821333.4354
       593.595         462.542
 -12347681.709 9  -9609771.50348  20963386.201    20963384.5734   20963389.2744
       567.471         442.185
 -11052407.342 9  -8555653.46146  23668702.478    23668700.8034   23668705.7294
      2273.318        1771.417
 96 10 21 17 36 30.0000000  0  8 28 17  3  1 23  9 21 31             0.000537606
   3075976.962 9   2402980.924 9  21897381.672    21897380.225    21897384.860
     -2666.460       -2077.761
   6704876.422 9   5225777.40048  22071389.979    22071388.2394   22071393.4674
     -2205.949       -1718.921
 -17172352.457 9 -13356368.24548  21549852.438    21549850.9914   21549855.5174
        45.406          35.381
 -23458903.350 9 -18007810.35648  21386293.778    21386292.1774   21386297.0644
      2414.038        1881.069
   3536844.976 9   2759606.23248  21680131.535    21680129.6994   21680134.0604
     -1369.871       -1067.432
  -8979690.640 9  -6988585.14647  23817986.453    23817984.9854   23817989.8744
       577.586         450.067
 -12364602.751 9  -9622956.73148  20960166.295    20960164.6374   20960169.3294
       560.435         436.703
 -11120403.793 9  -8608637.70346  23655763.228    23655761.6264   23655766.5304
      2259.472        1760.628
 96 10 21 17 37  0.0000000  0  8 28 17  3  1 23  9 21 31             0.000536150
   3156153.911 9   2465456.441 9  21912638.822    21912637.391    21912642.035
     -2679.090       -2087.602
   6771195.728 9   5277454.74748  22084010.208    22084008.4094   22084013.6434
     -2215.786       -1726.586
 -17173431.937 9 -13357209.41148  21549647.019    21549645.5864   21549650.1164
        26.157          20.382
 -23531116.602 9 -18064080.39848  21372552.072    21372550.4364   21372555.3194
      2399.688        1869.887
   3578002.363 9   2791676.91648  21687963.511    21687961.6574   21687966.0624
     -1374.239       -1070.836
  -8996771.250 9  -7001894.68947  23814736.259    23814734.7054   23814739.3824
       560.597         436.829
 -12381311.777 9  -9635976.75148  20956986.701    20956985.0254   20956989.7094
       553.135         431.014
 -11187968.091 9  -8661285.22346  23642906.222    23642904.5474   23642909.3594
      2244.139        1748.680
 96 10 21 17 37 30.0000000  0  8 28 17  3  1 23  9 21 31             0.000534683
   3236694.120 9   2528215.016 9  21927965.097    21927963.690    21927968.346
     -2690.576       -2096.553
   6837793.432 9   5329349.03648  22096683.363    22096681.5344   22096686.7734
     -2224.443       -1733.332
 -17173945.195 9 -13357609.37048  21549549.394    21549547.9314   21549552.4704
         7.596           5.919
 -23602913.407 9 -18120025.93148  21358889.578    21358887.9464   21358892.8344
      2386.489        1859.602
   3619271.290 9   2823834.50848  21695816.737    21695814.8934   21695819.3234
     -1377.444       -1073.333
  -9013357.265 9  -7014818.81747  23811580.060    23811578.4744   23811583.1134
       544.760         424.488
 -12397823.345 9  -9648842.90748  20953844.675    20953842.9734   20953847.6324
       547.289         426.459
 -11255078.864 9  -8713579.31746  23630135.399    23630133.7914   23630138.5124
      2229.404        1737.198
 96 10 21 17 38  0.0000000  0  8 28 17  3  1 23  9 21 31             0.000533219
   3317594.347 9   2591254.121 9  21943359.923    21943358.514    21943363.169
     -2702.731       -2106.024
   6904670.628 9   5381461.09848  22109409.655    22109407.8414   22109413.1014
     -2234.152       -1740.898
 -17173881.775 9 -13357559.96448  21549561.464    21549560.0024   21549564.5364
       -11.764          -9.167
 -23674303.243 9 -18175654.34848  21345304.523    21345302.8934   21345307.7774
      2372.893        1849.008
   3660653.464 9   2856080.35448  21703691.497    21703689.6544   21703694.1014
     -1381.215       -1076.271
  -9029447.128 9  -7027356.37347  23808518.153    23808516.6894   23808521.1354
       527.939         411.381
 -12414147.271 9  -9661562.85148  20950738.306    20950736.6284   20950741.2924
       540.943         421.514
 -11321724.917 9  -8765511.31146  23617453.090    23617451.4804   23617456.2614
      2213.573        1724.862
 96 10 21 17 38 30.0000000  0  8 28 17  3  1 23  9 21 31             0.000531767
   3398852.422 9   2654572.068 9  21958822.893    21958821.437    21958826.090
     -2714.746       -2115.386
   6971846.014 9   5433805.52848  22122192.714    22122190.8934   22122196.1774
     -2244.484       -1748.949
 -17173246.466 9 -13357064.93148  21549682.327    21549680.9004   21549685.4284
       -31.028         -24.178
 -23745289.585 9 -18230968.35248  21331796.251    21331794.6204   21331799.5114
      2359.050        1838.221
   3702132.607 9   2888401.75948  21711584.735    21711582.9204   21711587.3454
     -1384.415       -1078.765
  -9045038.126 9  -7039505.16747  23805551.254    23805549.7714   23805554.1634
       511.292         398.409
 -12430280.848 9  -9674134.46348  20947668.158    20947666.4964   20947671.1904
       534.415         416.427
 -11387895.886 9  -8817073.13046  23604861.305    23604859.6754   23604864.3384
      2197.515        1712.349
 96 10 21 17 39  0.0000000  0  8 28 17  3  1 23  9 21 31             0.000530327
   3480468.595 9   2718169.051 9  21974353.984    21974352.519    21974357.163
     -2726.681       -2124.686
   7039324.575 9   5486386.19248  22135033.525    22135031.6434   22135036.9874
     -2254.616       -1756.844
 -17172023.373 9 -13356111.88648  21549915.102    21549913.6384   21549918.1664
       -50.989         -39.732
 -23815857.121 9 -18285956.01748  21318367.689    21318366.0474   21318370.9184
      2345.152        1827.391
   3743707.240 9   2920797.56448  21719496.199    21719494.3544   21719498.7454
     -1387.546       -1081.205
  -9060131.714 9  -7051266.40147  23802679.005    23802677.5204   23802681.8694
       494.501         385.325
 -12446224.474 9  -9686558.06448  20944634.162    20944632.5034   20944637.2204
       528.052         411.469
 -11453588.459 9  -8868262.13746  23592360.164    23592358.6004   23592363.4144
      2181.812        1700.113
 96 10 21 17 39 30.0000000  0  8 28 17  3  1 23  9 21 31             0.000528896
   3562438.638 9   2782041.777 9  21989952.420    21989950.926    21989955.575
     -2738.655       -2134.017
   7107119.232 9   5539213.16048  22147934.418    22147932.5734   22147937.9324
     -2265.642       -1765.435
 -17170185.264 9 -13354679.60848  21550264.866    21550263.4324   21550267.9734
       -72.258         -56.305
 -23886015.341 9 -18340624.73648  21305016.976    21305015.3644   21305020.2264
      2331.429        1816.698
   3785377.467 9   2953267.86248  21727425.801    21727423.9664   21727428.3264
     -1391.128       -1083.996
  -9074721.136 9  -7062634.76547  23799902.706    23799901.2244   23799905.5544
       477.487         372.068
 -12461978.925 9  -9698834.25248  20941636.214    20941634.5344   20941639.2564
       521.512         406.373
 -11518829.112 9  -8919099.02146  23579945.302    23579943.7264   23579948.4884
      2166.875        1688.474
 96 10 21 17 40  0.0000000  0  8 28 17  3  1 23  9 21 31             0.000527468
   3644760.936 9   2846188.988 9  22005617.855    22005616.380    22005621.027
     -2749.970       -2142.834
   7175242.765 9   5592296.40548  22160897.885    22160896.0504   22160901.4084
     -2276.435       -1773.845
 -17167716.259 9 -13352755.72148  21550734.750    21550733.3054   21550737.8544
       -92.803         -72.314
 -23955762.786 9 -18394973.36848  21291744.438    21291742.8404   21291747.6944
      2317.758        1806.045
   3827146.872 9   2985815.44448  21735374.267    21735372.4254   21735376.7934
     -1394.028       -1086.255
  -9088800.125 9  -7073605.39447  23797223.379    23797221.9454   23797226.4534
       460.685         358.975
 -12477534.795 9  -9710955.70548  20938676.022    20938674.3564   20938679.0574
       514.966         401.272
 -11583629.275 9  -8969592.66946  23567614.341    23567612.7154   23567617.5184
      2152.494        1677.268
 96 10 21 17 40 30.0000000  0  8 28 17  3  1 23  9 21 31             0.000526036
   3727434.118 9   2910609.618 9  22021350.083    22021348.595    22021353.245
     -2761.867       -2152.104
   7243705.372 9   5645643.85648  22173925.896    22173924.0694   22173929.4094
     -2287.965       -1782.830
 -17164618.858 9 -13350342.17848  21551324.224    21551322.7754   21551327.3224
      -113.878         -88.736
 -24025076.449 9 -18448983.99048  21278554.467    21278552.8514   21278557.7354
      2302.783        1794.376
   3869017.680 9   3018442.03548  21743342.032    21743340.1474   21743344.5414
     -1397.857       -1089.239
  -9102363.273 9  -7084174.07747  23794642.096    23794640.7584   23794645.4244
       443.255         345.394
 -12492874.893 9  -9722909.02448  20935756.935    20935755.2494   20935759.9284
       507.496         395.451
 -11647983.125 9  -9019738.51946  23555368.310    23555366.6444   23555371.4054
      2137.346        1665.464
 96 10 21 17 41  0.0000000  0  8 28 17  3  1 23  9 21 31             0.000524594
   3810453.284 9   2975299.847 9  22037148.160    22037146.671    22037151.297
     -2773.261       -2160.983
   7312508.539 9   5699256.68748  22187018.708    22187016.9384   22187022.2534
     -2299.493       -1791.813
 -17160902.815 9 -13347446.57948  21552031.333    21552029.9094   21552034.4764
      -134.310        -104.657
 -24093951.214 9 -18502652.61748  21265447.985    21265446.3814   21265451.2994
      2288.347        1783.128
   3910999.372 9   3051155.03548  21751330.852    21751329.0104   21751333.3784
     -1401.392       -1091.994
  -9115409.761 9  -7094340.16747  23792159.267    23792157.8814   23792162.6764
       426.058         331.993
 -12507998.511 9  -9734693.66148  20932878.969    20932877.3114   20932881.9884
       500.224         389.785
 -11711894.386 9  -9069539.50046  23543206.401    23543204.6914   23543209.4414
      2122.699        1654.051
 96 10 21 17 41 30.0000000  0  8 28 17  3  1 23  9 21 31             0.000523136
   3893814.666 9   3040256.743 9  22053011.324    22053009.843    22053014.462
     -2784.335       -2169.612
   7381661.253 9   5753141.89348  22200178.109    22200176.3134   22200181.6164
     -2310.615       -1800.479
 -17156575.332 9 -13344074.52648  21552854.799    21552853.3744   21552857.9524
      -154.259        -120.202
 -24162387.625 9 -18555979.66348  21252424.968    21252423.3734   21252428.2894
      2273.833        1771.818
   3953094.541 9   3083956.45448  21759341.251    21759339.4314   21759343.8174
     -1405.198       -1094.959
  -9127947.570 9  -7104109.88847  23789773.186    23789771.7524   23789776.9864
       409.684         319.234
 -12522902.945 9  -9746307.49948  20930042.780    20930041.1124   20930045.7744
       493.265         384.362
 -11775358.169 9  -9118991.78646  23531129.614    23531127.9584   23531132.6744
      2107.721        1642.380
 96 10 21 17 42  0.0000000  0  8 28 17  3  1 23  9 21 31             0.000521660
   3977515.129 9   3105477.852 9  22068939.037    22068937.544    22068942.162
     -2796.095       -2178.775
   7451145.148 9   5807285.15547  22213400.522    22213398.6664   22213404.0144
     -2322.008       -1809.357
 -17151653.155 9 -13340239.07948  21553791.495    21553790.0744   21553794.6454
      -174.252        -135.781
 -24230373.165 9 -18608955.38948  21239487.744    21239486.1384   21239491.0494
      2258.130        1759.582
   3995311.956 9   3116853.13648  21767375.007    21767373.1484   21767377.5264
     -1409.745       -1098.503
  -9139986.530 9  -7113490.88747  23787481.992    23787480.6004   23787486.1154
       392.507         305.850
 -12537583.235 9  -9757746.68348  20927249.204    20927247.5394   20927252.2184
       485.157         378.044
 -11838351.148 9  -9168077.23346  23519142.494    23519140.8344   23519145.4354
      2091.323        1629.602
 96 10 21 17 42 30.0000000  0  8 28 17  3  1 23  9 21 31             0.000520164
   4061549.888 9   3170959.448 9  22084930.324    22084928.853    22084933.471
     -2806.632       -2186.986
   7520945.257 9   5861674.82147  22226683.046    22226681.1974   22226686.5624
     -2331.688       -1816.900
 -17146153.823 9 -13335953.90248  21554837.995    21554836.5744   21554841.1604
      -192.724        -150.174
 -24297916.799 9 -18661586.76948  21226634.637    21226633.0104   21226637.8934
      2244.385        1748.871
   4037650.467 9   3149844.17248  21775431.771    21775429.9194   21775434.2954
     -1413.168       -1101.170
  -9151531.337 9  -7122486.84747  23785284.746    23785283.4924   23785289.3814
       376.756         293.576
 -12552047.731 9  -9769017.71648  20924496.689    20924494.9884   20924499.7084
       478.769         373.067
 -11900871.159 9  -9216794.14446  23507245.360    23507243.6814   23507248.1584
      2076.340        1617.927
